GFSSE_sfc_thetae_000.txt.gz
Theta_e
334 341 348 348 350 347 344 341 338 337 336 333 331 335 336 337 334 334 334 334 336 334 334 334 333 335 337 335 336 338 337 336 333 333 335 335 334 335 336 338 339 337 337
338 341 349 350 350 345 342 340 337 336 335 334 333 336 337 337 336 334 335 335 336 334 333 333 333 334 336 336 339 337 335 334 331 330 335 336 336 335 337 335 334 333 340
337 341 347 351 348 345 341 339 338 336 336 335 333 336 338 335 334 333 333 331 333 334 332 331 332 332 331 333 337 336 334 332 330 331 336 329 330 335 334 333 335 337 338
337 340 345 351 348 344 341 339 337 335 335 334 335 337 338 336 333 334 334 331 328 330 330 329 330 331 330 331 332 333 332 330 329 332 327 331 330 334 335 333 333 333 335
336 338 344 351 347 344 340 338 337 335 335 334 338 338 338 336 332 332 330 328 329 329 327 328 328 329 328 332 331 333 329 327 329 329 325 330 325 330 330 331 330 330 331
332 340 348 351 347 345 343 339 337 335 336 334 334 338 337 336 334 331 328 327 328 327 327 326 327 327 328 329 329 329 327 327 329 321 325 329 324 330 331 329 329 328 328
330 340 344 351 346 344 340 339 337 336 336 334 334 334 333 335 332 331 330 329 330 329 328 327 327 327 328 327 329 329 326 327 322 319 322 323 323 329 328 327 327 327 326
330 338 343 346 345 344 341 339 339 338 337 337 335 333 331 329 331 331 330 333 331 330 328 326 326 327 328 327 327 327 325 327 320 318 322 321 329 327 326 325 325 326 325
330 333 338 338 340 342 343 341 341 338 339 339 335 333 334 334 333 333 333 334 333 329 327 325 323 325 328 328 327 327 324 326 319 318 321 322 331 326 325 323 323 324 323
327 329 330 334 335 331 329 340 339 340 339 339 338 336 334 334 335 335 334 334 332 329 326 322 321 323 327 329 328 326 327 326 314 316 319 323 328 325 324 322 320 320 320
327 326 325 329 330 329 328 334 338 339 337 337 335 333 331 326 328 330 331 333 331 329 326 322 322 324 325 326 326 327 328 317 310 315 320 331 328 326 324 323 320 319 320
324 325 326 326 327 326 327 330 326 330 330 329 328 327 326 323 324 328 330 332 330 330 328 324 323 324 324 313 313 325 319 313 310 313 321 331 329 329 327 325 323 321 321
325 326 327 326 327 325 321 328 327 326 327 327 325 324 325 324 323 323 324 325 324 328 323 322 319 318 313 311 312 316 315 310 307 308 321 332 329 329 330 329 327 325 324
323 325 327 327 327 326 323 319 322 324 325 323 325 323 322 321 320 320 320 322 320 321 320 318 315 315 311 310 309 307 309 308 307 305 314 330 330 328 329 330 330 329 326
320 323 325 327 327 328 324 320 320 322 323 323 323 323 322 321 319 318 318 319 317 317 317 315 314 313 312 310 309 308 306 305 306 306 304 327 330 329 328 328 329 330 329
319 321 324 328 328 329 328 325 321 321 322 322 322 323 323 322 320 318 317 318 317 317 317 316 314 313 313 314 312 309 306 306 306 306 307 309 327 328 324 325 326 327 328
320 321 322 324 331 329 328 328 326 324 324 322 322 323 323 322 321 320 317 317 318 319 319 318 317 315 313 315 314 312 308 306 306 306 306 307 314 324 325 323 324 324 325
322 321 322 325 326 330 329 328 329 328 325 324 323 322 323 324 322 321 319 317 319 319 319 318 317 316 315 314 313 313 311 309 308 307 307 307 307 311 320 326 326 325 325
321 322 322 322 322 326 329 330 329 329 327 326 325 324 323 324 324 323 323 321 319 318 319 319 317 316 314 314 314 313 313 312 310 311 308 307 306 309 308 318 323 324 326
316 318 321 324 323 323 326 329 329 329 328 328 328 327 325 325 325 324 324 323 321 319 319 319 317 316 316 315 318 317 313 314 314 313 313 313 311 309 308 307 310 318 323
310 312 316 318 322 324 324 325 326 326 326 327 329 329 329 328 326 325 324 324 324 322 320 320 319 317 317 316 313 313 313 314 313 313 312 313 313 312 309 311 310 310 312
311 311 312 315 319 322 324 325 326 327 328 329 330 330 330 329 328 327 325 325 324 324 323 320 320 319 319 317 315 310 309 310 314 316 317 317 316 316 314 311 309 310 310
311 311 313 313 314 320 322 324 324 325 325 324 326 327 328 329 329 329 328 326 326 326 325 324 321 319 317 317 320 316 306 305 305 310 313 316 316 312 311 311 310 310 309
311 313 313 313 313 315 319 321 321 320 320 323 324 325 327 328 329 329 329 328 327 328 327 326 326 323 322 319 319 320 318 312 305 305 308 308 308 309 310 310 311 311 313
311 310 311 312 313 314 313 313 315 320 321 323 324 323 323 325 329 329 329 328 328 329 330 328 328 327 325 322 320 319 318 317 316 311 308 311 311 311 311 313 313 313 314
310 310 309 309 309 310 313 316 315 313 314 316 317 318 319 321 323 326 328 328 328 328 329 329 329 328 326 324 323 321 320 316 314 313 311 311 311 314 314 315 314 315 315

GFSSE_sfc_thetae_003.txt.gz
Theta_e
333 339 350 350 351 349 346 343 341 338 336 333 336 335 336 337 335 335 336 336 335 335 334 334 334 339 337 336 339 338 337 335 333 334 333 334 335 335 338 336 336 337 338
337 342 351 350 351 348 344 342 340 338 336 334 334 335 338 338 336 336 337 338 336 334 334 332 334 336 334 336 338 337 335 332 330 331 335 337 338 337 335 334 335 338 340
338 343 346 353 350 346 343 341 339 336 336 335 334 339 340 338 336 334 334 333 336 334 333 331 332 334 331 337 338 336 332 330 330 331 335 328 329 334 334 334 336 337 339
339 343 346 352 350 345 342 341 339 338 337 336 337 341 340 339 337 335 334 332 330 332 331 331 330 330 329 330 334 332 330 329 331 333 327 331 328 334 332 331 333 335 335
338 342 346 352 350 345 342 340 338 336 337 336 340 339 340 338 335 333 331 329 330 330 329 329 329 330 329 328 333 331 327 327 330 328 326 325 326 328 330 329 329 329 330
331 336 349 352 349 347 345 340 339 336 336 336 340 340 337 339 335 332 330 328 329 329 328 327 328 328 327 328 330 329 326 327 328 318 324 327 322 331 330 329 328 328 327
335 342 347 352 349 347 342 341 339 338 337 336 339 337 335 336 332 333 331 330 331 330 329 327 327 328 329 328 330 330 327 326 321 315 322 322 323 330 329 328 327 325 326
336 341 346 348 348 346 344 343 340 338 339 337 336 336 334 333 334 334 331 333 332 333 331 328 327 328 330 329 329 330 327 327 321 315 320 321 329 330 328 326 326 326 324
338 340 342 341 341 345 344 343 342 342 339 340 337 335 335 335 334 334 333 335 334 334 330 328 326 327 330 330 329 329 327 327 319 314 321 320 332 329 327 325 325 325 325
333 337 336 337 337 335 335 342 342 341 339 340 339 337 335 334 336 337 337 337 335 333 330 328 325 324 326 329 330 329 329 328 317 311 318 320 330 329 327 324 323 323 323
325 327 334 335 334 331 328 335 339 339 337 338 337 335 332 327 329 332 333 335 335 332 330 327 323 324 329 330 330 330 329 319 313 310 316 329 331 329 328 326 323 322 322
322 323 326 332 332 330 330 330 330 332 330 330 330 328 326 324 323 329 330 334 334 332 331 328 325 326 327 315 315 327 319 317 311 310 316 332 332 329 329 326 325 323 323
322 323 324 324 328 328 325 329 325 326 326 327 325 325 324 325 322 325 324 326 325 327 324 324 320 317 315 312 309 310 316 313 309 307 317 335 333 332 330 330 329 327 326
322 324 326 325 324 324 322 326 325 324 325 324 325 323 323 321 319 320 323 322 321 322 322 320 317 315 314 311 309 310 313 311 308 306 307 333 334 333 332 332 332 332 330
321 323 325 326 325 324 321 321 322 323 325 324 323 323 322 321 317 318 319 318 320 319 321 317 317 314 313 310 308 307 306 306 307 305 302 327 333 334 331 331 332 332 333
318 322 325 327 325 326 323 318 318 318 321 322 321 322 321 321 319 317 316 318 317 318 317 317 315 314 311 310 308 307 306 305 304 303 304 304 329 332 332 330 330 331 331
317 319 322 326 328 326 326 323 319 319 321 320 320 321 321 321 320 319 317 317 317 317 315 315 314 312 311 311 311 312 309 306 305 304 304 304 308 326 330 327 328 328 329
318 317 320 327 329 328 327 327 325 323 321 321 320 320 322 322 321 320 320 318 317 317 317 316 316 314 313 312 311 312 312 308 305 305 305 305 305 308 320 328 328 330 331
317 318 318 321 326 328 329 329 327 326 324 322 321 321 321 322 323 322 321 321 316 316 318 318 316 316 315 315 314 313 313 313 312 312 307 306 306 308 307 316 324 325 327
308 311 317 319 321 328 329 328 326 326 327 323 324 323 321 322 322 321 322 321 318 317 317 316 317 315 317 317 317 317 314 315 314 313 313 311 309 307 307 307 309 316 323
310 310 310 313 319 321 321 324 324 326 324 324 324 325 324 323 322 321 322 320 320 320 318 317 318 316 317 313 312 314 314 314 313 314 315 314 314 312 309 309 307 308 311
310 310 310 311 312 318 321 323 325 324 324 326 327 327 326 326 325 323 322 322 322 322 321 318 317 317 318 316 314 308 310 311 314 317 316 313 313 314 313 312 311 310 309
308 309 311 310 311 313 320 322 322 323 322 322 323 324 327 327 328 327 326 324 323 323 322 322 320 318 317 316 317 315 308 306 304 308 313 316 316 315 315 315 313 311 310
307 307 308 310 311 314 313 314 317 317 317 320 321 322 324 326 327 328 328 327 325 325 324 324 325 322 320 318 317 319 318 309 305 304 307 307 311 313 314 314 314 311 310
308 306 306 308 309 309 310 312 312 311 315 317 318 319 320 321 324 327 327 327 326 327 326 327 328 327 325 322 320 319 316 317 316 312 310 312 308 308 310 311 312 311 310
306 306 307 307 307 308 308 307 307 307 310 312 314 315 317 318 320 321 325 327 327 327 327 328 329 328 328 327 325 323 320 315 315 313 312 312 313 315 312 311 311 311 311

GFSSE_sfc_thetae_006.txt.gz
Theta_e
331 337 351 351 351 350 347 344 341 338 337 335 336 335 335 336 334 335 335 335 334 333 333 333 334 340 337 339 339 337 335 332 334 333 332 333 333 336 336 335 338 335 336
335 340 351 350 351 349 346 344 341 338 335 333 334 334 337 338 336 336 336 336 335 333 332 332 332 336 335 335 338 335 333 331 331 331 333 337 338 334 333 334 338 337 340
336 342 346 352 351 348 345 342 340 337 336 334 336 336 340 338 335 334 333 334 336 334 330 330 331 334 334 339 338 335 331 329 328 330 332 328 328 334 333 335 336 338 339
339 342 343 353 349 346 344 341 339 337 336 335 336 339 340 338 337 335 333 331 330 330 330 331 330 330 329 333 336 333 330 328 329 331 326 329 327 333 331 332 333 335 335
338 342 346 353 350 345 343 342 338 338 336 336 337 340 341 338 337 334 332 330 330 330 329 331 329 330 328 328 332 331 327 327 330 322 323 325 325 328 330 329 330 330 330
335 340 348 352 350 347 343 341 338 337 337 337 340 341 340 339 337 332 330 330 330 329 328 328 329 328 329 328 330 330 326 326 326 316 321 326 320 330 329 329 328 328 326
332 339 347 352 350 346 343 341 339 337 338 336 337 338 337 339 335 332 331 330 330 330 329 328 328 330 328 329 331 330 329 326 318 313 320 321 322 331 330 329 327 326 325
334 340 345 349 349 347 344 342 340 338 339 337 338 336 335 335 333 333 333 332 332 333 332 330 328 329 330 330 330 332 330 328 320 313 320 320 328 330 329 328 327 326 325
338 341 343 344 345 345 344 344 342 340 341 340 338 337 337 336 334 336 333 334 334 334 333 331 329 329 329 331 330 331 331 329 319 314 318 319 332 331 330 328 328 328 327
334 338 339 337 338 337 337 343 341 341 341 340 339 338 335 334 335 336 336 336 336 335 333 331 330 327 327 330 331 330 332 330 318 313 312 317 331 331 331 328 327 327 327
332 333 335 334 333 333 334 337 340 340 339 338 337 335 332 326 327 330 332 334 336 335 334 332 330 326 327 329 331 332 331 320 315 311 309 324 331 331 331 329 327 326 326
323 328 333 333 332 330 333 330 331 331 329 329 330 328 326 323 323 328 329 333 334 335 334 332 330 328 328 318 318 327 321 317 313 311 309 322 333 334 333 330 328 326 325
320 321 331 330 331 329 328 326 326 326 326 326 326 325 324 324 321 322 323 325 327 329 325 327 322 319 315 313 311 309 312 313 312 310 311 322 328 335 334 331 330 328 326
320 322 322 328 328 327 326 326 325 325 324 323 324 324 322 321 319 319 321 324 323 322 321 319 317 316 313 312 310 307 307 310 312 310 307 319 328 335 334 333 332 331 330
320 322 323 322 326 325 320 324 323 323 324 324 323 324 324 322 319 318 320 322 322 320 319 318 317 317 314 312 309 308 309 310 312 310 306 315 324 335 334 334 334 333 334
318 322 324 324 324 324 322 321 323 323 322 323 323 324 323 323 322 318 319 320 320 320 319 319 317 317 315 312 311 309 307 307 307 308 307 306 318 331 335 331 333 334 334
319 318 322 325 325 324 323 320 320 322 322 322 323 322 322 322 321 321 318 317 318 315 316 316 315 313 311 310 310 310 309 307 306 305 304 304 306 320 331 331 331 334 335
318 316 319 326 326 325 326 324 320 319 318 320 321 320 321 321 320 319 318 317 316 314 314 313 313 312 311 311 312 309 311 311 310 308 307 305 305 306 313 328 330 331 332
307 314 315 320 324 326 326 327 324 320 319 319 318 318 319 320 320 319 318 318 316 314 314 315 315 313 314 314 313 313 312 312 312 313 309 307 306 307 306 312 320 325 327
308 308 311 316 320 324 325 325 323 323 323 320 320 320 319 318 319 319 320 319 318 315 315 314 315 315 315 316 316 316 316 315 315 315 314 314 311 308 307 307 308 311 321
309 309 308 310 312 320 322 321 321 324 323 322 322 322 321 320 319 319 320 320 319 318 319 318 316 315 315 313 310 314 315 315 315 316 316 315 315 313 310 309 308 308 309
305 307 308 309 310 314 319 322 323 322 323 324 325 325 324 323 322 321 320 321 320 319 319 319 316 316 316 314 313 313 310 314 316 316 317 316 315 315 314 312 310 309 309
304 304 306 308 310 311 318 321 321 322 321 321 322 323 325 326 326 325 325 322 322 320 320 320 319 316 317 320 316 315 309 308 305 308 310 314 315 315 314 313 313 312 312
304 304 306 307 307 308 311 311 312 313 313 316 318 320 320 322 324 325 326 325 325 323 321 322 322 321 320 317 320 318 319 318 311 311 312 307 310 312 314 314 314 314 313
305 304 305 306 307 306 305 306 306 306 310 312 312 311 312 315 317 319 322 323 324 325 325 325 324 323 324 322 320 320 318 317 317 313 310 314 316 312 313 313 314 314 314
304 305 305 306 306 306 306 305 304 303 304 305 305 306 307 310 313 312 312 315 321 324 325 327 327 326 326 325 325 323 320 316 315 314 313 314 314 317 319 312 311 311 312

GFSSE_sfc_thetae_009.txt.gz
Theta_e
330 334 350 352 351 351 348 346 343 340 338 334 335 334 333 333 332 335 332 334 334 331 332 333 337 341 340 340 339 336 333 331 332 331 330 332 332 335 335 336 335 333 335
332 335 351 351 351 349 347 345 342 339 335 334 334 332 336 336 334 333 335 336 334 332 329 330 333 337 336 333 337 335 332 329 331 331 332 335 335 334 332 332 338 336 338
334 340 346 352 351 349 347 344 341 338 335 333 335 334 340 338 336 334 334 334 336 333 328 330 332 335 332 337 337 334 331 329 328 330 331 327 327 332 334 334 337 338 338
337 341 342 352 351 349 346 343 341 338 336 334 335 338 341 337 334 334 332 330 330 329 329 331 330 332 330 337 338 334 329 327 329 330 324 328 327 332 331 332 335 335 335
337 340 342 352 351 347 345 342 340 338 337 336 336 340 341 339 336 334 331 331 329 329 329 331 330 329 329 331 330 331 328 326 328 321 323 324 324 329 330 331 331 331 330
335 337 344 352 349 347 344 343 340 338 337 337 338 338 342 339 336 334 331 330 330 329 329 329 331 330 329 329 330 330 329 326 324 314 321 325 322 329 330 328 328 328 328
333 338 345 352 349 346 344 342 340 337 337 337 340 340 338 339 337 332 331 330 331 330 330 328 329 331 330 329 330 331 331 328 317 312 318 320 319 332 330 329 328 327 325
333 338 344 349 349 348 345 342 340 338 338 336 336 337 334 336 335 333 333 332 331 332 331 330 329 329 331 331 330 331 332 331 321 312 315 319 324 332 332 331 329 328 327
333 337 340 344 345 346 345 344 343 340 339 339 339 338 337 337 335 334 334 333 334 334 334 334 332 330 329 330 331 330 333 332 319 314 315 318 326 332 331 330 329 330 328
333 337 338 339 340 338 337 343 343 341 341 341 339 338 336 334 334 336 337 335 335 335 335 334 333 331 329 329 331 332 332 332 321 314 312 315 329 334 332 331 330 329 329
331 333 336 335 334 334 334 337 341 341 340 338 336 335 333 326 325 328 332 334 334 336 336 335 333 332 331 329 331 332 332 322 317 313 310 318 328 334 333 332 331 329 330
326 329 332 332 331 331 335 332 331 332 331 329 328 327 326 324 322 326 328 333 334 334 335 334 334 333 330 317 317 326 322 319 315 314 311 320 326 333 334 332 332 330 329
321 326 331 329 330 328 330 327 327 327 326 324 325 324 324 323 320 321 321 322 325 327 326 328 325 322 316 314 314 312 312 313 314 314 315 321 325 331 335 335 334 332 330
319 320 327 330 328 327 328 324 325 326 324 322 323 323 321 320 318 317 318 319 320 322 321 319 318 317 315 313 311 310 308 307 310 312 311 320 323 328 331 334 336 335 332
318 320 320 326 329 328 324 323 322 324 324 323 322 323 322 320 319 317 317 317 318 319 318 317 317 317 315 313 312 310 310 308 307 310 310 315 320 323 327 332 336 336 334
318 319 322 321 326 327 325 322 323 322 322 321 321 323 322 322 320 318 317 317 318 318 318 318 318 317 316 314 314 312 310 308 307 309 311 310 318 321 323 327 332 334 335
319 319 320 322 322 323 324 321 323 322 322 321 322 321 321 321 320 320 318 316 317 317 317 317 316 315 313 313 312 313 311 309 308 307 307 306 308 317 322 326 327 332 336
310 316 317 323 324 322 322 321 320 320 321 321 321 320 320 321 320 318 319 318 317 314 315 314 314 313 312 313 313 312 312 312 311 309 308 308 307 306 311 318 325 330 333
307 306 311 316 321 323 323 322 320 318 318 319 318 318 319 319 319 319 318 319 317 316 314 314 314 312 313 313 312 313 313 311 313 313 312 311 309 309 308 312 317 321 326
307 307 308 313 318 321 322 322 321 320 318 317 316 317 317 318 318 318 319 319 317 317 316 314 314 314 314 315 315 315 315 315 315 315 315 315 313 311 309 309 310 311 317
306 307 307 309 309 317 320 319 319 320 321 320 320 320 319 318 318 317 318 318 318 317 318 318 315 314 314 313 313 315 316 316 315 316 317 317 316 315 314 310 309 309 310
303 303 305 307 309 313 319 320 321 320 321 322 323 323 323 322 321 319 318 319 319 318 317 317 316 315 315 315 314 313 311 314 314 315 316 316 316 316 315 314 312 310 310
302 302 305 305 306 309 313 318 319 319 318 317 317 319 320 321 323 323 322 321 321 319 318 319 318 316 315 318 317 314 310 308 309 310 310 314 315 315 315 315 314 312 311
302 303 304 305 306 306 306 307 308 308 308 310 312 312 311 313 314 315 317 319 321 322 320 320 322 321 319 316 319 319 318 318 312 312 315 311 313 313 314 315 314 313 313
303 303 303 305 305 304 304 304 303 303 303 305 305 305 306 307 309 309 308 309 310 314 317 320 322 323 324 321 320 320 320 317 316 313 310 314 318 315 315 314 315 315 315
302 303 303 304 304 304 305 304 303 302 303 304 303 304 304 305 306 307 306 305 305 305 307 308 311 313 318 320 320 320 318 315 315 314 313 314 314 317 320 319 314 315 316

GFSSE_sfc_thetae_012.txt.gz
Theta_e
329 331 351 354 350 350 350 347 344 342 338 335 335 333 333 332 332 331 331 333 332 331 333 334 336 342 342 340 339 336 333 331 332 331 330 332 333 335 334 336 334 331 334
330 333 351 353 351 350 348 346 343 340 337 335 334 332 333 335 334 332 333 335 332 330 329 331 335 337 335 334 334 334 332 330 330 330 331 333 334 335 331 333 337 335 337
331 335 346 353 351 350 348 346 342 339 335 334 335 333 336 337 337 335 334 334 335 331 328 330 332 333 332 336 337 335 331 330 329 330 331 327 328 332 333 334 337 339 339
334 337 342 352 351 350 348 345 342 339 337 334 334 335 341 339 334 332 331 330 331 330 329 330 331 332 332 334 338 334 329 328 328 331 323 326 327 332 333 333 335 336 335
335 339 341 351 351 350 347 344 342 339 337 335 335 336 342 338 337 336 331 331 330 330 328 330 331 332 329 331 333 332 329 326 328 322 320 324 324 330 332 332 333 333 332
333 336 343 351 351 349 346 343 341 339 338 336 336 338 342 341 337 335 331 330 330 330 330 329 332 331 331 331 330 331 330 327 325 314 318 324 325 330 332 330 331 331 330
332 336 340 349 351 348 346 344 341 339 338 336 338 340 341 342 338 335 332 330 330 330 330 330 329 331 331 331 330 331 331 331 318 313 314 320 321 332 332 331 330 329 328
332 336 340 348 350 349 346 344 342 338 338 337 337 337 336 336 339 333 333 332 331 332 332 332 331 330 330 332 331 331 331 333 322 313 312 318 324 331 334 332 331 330 329
332 335 339 342 345 347 346 345 343 340 340 339 338 338 337 337 334 334 334 334 333 333 334 335 334 333 331 330 330 331 332 332 321 316 314 315 326 333 335 333 332 331 330
329 334 335 338 340 339 338 344 344 343 341 341 341 339 337 335 334 336 337 337 334 334 336 336 335 334 333 331 330 331 332 332 323 318 314 312 326 333 335 333 333 332 331
328 331 334 336 336 336 335 336 342 342 340 339 337 335 333 327 325 326 329 334 335 334 335 336 336 335 334 333 330 330 331 322 319 317 314 320 325 333 335 335 333 333 331
323 328 334 333 333 333 337 332 333 332 331 330 328 326 327 324 322 325 326 331 333 334 334 334 334 335 332 320 316 321 318 318 317 316 315 325 327 329 333 334 334 334 333
317 325 331 330 331 330 331 328 328 327 326 325 324 324 323 323 320 319 319 319 320 325 323 325 324 322 319 317 314 312 312 311 312 315 318 325 328 329 330 332 334 336 334
317 321 328 330 329 328 328 326 325 325 324 322 322 323 321 320 319 317 316 317 317 318 319 319 319 319 317 316 313 311 310 309 309 310 312 320 324 328 328 329 332 335 337
316 319 320 328 329 327 325 324 322 323 324 323 322 322 321 319 318 317 317 316 316 317 317 318 317 318 317 316 315 313 313 311 309 309 309 315 319 322 326 327 329 332 334
317 318 320 320 327 327 327 324 324 321 322 321 321 321 321 320 319 318 317 316 316 317 318 318 318 318 317 315 316 314 314 313 312 310 309 309 317 320 324 327 329 328 331
310 316 318 320 321 325 325 324 324 323 322 320 321 320 320 320 319 320 317 316 318 317 317 317 317 316 316 316 314 315 314 313 312 311 309 310 311 318 321 326 327 328 328
306 307 308 320 321 320 322 321 322 321 321 321 320 320 320 320 319 318 318 319 319 315 315 314 315 314 313 313 314 314 314 313 313 311 311 311 310 309 313 319 323 326 329
306 306 307 311 317 320 319 319 319 318 319 319 318 318 319 319 319 318 318 319 317 315 313 314 314 312 314 314 312 313 313 312 312 314 312 311 311 312 311 313 318 321 325
305 306 307 310 311 318 320 319 318 317 315 315 315 315 316 317 317 317 317 317 317 315 315 313 314 317 315 316 316 316 317 317 315 313 314 315 314 313 311 311 312 313 318
303 304 304 308 310 317 318 317 317 317 319 319 320 321 319 318 317 316 316 316 316 315 317 318 318 315 315 315 313 315 316 316 315 316 316 316 315 316 314 312 312 312 312
301 302 304 305 306 311 317 318 319 318 319 320 319 317 318 320 320 320 318 317 317 316 316 315 316 317 317 317 313 314 311 314 314 316 316 316 315 317 316 315 314 311 311
301 301 304 304 305 306 307 312 312 313 311 310 310 309 310 311 309 309 310 312 314 316 317 317 318 318 316 318 319 314 310 310 315 317 311 314 315 315 315 316 315 315 313
301 302 303 304 304 305 304 305 304 303 303 304 305 304 306 306 307 306 306 305 306 308 307 310 311 315 316 315 318 320 319 316 311 310 317 314 313 313 315 315 315 315 315
302 301 302 304 304 304 304 303 304 302 302 303 303 302 303 304 305 304 304 303 303 304 304 304 304 305 306 309 309 311 312 312 313 310 306 309 315 317 317 315 316 316 316
301 301 302 304 303 303 304 303 302 301 301 301 300 300 301 302 302 302 302 302 302 302 303 303 303 303 303 305 305 305 305 305 305 306 305 305 306 310 314 317 318 316 317

GFSSE_sfc_thetae_015.txt.gz
Theta_e
336 337 351 354 353 351 349 346 345 342 339 337 335 333 334 332 332 331 332 331 332 331 333 335 336 342 341 341 339 337 333 333 332 332 331 333 336 338 335 336 333 332 334
337 338 352 355 351 351 350 346 345 342 338 336 335 334 332 335 333 332 333 334 332 330 329 332 334 338 337 333 334 334 332 331 331 330 332 333 334 336 332 334 337 335 338
336 338 349 354 353 351 349 347 343 341 337 336 335 332 335 336 335 335 335 333 333 331 329 330 333 334 334 333 336 335 334 330 329 330 332 332 333 335 332 335 338 340 341
337 339 347 354 352 351 349 347 344 341 337 335 335 335 336 340 336 332 331 330 333 330 328 329 333 332 333 332 338 334 331 329 328 330 330 330 332 333 333 335 337 337 337
337 340 346 352 352 351 350 347 343 340 339 336 335 337 340 340 337 336 333 331 330 330 328 329 332 330 332 332 333 333 330 327 328 327 327 331 333 331 336 333 335 336 334
338 341 346 351 351 352 348 346 343 340 338 337 335 337 340 342 339 336 333 330 329 330 330 330 330 332 332 331 332 332 331 330 327 327 326 330 333 332 335 333 333 334 334
339 342 344 349 350 351 348 345 343 340 338 336 337 339 339 343 340 336 333 331 330 330 330 330 330 330 332 332 332 332 332 332 329 326 324 327 332 335 336 333 332 332 332
338 341 343 346 351 350 348 346 343 341 339 337 337 337 338 338 338 335 334 332 332 331 332 331 332 331 330 330 331 331 332 330 328 329 325 323 329 334 333 335 333 332 331
338 340 342 344 348 348 348 347 345 342 340 340 339 338 338 337 334 333 334 334 335 334 332 334 335 335 334 332 332 331 333 333 329 330 328 323 323 332 335 335 335 334 333
336 339 341 343 347 347 346 345 344 344 342 342 341 339 337 335 335 335 337 335 335 334 334 336 336 336 335 335 333 333 332 332 329 329 329 327 325 328 335 335 336 334 334
332 336 340 342 345 345 344 342 343 342 341 340 338 337 335 335 333 332 331 332 333 335 334 334 335 336 336 335 332 331 330 325 326 327 328 328 329 330 331 335 335 336 335
329 333 337 340 342 344 342 342 342 341 340 338 337 335 334 334 332 329 328 329 331 333 334 334 334 334 334 332 331 327 327 325 323 323 324 328 331 333 331 331 334 335 336
324 331 335 337 340 341 341 341 340 339 338 337 335 334 332 331 331 330 329 329 329 326 329 329 329 330 330 330 329 328 327 325 323 322 322 325 329 332 332 330 331 333 334
322 325 332 336 337 339 339 339 338 336 336 335 334 332 330 330 329 328 328 328 328 328 327 328 327 328 328 328 328 327 326 325 323 322 321 321 324 326 328 331 330 330 332
321 324 325 332 336 337 336 337 336 334 334 334 333 332 330 329 328 328 328 327 327 327 327 326 326 326 326 326 326 326 325 324 323 322 321 320 321 325 326 327 328 330 329
321 322 324 325 332 335 335 335 334 333 333 331 331 331 329 329 327 327 327 327 326 327 327 326 326 325 325 325 325 325 324 324 323 323 322 322 320 322 326 329 328 329 330
311 312 314 320 325 331 333 334 333 332 331 330 329 329 328 328 328 328 327 326 326 326 326 325 325 324 323 324 323 323 323 323 323 322 322 321 321 320 322 327 330 331 330
312 312 314 315 324 326 329 330 331 330 330 330 329 328 327 327 327 327 326 326 326 325 324 323 323 322 321 320 319 321 320 322 322 322 322 322 321 320 321 321 325 329 331
311 313 315 316 318 324 325 326 327 326 327 328 327 326 326 326 325 325 325 325 325 324 323 322 322 321 320 321 320 320 322 321 322 321 321 321 321 320 321 321 320 322 326
309 311 314 317 320 324 325 325 325 325 325 325 325 325 324 324 323 323 323 323 324 323 323 323 321 322 321 321 319 319 322 324 324 323 322 322 322 322 321 320 321 320 320
308 309 310 315 318 324 324 324 325 324 323 319 318 318 319 321 322 321 321 320 321 321 321 322 321 320 320 322 316 316 319 322 323 324 324 323 323 322 323 322 322 320 320
306 308 308 309 311 318 324 324 325 320 316 314 313 312 312 310 310 310 310 310 311 312 312 313 314 313 315 319 316 315 312 315 321 321 323 323 323 324 323 323 323 322 321
306 306 308 309 309 310 312 314 314 313 313 311 309 309 309 309 308 307 307 307 308 309 307 309 309 309 307 309 312 311 307 306 310 314 319 321 322 322 322 323 323 323 323
305 307 308 308 309 309 311 310 309 308 306 307 307 307 306 307 306 305 305 305 306 306 305 306 306 306 306 304 307 309 310 310 303 302 308 313 315 316 319 320 321 322 322
306 306 307 308 308 308 308 308 307 305 305 305 304 303 304 304 304 302 303 303 303 303 304 304 304 304 304 304 304 304 305 306 307 304 301 304 309 310 313 316 318 320 321
306 306 307 307 305 306 306 305 304 303 302 301 300 299 299 300 300 299 299 299 300 300 300 300 302 302 302 303 304 303 303 302 302 302 300 301 302 305 309 312 313 316 318

GFSSE_sfc_thetae_018.txt.gz
Theta_e
339 341 352 354 354 352 350 347 344 341 339 336 334 332 332 332 333 332 333 331 332 331 332 335 336 339 342 341 339 336 333 333 332 332 332 333 336 338 334 334 335 333 333
340 340 352 353 354 352 349 347 345 342 338 336 335 333 332 332 332 331 333 333 333 330 330 333 335 337 339 334 334 334 332 332 331 330 332 333 334 334 335 334 337 336 336
339 339 350 355 354 352 350 348 346 343 339 336 334 331 333 336 335 332 334 333 333 331 331 332 335 335 335 334 337 335 333 331 329 330 332 331 330 333 335 334 336 341 340
339 339 348 355 353 352 350 348 345 342 339 335 333 333 336 339 335 336 331 330 333 332 329 331 333 334 333 334 338 336 332 329 329 330 328 328 329 331 335 333 336 337 338
339 341 345 354 353 352 350 348 345 342 340 336 334 336 337 341 336 333 332 331 330 331 329 329 331 332 333 333 333 333 333 329 328 330 327 329 333 331 332 336 334 336 336
339 341 347 353 352 352 351 348 345 342 340 337 336 335 338 342 339 337 334 331 329 330 330 330 329 331 332 332 333 333 334 332 330 331 327 328 332 333 333 335 334 334 335
339 341 343 350 352 352 350 346 344 342 339 337 335 337 339 340 342 336 335 331 329 330 330 330 330 331 330 332 333 333 332 333 329 330 329 326 330 334 337 336 335 333 333
339 341 341 347 351 352 349 346 344 342 339 338 336 337 338 339 337 336 335 331 331 332 331 332 332 333 332 331 331 331 331 333 327 328 330 328 328 332 336 337 335 334 333
340 341 341 341 345 349 349 348 346 343 341 339 337 338 336 335 334 334 333 334 334 335 334 334 335 336 336 335 334 333 334 333 329 328 328 329 330 329 333 336 335 337 336
340 340 340 341 343 347 346 346 345 345 343 342 342 340 338 337 335 334 336 335 334 335 335 334 335 337 337 337 335 334 334 332 328 327 328 328 330 330 331 333 336 336 337
336 340 341 341 343 345 344 343 344 342 342 341 339 337 335 335 335 334 333 331 332 333 334 334 334 335 336 335 336 334 332 329 327 325 325 330 330 333 332 332 333 336 336
333 337 340 341 342 344 343 344 344 341 341 339 338 336 334 333 334 333 330 329 331 332 333 334 334 334 334 332 332 332 331 330 328 326 325 330 328 332 333 332 332 333 335
330 334 337 340 342 342 343 343 342 342 340 339 339 337 335 332 332 333 333 332 332 329 331 331 331 331 331 331 331 331 331 330 329 328 328 329 328 331 330 331 332 332 332
328 330 333 338 340 341 342 342 342 341 340 339 338 337 335 333 331 331 330 331 332 332 331 331 331 331 331 331 331 330 330 330 330 329 329 328 327 330 332 330 329 331 332
328 330 331 333 337 339 341 342 341 340 339 339 339 337 336 334 331 331 331 331 331 331 331 331 331 331 331 331 331 331 330 330 331 330 330 327 327 327 330 332 332 330 330
326 327 329 331 333 336 339 340 340 340 339 339 338 337 336 335 334 333 332 332 332 332 332 331 331 331 330 331 331 331 331 331 331 330 331 331 329 327 328 332 334 334 333
319 319 320 321 327 333 336 338 339 340 338 338 337 336 335 334 334 334 333 332 332 332 331 331 331 331 330 330 330 330 330 330 330 330 331 331 330 327 327 329 332 334 334
318 321 323 323 321 328 334 336 338 338 338 338 337 336 334 333 333 333 332 332 332 331 331 330 330 330 329 329 328 329 328 329 328 329 329 330 330 329 329 328 327 329 333
319 322 324 324 325 329 332 333 333 333 334 334 334 333 331 331 330 331 331 331 331 331 330 329 327 327 325 326 323 325 325 325 327 328 329 328 328 328 328 327 326 326 326
320 323 325 328 329 330 331 331 332 332 332 332 331 331 331 329 329 329 326 323 324 323 322 322 321 322 322 322 319 321 322 323 325 325 327 327 328 328 328 328 328 327 324
318 320 324 327 329 330 330 330 328 322 321 319 318 316 315 315 315 315 315 314 314 314 313 313 313 312 313 315 311 312 314 318 322 320 324 326 324 325 326 328 328 329 328
314 316 317 321 327 329 331 328 322 318 316 316 315 314 313 312 311 311 311 311 311 311 311 310 311 309 310 311 307 307 305 308 312 314 313 313 316 317 320 323 325 325 327
314 314 315 316 318 319 319 318 318 317 316 314 312 311 310 310 309 309 309 309 309 309 308 308 308 307 304 307 308 305 302 301 305 307 309 310 311 313 313 315 317 319 319
313 315 315 315 316 316 318 316 315 313 310 310 310 310 309 308 306 304 305 305 305 305 304 304 303 304 303 301 303 304 306 304 299 298 305 307 309 309 310 312 312 313 315
314 314 314 314 313 313 313 313 311 309 309 308 307 306 305 305 303 301 301 301 301 300 301 300 300 300 301 300 300 300 302 303 302 300 298 299 302 303 305 307 310 311 313
313 313 313 311 310 311 310 309 308 307 305 304 303 301 301 300 300 298 298 298 298 298 297 297 298 299 300 299 299 300 300 299 297 296 294 296 297 299 302 304 306 308 311

GFSSE_sfc_thetae_021.txt.gz
Theta_e
338 347 355 355 354 351 350 348 346 342 339 336 334 333 333 333 334 333 333 332 333 331 332 334 336 337 341 341 338 337 334 334 333 332 332 332 334 337 337 333 336 335 333
339 344 355 356 353 352 350 348 346 342 340 337 334 333 332 331 333 331 333 335 335 331 332 334 336 338 338 334 335 334 332 333 331 330 332 334 334 334 336 335 335 338 337
337 341 351 355 355 352 349 347 347 343 340 336 334 331 331 334 334 332 334 334 335 331 331 332 335 336 335 337 338 338 334 331 330 330 332 328 329 335 334 335 334 338 341
337 340 345 355 354 352 350 349 346 344 340 336 333 333 333 336 335 336 331 331 332 333 331 331 332 333 334 335 335 336 333 330 329 330 330 326 327 335 333 334 334 336 339
336 339 351 355 353 353 350 348 345 343 339 335 333 334 337 339 340 333 332 332 331 332 331 331 331 332 332 333 334 334 334 333 330 329 329 328 328 332 332 332 336 334 337
337 340 351 355 353 352 351 349 345 343 341 337 334 334 336 339 341 337 335 332 329 330 330 330 330 330 331 333 333 333 334 334 332 329 329 328 326 332 332 333 335 334 335
337 340 346 353 352 351 351 348 345 342 339 336 334 335 338 339 341 337 335 332 330 330 331 331 331 331 331 330 331 332 332 335 329 327 327 330 327 330 334 336 335 336 335
338 340 342 348 352 351 351 347 345 342 339 337 334 337 338 339 337 337 336 332 331 332 332 332 334 334 334 333 333 332 332 333 327 326 327 329 333 329 332 335 337 335 336
339 339 340 340 345 349 350 348 346 343 340 338 336 336 336 335 334 334 334 334 334 335 336 334 335 337 337 337 336 335 336 334 329 327 326 328 334 332 331 332 335 336 337
339 339 339 340 341 345 344 346 345 345 344 342 341 341 338 338 336 334 335 336 334 334 335 335 334 334 336 337 338 338 336 334 329 327 328 328 335 331 332 332 333 335 337
336 338 340 339 341 343 343 344 343 343 342 341 339 337 336 332 334 334 334 334 331 332 333 334 334 334 336 336 336 336 335 330 328 328 326 331 332 331 333 333 333 334 335
332 335 339 340 340 342 341 343 342 341 340 339 337 336 336 332 332 333 331 331 332 333 333 334 334 334 334 330 332 334 331 331 330 329 329 333 330 330 331 332 333 333 333
331 334 336 339 340 340 341 341 341 340 339 338 337 335 334 331 330 332 332 332 333 329 331 332 332 332 331 330 330 330 330 330 330 330 331 334 332 331 332 333 332 332 333
329 330 334 336 338 340 341 340 340 339 339 337 336 335 334 332 331 330 330 331 331 331 331 332 331 331 331 331 331 330 330 330 331 331 331 332 334 332 333 334 335 333 332
328 330 332 334 336 338 339 340 340 339 338 338 338 337 335 333 331 331 331 331 332 332 331 331 331 331 331 332 332 331 331 331 332 332 333 330 333 334 333 334 335 336 335
328 329 331 332 333 335 337 339 339 339 339 338 338 337 336 335 334 334 333 333 333 333 333 332 331 331 331 331 331 331 331 331 331 331 332 332 332 333 334 335 335 336 338
323 322 322 324 327 332 335 338 339 339 339 338 338 337 336 335 335 334 334 333 334 334 333 332 331 331 330 329 328 328 330 329 329 329 329 330 331 330 333 335 335 335 335
321 321 325 325 322 326 334 337 338 338 338 338 337 336 335 334 334 333 332 332 332 331 331 329 328 327 325 325 325 326 326 326 325 325 327 329 330 329 330 333 334 334 333
322 324 326 326 327 329 334 335 335 334 334 333 334 334 333 333 332 332 331 328 326 327 325 323 320 320 320 320 320 320 321 322 322 322 323 325 327 329 329 329 329 330 332
325 326 329 329 330 331 332 332 332 333 330 327 324 323 321 319 319 320 318 316 316 316 315 315 314 314 313 313 311 312 314 316 317 317 322 322 325 324 321 324 326 327 327
323 326 328 329 330 331 331 330 325 321 319 317 316 315 314 314 314 313 313 312 313 312 311 311 311 311 310 312 309 309 310 311 313 313 313 311 312 313 315 316 317 321 322
317 320 325 327 330 330 326 324 321 318 316 315 315 313 312 310 310 310 310 309 309 309 309 308 307 306 306 307 304 303 301 304 309 307 306 308 309 310 312 312 313 314 315
315 316 318 319 319 320 320 320 318 317 317 313 312 311 310 308 306 305 305 305 305 305 305 304 304 303 301 303 304 301 297 295 299 303 304 305 306 305 308 307 307 308 310
315 317 317 317 317 318 319 317 315 312 308 309 310 309 308 307 304 302 302 301 301 302 300 301 300 300 300 299 301 300 302 300 296 295 301 301 302 301 301 303 303 304 306
316 315 315 314 314 314 314 313 311 309 309 308 308 306 305 304 302 300 299 299 298 298 298 298 298 298 298 299 298 297 298 299 300 295 291 294 297 298 299 301 303 302 303
315 314 313 311 310 311 311 310 309 307 306 305 303 302 301 301 300 298 297 297 297 297 296 296 297 297 297 299 297 296 296 296 294 292 290 291 292 296 299 300 301 303 304

GFSSE_sfc_thetae_024.txt.gz
Theta_e
336 348 357 355 354 352 350 349 346 342 340 338 336 334 335 335 336 335 335 334 336 333 334 336 338 338 342 342 338 337 336 335 334 332 332 332 331 336 338 333 335 335 332
342 347 357 356 353 351 351 348 346 342 340 338 335 334 334 332 334 331 333 337 336 333 334 336 339 340 338 336 338 336 335 335 331 331 332 334 335 333 335 334 335 336 339
338 348 353 356 355 352 351 348 346 343 340 337 334 332 331 333 334 334 335 334 336 333 333 333 335 336 337 338 338 339 335 333 330 331 332 328 325 334 336 335 334 336 340
335 347 348 356 355 352 350 349 347 343 340 337 333 332 333 336 336 335 333 333 333 333 332 331 333 333 333 335 335 335 334 331 329 331 326 327 324 336 336 333 332 335 336
331 341 348 355 355 353 351 349 346 344 340 336 333 333 336 337 339 332 334 333 332 331 330 330 330 331 332 333 333 333 335 335 333 330 325 324 321 329 335 333 333 336 335
331 348 352 354 355 354 353 348 346 344 341 337 334 334 335 337 341 338 335 333 331 331 331 329 330 330 329 329 332 332 333 333 333 325 322 323 323 328 333 333 334 336 335
332 346 350 354 354 353 352 349 346 343 341 337 334 334 339 339 340 339 336 333 331 330 330 331 329 330 332 332 331 331 331 335 328 322 321 321 323 330 331 334 336 336 335
332 340 347 351 352 352 352 348 346 343 340 338 334 335 337 339 339 339 338 334 332 333 333 331 332 335 336 336 335 334 335 334 327 321 321 321 328 334 332 332 335 336 338
334 335 339 345 348 349 350 348 347 344 342 340 337 336 338 338 336 336 336 335 335 334 335 335 334 334 336 337 338 338 338 335 328 324 324 321 330 334 334 333 332 335 337
332 333 334 335 340 340 345 347 346 345 343 342 341 340 337 336 336 338 337 338 335 335 333 334 335 334 334 335 337 338 338 336 327 325 324 323 333 334 334 333 333 334 335
331 332 332 333 336 340 342 343 344 343 342 340 338 336 335 329 328 331 333 335 335 332 332 333 334 335 336 336 336 336 335 328 325 324 322 330 336 333 333 334 334 334 334
326 330 332 332 334 336 339 340 338 337 336 335 333 332 331 328 326 329 329 331 334 334 334 334 335 336 335 329 327 331 329 327 326 325 323 334 337 333 333 333 333 334 334
326 328 331 332 333 335 335 337 338 335 336 335 333 329 329 325 323 325 325 326 325 328 326 329 330 330 327 326 324 323 325 325 324 323 327 336 339 336 335 335 335 334 335
323 326 330 330 332 332 335 334 333 333 332 330 330 329 327 325 324 323 322 323 324 325 324 324 324 324 325 325 324 324 324 323 324 324 326 332 337 338 337 337 337 336 336
319 324 325 329 329 332 332 334 333 332 331 331 331 330 328 326 324 324 324 324 325 325 324 324 325 326 326 326 326 327 327 327 327 328 327 329 334 338 339 338 338 338 338
320 323 326 326 327 329 331 332 332 332 332 331 332 331 331 329 327 328 327 328 329 329 328 328 327 327 327 327 327 327 327 327 326 324 324 325 331 335 338 339 339 339 338
316 316 317 319 320 325 327 332 332 334 334 333 332 332 330 330 328 328 327 327 329 329 329 328 327 327 325 324 321 321 320 320 322 321 321 321 323 327 333 338 340 339 337
314 316 320 321 316 317 326 330 332 334 333 333 332 331 331 330 329 326 328 324 326 328 325 323 317 314 314 315 314 316 317 318 318 317 317 318 319 322 327 334 337 336 337
316 319 320 320 318 321 328 330 331 330 329 328 326 324 319 318 320 321 316 311 311 312 310 309 308 307 306 306 307 306 307 307 309 313 312 312 312 311 311 318 325 329 332
319 322 322 324 325 327 327 326 325 318 315 314 313 311 311 310 310 310 309 307 308 307 306 305 304 305 304 304 306 305 305 306 306 306 306 305 304 307 308 308 308 311 321
321 321 323 323 324 325 324 322 317 313 310 309 309 308 307 307 307 305 306 305 305 304 303 303 302 301 300 301 299 299 300 302 300 301 300 300 303 304 305 304 306 306 305
316 319 321 323 321 320 318 316 314 311 310 309 308 306 304 302 302 302 300 300 300 299 299 298 297 297 297 297 295 294 292 295 298 299 300 301 300 301 300 303 299 300 301
310 312 314 315 315 315 314 313 312 311 309 306 305 304 303 300 299 298 298 297 297 297 296 295 294 294 293 295 295 293 290 289 292 296 297 298 297 297 297 297 297 299 299
309 310 311 312 312 313 313 311 308 305 302 303 303 302 301 299 297 296 296 295 294 295 293 293 294 292 292 292 294 296 293 292 289 289 294 295 295 294 294 295 296 297 298
310 308 308 308 308 308 307 307 305 302 302 301 300 299 297 297 296 295 294 293 292 293 291 291 291 291 292 292 293 291 291 291 292 291 287 288 291 292 294 295 296 296 298
308 307 306 305 305 305 304 303 301 299 299 297 296 295 295 294 294 293 293 291 291 291 291 290 290 290 291 292 292 291 291 288 287 288 287 287 287 290 293 295 295 293 294

GFSSE_sfc_thetae_027.txt.gz
Theta_e
341 351 357 355 354 352 350 349 345 342 340 338 337 335 337 338 337 337 335 335 335 335 335 339 340 340 343 341 338 338 338 336 333 332 331 331 331 332 336 333 333 334 334
344 352 357 356 353 352 351 348 345 343 340 338 336 336 333 335 334 332 334 336 334 333 334 336 339 340 341 340 340 337 337 334 332 331 333 334 332 332 336 335 334 333 339
346 351 353 356 355 352 351 348 345 343 340 338 335 334 334 336 336 337 335 335 333 333 332 333 334 335 337 338 336 338 335 334 332 330 333 326 326 333 335 336 334 334 337
346 350 351 355 355 353 351 348 346 343 340 338 335 334 333 336 337 335 334 334 333 332 331 331 331 332 332 333 334 334 334 333 330 330 326 325 325 332 336 336 334 334 336
346 349 351 355 355 355 352 349 346 344 340 338 334 335 335 337 340 333 335 334 332 331 330 329 329 329 331 331 331 332 333 333 333 331 325 323 320 325 334 336 333 334 336
338 344 352 355 355 355 353 349 346 344 341 338 336 335 334 337 340 338 336 333 333 332 330 329 329 329 328 328 329 332 332 333 336 324 321 321 323 329 330 335 335 335 336
343 347 351 355 355 355 352 348 346 344 342 337 336 336 338 339 341 339 337 334 333 331 331 330 330 330 332 333 332 332 332 334 327 321 320 320 320 332 334 332 335 336 336
343 348 350 351 353 353 351 349 346 344 341 338 336 339 339 340 342 340 337 335 333 333 333 333 332 333 336 337 336 336 336 335 329 322 321 320 326 333 335 334 333 335 336
341 344 346 347 349 350 350 348 348 344 342 341 337 337 339 338 338 337 339 336 335 335 335 335 335 334 334 336 337 339 339 337 330 325 325 322 328 333 334 336 335 334 334
334 338 342 343 345 343 345 347 346 345 343 342 340 338 337 335 336 339 338 338 337 336 335 333 333 334 334 334 336 338 338 337 330 326 326 324 332 335 335 335 335 335 334
330 332 335 338 340 339 344 343 344 343 341 340 338 336 333 329 328 331 333 334 338 335 333 333 334 335 337 336 336 336 334 329 327 326 325 329 334 337 336 338 338 335 335
325 328 330 333 334 336 344 340 339 339 337 335 333 330 330 327 325 328 329 333 335 335 336 335 335 337 335 328 326 329 325 327 326 325 325 331 336 337 338 340 338 337 335
324 327 329 329 332 335 336 338 337 335 333 333 331 330 329 329 323 323 323 325 324 326 325 327 326 328 326 325 324 323 324 325 325 325 328 333 337 338 340 341 340 340 338
322 326 329 330 329 331 335 336 335 333 332 330 331 329 325 322 320 320 320 321 322 323 322 323 322 322 323 325 324 325 325 324 324 325 326 331 337 339 339 341 342 341 341
321 323 327 328 329 329 331 332 330 332 330 328 327 327 325 323 322 322 322 322 322 323 323 323 325 326 327 325 326 326 326 324 324 324 324 327 332 336 336 336 337 342 340
318 321 325 326 326 329 329 330 330 330 332 331 331 331 328 327 325 325 325 326 328 328 328 327 326 326 325 324 321 320 320 319 319 318 319 319 327 330 333 334 336 337 337
312 313 316 318 321 324 328 329 330 333 333 332 331 331 331 328 326 326 327 325 326 327 322 318 313 312 310 310 308 311 314 314 315 316 317 316 317 323 327 323 325 329 332
312 314 317 319 315 317 324 328 331 333 331 329 328 324 320 320 326 321 313 311 313 312 308 306 305 305 304 304 304 304 304 305 306 307 309 308 308 306 313 319 320 320 323
312 316 317 318 315 319 326 326 323 321 317 315 314 313 311 310 311 310 309 306 306 306 304 303 303 302 301 301 301 301 302 301 303 306 303 300 300 302 304 311 315 317 316
318 318 319 321 322 324 320 316 313 312 311 310 308 306 306 306 305 305 304 302 303 302 301 299 299 298 298 298 299 300 298 299 301 298 297 297 299 300 301 301 301 303 310
318 319 320 322 322 324 317 313 310 307 306 305 305 303 302 302 301 300 300 299 299 298 296 296 296 295 295 295 294 294 295 296 295 295 295 297 298 299 297 297 297 296 297
315 316 317 316 316 317 315 312 309 307 305 304 303 300 298 298 298 297 296 296 295 295 293 292 292 292 293 293 292 291 289 292 294 294 295 296 295 295 295 295 295 295 296
309 311 312 312 312 312 311 310 309 307 304 302 301 299 297 296 295 295 294 293 293 293 291 290 290 290 289 292 293 290 286 286 289 292 292 294 293 293 292 293 294 295 295
306 308 310 311 311 310 310 308 305 302 300 300 300 298 296 294 293 294 293 292 291 292 290 290 291 289 290 289 292 294 291 289 286 285 291 291 292 292 292 292 293 295 295
305 304 304 305 305 305 304 304 303 300 299 298 296 294 294 292 292 292 291 290 290 290 289 288 288 288 288 289 289 290 288 288 288 285 282 285 290 290 291 291 293 293 294
303 302 302 303 301 301 301 300 299 296 295 293 292 291 291 291 291 290 290 288 288 288 288 288 288 287 287 288 288 289 288 286 286 284 283 284 285 287 289 290 291 291 291

GFSSE_sfc_thetae_030.txt.gz
Theta_e
339 350 357 354 354 352 350 347 344 342 340 339 338 337 341 340 341 337 335 335 333 334 334 340 338 344 343 341 339 339 337 334 332 332 331 331 330 330 336 334 333 333 337
345 352 356 355 353 352 350 346 344 342 340 337 337 335 336 335 335 334 333 334 333 333 333 336 337 341 340 341 339 336 334 334 333 330 332 333 331 330 333 337 335 332 337
348 351 352 355 355 351 350 347 345 342 340 338 336 334 335 337 335 336 334 333 332 333 331 333 335 335 337 337 336 335 334 333 333 330 333 323 324 333 334 336 336 334 335
349 350 351 355 355 352 350 347 345 343 341 338 335 335 336 335 337 335 334 333 333 331 331 330 330 332 332 333 333 333 334 334 331 331 324 324 324 331 333 336 337 335 335
347 349 350 355 355 354 350 347 345 343 341 338 336 335 336 339 340 336 336 334 332 330 330 329 329 330 331 332 332 333 333 334 333 331 324 322 320 327 333 338 335 334 334
344 348 351 354 355 355 352 347 346 343 341 338 335 336 336 338 340 336 337 334 333 331 330 329 329 329 328 328 329 330 332 333 335 324 321 320 323 329 333 331 335 335 336
340 345 350 355 355 354 352 348 346 344 341 337 335 336 338 339 341 339 338 335 334 332 331 330 330 330 331 333 334 334 333 335 327 321 319 318 318 331 334 335 333 336 336
340 345 349 352 354 354 351 348 347 345 342 337 337 339 340 340 342 340 337 335 334 333 332 332 332 332 334 336 337 336 338 336 329 323 321 320 325 332 334 336 335 334 334
344 346 347 349 350 350 349 348 348 345 342 340 339 340 339 339 342 341 339 337 335 335 335 335 335 335 334 334 335 337 339 338 331 326 326 323 329 334 334 334 336 336 335
341 344 344 344 346 346 346 347 346 345 343 342 340 339 338 336 337 339 340 339 336 336 336 335 333 334 334 334 335 337 337 336 330 328 327 325 333 337 338 337 336 336 336
336 338 343 343 343 343 343 343 345 344 342 340 338 335 333 328 328 330 333 335 337 337 336 334 334 335 337 336 336 336 334 327 325 326 325 330 335 339 338 338 339 336 335
326 331 337 340 340 340 345 340 339 339 336 334 332 330 329 327 325 326 328 334 336 338 337 335 336 338 336 328 326 329 324 323 323 325 325 331 336 340 340 341 341 341 339
325 328 332 334 336 335 339 338 338 336 333 332 330 329 327 328 325 324 323 325 325 326 324 326 325 324 324 324 324 323 323 323 325 326 328 333 336 339 340 342 342 340 339
320 326 329 331 331 332 336 338 337 334 331 330 330 329 326 325 318 318 319 320 321 322 322 321 321 321 322 324 322 321 322 322 322 322 323 330 332 332 333 333 336 339 340
319 324 327 329 330 330 334 335 333 332 331 330 329 328 325 321 319 321 321 321 321 322 323 324 325 325 323 321 319 316 317 318 317 318 316 323 326 327 327 330 332 333 336
316 321 325 327 328 330 333 331 331 331 331 330 329 328 327 326 324 324 323 323 325 326 324 317 314 313 311 310 307 307 308 309 309 310 311 312 321 318 318 321 323 325 326
313 317 323 324 326 326 329 330 328 332 331 330 330 330 329 328 325 319 312 312 314 312 311 309 308 305 303 304 301 304 303 303 303 304 307 306 304 311 315 317 318 320 323
312 314 315 317 320 323 326 327 329 330 327 321 315 314 315 314 314 311 309 308 309 307 304 302 301 300 299 299 298 299 299 300 299 302 301 297 298 301 306 311 312 313 313
311 315 316 315 313 323 323 322 318 315 314 312 311 310 309 309 308 306 304 302 302 300 298 299 298 297 296 295 296 296 297 295 298 300 295 294 297 298 299 303 307 305 306
314 316 316 314 321 315 313 312 310 310 308 308 306 305 303 302 302 301 298 297 299 297 295 295 294 294 294 293 296 297 294 295 297 293 291 296 297 296 295 295 295 294 303
316 318 319 320 317 314 312 308 305 302 304 303 301 300 299 298 297 296 296 295 296 293 292 292 292 292 292 292 292 291 292 294 292 291 292 293 294 294 293 292 293 293 295
315 317 317 318 316 313 311 307 305 302 301 301 298 296 295 295 295 295 293 293 292 292 290 290 290 289 290 291 289 289 287 289 291 291 291 292 291 292 293 293 292 293 292
311 312 312 311 310 310 308 306 304 303 301 298 296 294 293 293 294 293 292 291 291 290 289 288 288 288 287 289 290 289 284 283 286 289 289 289 290 289 291 292 292 292 292
307 308 309 309 309 308 308 305 303 300 298 298 296 293 292 292 291 292 291 290 289 289 287 288 290 287 287 287 289 292 289 288 283 282 287 288 287 288 289 288 290 291 292
305 305 305 306 307 306 305 303 302 298 298 296 294 291 290 290 290 290 289 288 288 288 287 286 287 285 286 287 286 287 286 286 286 284 281 282 286 288 288 288 288 289 291
301 301 302 303 302 302 302 299 298 296 293 292 290 289 289 289 289 288 288 287 286 286 286 286 285 285 285 285 285 285 285 283 283 282 280 281 282 284 286 288 288 288 289

GFSSE_sfc_thetae_033.txt.gz
Theta_e
336 346 358 355 353 351 350 347 344 342 341 340 339 341 343 345 342 338 335 335 333 332 336 338 337 345 345 343 342 339 336 334 332 331 331 332 330 330 335 334 333 331 338
341 350 357 356 353 351 349 347 344 341 340 338 336 338 339 340 339 336 333 334 332 331 333 337 340 341 342 342 338 336 335 334 332 330 332 331 330 332 332 336 336 331 336
345 351 352 356 355 351 348 346 344 341 339 337 336 334 334 334 333 333 333 333 331 332 330 333 335 336 339 337 336 336 335 334 332 330 332 322 322 331 336 334 336 335 334
349 349 350 355 355 352 348 346 344 342 340 337 335 335 336 335 335 334 333 333 332 331 330 330 331 333 333 333 334 334 334 334 333 332 323 323 322 331 335 334 337 337 335
347 348 349 355 355 352 349 346 345 343 341 338 335 335 336 335 337 335 335 333 331 330 329 329 329 329 331 332 333 333 334 334 334 330 323 321 320 327 333 335 339 336 335
344 345 350 355 355 354 352 347 345 343 341 338 335 335 336 338 341 337 337 334 333 331 330 329 328 328 328 328 328 330 330 331 334 322 320 320 321 328 333 334 333 336 336
342 344 348 355 355 355 350 347 346 344 341 338 335 337 337 338 341 337 338 335 334 332 331 330 330 330 331 333 334 334 335 336 328 321 320 318 317 331 333 335 336 335 337
342 345 348 351 353 353 351 349 347 344 342 338 336 337 339 340 341 340 338 336 335 333 332 332 332 332 333 335 335 336 337 337 331 325 323 321 326 334 335 334 335 336 335
340 344 346 348 350 350 350 349 348 346 343 339 338 340 340 341 343 341 338 337 336 335 335 335 334 334 335 334 335 336 338 338 331 328 327 325 330 336 337 336 336 336 336
340 343 344 346 347 347 345 347 346 346 344 341 341 341 338 336 339 341 341 340 337 336 336 335 334 333 334 335 335 337 336 335 328 326 326 326 334 338 339 339 339 339 337
338 339 342 344 344 344 343 343 345 344 342 340 337 336 334 328 327 329 333 335 338 337 337 336 335 335 337 336 336 336 334 327 323 324 324 330 335 339 340 340 340 340 339
331 334 341 341 341 341 345 340 339 339 336 334 332 329 328 325 324 326 327 333 336 337 338 336 336 338 335 327 325 328 323 321 321 322 324 332 335 338 340 340 340 339 339
329 330 337 338 340 339 340 337 336 335 332 331 329 328 327 327 324 323 322 322 324 326 323 324 323 322 321 322 322 321 321 320 320 322 324 329 330 333 334 334 335 336 336
320 327 332 335 335 335 337 338 337 335 331 330 329 329 325 324 321 319 319 319 320 320 320 320 320 323 324 324 321 317 314 316 316 316 317 322 325 327 327 328 330 331 332
314 322 328 331 331 332 333 335 333 333 332 330 329 329 326 324 318 317 318 320 321 321 324 322 319 315 312 311 309 307 308 307 306 308 309 318 317 317 321 323 324 325 327
309 317 326 329 331 330 333 332 332 331 331 330 331 330 327 325 325 324 318 317 312 314 312 311 309 308 305 302 301 301 301 301 301 302 305 301 311 312 315 319 320 322 321
312 315 322 327 328 329 332 332 330 332 332 329 329 329 328 327 317 311 311 310 309 309 308 306 304 300 298 298 295 297 297 298 297 301 298 294 299 307 310 313 314 314 314
311 313 320 327 326 327 329 327 329 330 325 317 316 315 314 313 311 309 308 306 304 302 300 298 296 295 295 294 293 294 295 294 296 296 293 293 297 298 300 307 307 307 308
310 312 312 317 321 324 325 320 317 315 313 311 310 309 309 307 306 303 301 300 297 295 294 295 294 293 292 292 293 294 293 292 297 294 290 294 295 295 294 299 301 301 303
310 313 313 316 318 317 313 311 309 309 307 307 306 304 303 302 299 298 296 295 295 293 292 291 291 291 292 290 294 294 291 292 294 289 290 293 293 292 292 292 290 292 300
313 314 312 315 311 313 311 308 305 304 303 301 301 300 298 296 296 294 294 293 292 291 289 290 290 289 289 290 289 289 291 292 291 289 290 289 290 290 291 290 291 291 292
314 315 316 313 311 310 309 305 303 301 300 298 296 296 294 293 293 293 292 291 290 289 288 288 288 287 288 289 288 287 285 286 289 290 289 291 287 289 290 290 290 290 289
312 313 314 311 309 307 305 303 300 300 299 297 295 292 291 292 292 291 290 290 289 288 287 287 287 286 285 287 288 285 281 281 284 287 287 288 288 287 287 289 290 290 290
311 310 310 308 306 305 305 303 302 299 296 295 292 290 290 290 290 290 290 289 288 287 286 287 287 285 286 285 286 289 287 286 281 280 285 287 285 286 286 286 288 288 289
307 307 306 306 305 304 303 302 300 297 296 293 290 288 288 288 289 289 288 287 286 286 285 285 284 284 285 285 284 285 284 284 284 282 279 281 283 285 286 286 286 287 287
302 303 304 305 302 302 301 299 299 295 293 291 289 288 287 287 287 287 287 285 285 285 284 284 284 283 283 283 283 283 283 281 281 280 279 279 279 282 284 286 286 286 287

GFSSE_sfc_thetae_036.txt.gz
Theta_e
334 343 358 356 353 351 349 346 344 343 343 341 341 341 342 343 340 338 336 334 333 333 338 336 337 345 346 345 343 339 336 334 332 332 333 333 331 329 332 335 333 331 337
337 346 357 356 355 351 348 347 344 342 340 339 337 340 341 344 339 336 333 332 333 331 335 339 343 343 345 342 340 337 336 335 333 332 333 328 329 332 333 333 336 332 335
341 349 352 356 354 351 349 346 344 341 339 337 336 336 336 336 334 331 332 332 332 331 331 334 336 339 340 338 337 337 336 335 332 331 331 322 322 331 336 335 335 334 334
346 349 349 355 355 351 348 346 344 341 339 337 335 334 334 334 334 333 332 332 332 331 330 330 332 334 334 334 334 335 334 334 334 333 324 323 322 330 334 334 336 337 336
347 348 349 355 355 352 348 346 344 342 340 337 335 336 336 335 336 335 333 332 331 330 329 329 329 330 331 332 332 333 332 332 333 329 322 320 319 326 331 334 335 339 335
344 344 350 355 355 353 350 347 345 343 341 338 335 336 336 337 339 336 336 334 332 330 329 328 328 328 327 328 329 330 331 330 332 320 319 320 321 327 330 334 334 334 336
341 343 348 355 355 353 349 347 345 344 342 338 336 335 337 338 342 338 337 335 334 331 330 329 329 329 330 332 334 334 335 336 328 322 321 320 319 332 333 333 335 336 336
341 343 347 351 353 354 351 348 347 344 342 339 335 337 338 339 341 340 339 336 335 333 331 331 331 332 332 334 335 336 337 338 332 325 324 323 328 336 337 336 334 335 336
341 342 344 347 349 351 350 349 348 346 343 340 337 339 341 342 341 341 339 337 336 334 334 334 334 334 334 334 335 336 337 337 330 327 327 326 331 338 339 339 338 338 338
337 341 341 344 346 345 345 347 347 346 345 342 341 341 338 336 340 342 340 339 337 336 336 336 335 334 334 334 335 337 337 335 325 324 324 324 334 338 340 341 341 341 340
336 338 340 344 343 343 342 343 345 344 342 340 338 337 334 328 326 327 333 336 337 336 336 337 336 336 338 336 334 333 332 324 321 322 322 329 335 339 340 340 340 340 340
332 335 342 343 343 341 344 340 338 339 336 333 331 327 327 325 324 326 326 330 334 336 336 335 335 333 329 324 323 325 321 319 319 320 322 329 330 334 335 335 335 336 336
326 333 339 340 341 342 343 337 336 335 333 331 329 327 326 325 323 322 321 321 321 325 322 322 321 321 320 320 321 318 316 316 314 315 317 323 326 328 328 328 330 331 331
321 329 334 338 339 340 338 338 336 334 331 329 328 327 324 323 321 319 318 318 318 319 319 319 320 322 315 311 309 310 307 306 306 307 309 319 318 321 323 324 325 326 328
316 320 329 335 336 338 337 337 335 334 333 330 329 328 327 324 321 317 318 319 320 320 320 313 311 310 307 305 301 302 302 300 300 301 303 311 314 316 319 322 323 324 323
308 310 323 331 334 334 336 335 335 333 332 331 332 331 329 326 324 324 317 311 310 311 310 308 306 303 298 297 295 295 296 297 296 301 295 297 310 312 314 317 317 317 316
308 309 317 327 331 331 333 333 332 331 333 331 331 329 327 327 317 312 311 308 305 305 304 300 297 296 293 294 292 293 294 293 296 293 292 294 297 304 310 311 311 310 311
307 311 316 326 328 329 331 330 329 330 328 322 321 322 319 313 311 309 306 303 299 297 296 294 293 293 291 291 290 292 292 292 296 289 292 293 295 294 298 305 305 305 307
308 311 314 322 324 326 326 326 320 317 315 313 312 310 308 307 306 304 300 296 294 292 292 292 291 292 289 290 290 292 290 290 294 290 290 292 292 291 292 297 300 300 302
308 311 310 317 321 322 315 311 309 308 309 308 306 304 303 301 300 298 294 292 292 291 290 290 289 289 290 288 291 290 290 291 292 287 290 291 290 290 290 289 289 291 299
308 310 313 314 314 314 311 309 307 303 301 301 300 300 299 297 295 293 292 291 290 289 288 288 288 287 288 289 287 288 289 290 290 288 288 288 288 288 289 287 288 289 290
310 311 313 311 310 312 312 305 303 305 300 298 297 295 295 295 293 292 290 289 289 288 287 286 286 286 286 287 285 285 282 284 287 288 287 289 286 287 287 288 287 289 288
311 311 312 309 308 306 304 301 298 298 297 295 294 294 292 291 291 290 289 288 288 287 286 285 285 285 284 285 287 284 279 278 283 285 286 287 285 285 285 286 287 288 288
310 311 310 308 305 303 304 302 301 299 296 295 293 292 290 289 289 289 288 287 287 286 285 286 285 284 284 283 284 287 285 285 279 279 283 285 283 284 283 284 286 286 287
309 308 306 304 303 302 302 302 299 296 294 292 291 289 287 287 287 288 287 286 286 285 284 284 283 283 283 283 283 283 282 283 282 280 278 279 283 284 284 283 284 285 286
305 305 304 303 301 300 301 300 299 294 292 289 287 286 286 286 286 286 286 285 284 284 283 283 283 282 282 282 282 281 281 280 280 278 277 279 279 280 282 284 283 284 285

GFSSE_sfc_thetae_039.txt.gz
Theta_e
340 347 358 357 353 352 350 348 346 346 345 343 343 345 344 344 340 338 336 335 334 335 338 335 337 342 346 345 344 340 336 335 335 334 334 331 330 330 330 335 333 332 335
343 349 358 357 354 351 349 347 345 344 342 341 342 342 343 344 340 336 333 333 332 334 337 342 346 347 346 345 341 339 338 335 334 333 331 328 329 331 331 335 334 333 335
343 351 353 356 355 351 349 347 344 342 340 337 337 338 339 340 336 331 332 333 333 332 333 337 339 342 341 340 339 338 337 335 333 332 330 330 329 330 333 336 335 335 334
347 352 351 355 354 351 348 346 343 341 339 337 335 334 334 333 333 333 333 333 333 331 331 331 333 335 336 336 335 334 334 333 334 333 333 331 328 328 332 334 335 337 337
349 352 351 354 354 352 348 346 344 341 339 337 335 335 335 336 335 334 333 333 332 330 329 330 330 331 333 332 331 331 331 331 333 331 330 329 329 326 330 333 335 336 339
349 352 353 355 355 352 350 346 344 342 340 337 336 337 337 336 337 337 335 334 333 331 330 329 328 328 329 330 331 332 333 332 331 331 331 330 331 329 332 332 335 335 335
345 350 352 355 355 352 349 347 345 344 342 338 336 336 336 337 340 338 337 335 334 331 331 330 329 330 330 333 334 334 335 337 335 335 334 334 333 334 336 335 334 336 336
346 349 351 352 353 352 350 348 347 344 343 339 336 336 337 338 341 340 339 337 335 333 331 332 333 333 334 334 334 335 337 337 334 334 334 334 333 336 339 337 338 336 337
347 348 349 350 351 350 350 349 348 346 344 341 337 339 340 340 341 344 340 337 336 334 333 335 335 334 334 334 335 336 337 336 334 334 332 333 331 337 340 340 340 340 340
345 347 348 350 350 350 349 347 347 346 345 342 340 340 338 335 339 342 339 339 336 335 335 336 336 335 335 335 336 336 336 334 333 332 332 332 334 339 340 340 340 341 341
339 344 346 348 350 350 348 346 346 344 343 340 338 337 335 335 333 334 333 337 337 336 336 337 336 337 337 334 332 331 329 332 330 330 331 331 333 335 337 337 336 336 337
336 340 344 345 346 348 347 347 346 344 344 340 336 338 337 335 333 331 329 329 331 334 333 333 332 330 329 331 331 328 329 328 326 325 324 325 328 331 331 330 331 332 333
335 339 342 343 343 345 345 345 344 343 341 339 336 334 333 332 331 331 331 331 331 328 332 329 330 330 328 323 318 317 317 316 315 315 316 321 323 324 325 327 327 328 329
331 336 340 342 341 342 344 343 343 341 340 337 336 334 333 332 331 331 328 327 328 329 329 330 324 314 312 308 307 311 310 310 309 310 313 317 318 320 321 323 325 327 325
323 328 337 342 340 340 341 340 341 341 339 338 336 334 333 331 329 326 327 328 327 324 318 314 311 308 304 304 303 303 304 305 304 310 305 314 315 318 319 322 321 320 319
316 318 326 337 341 340 338 339 340 341 340 338 335 333 331 330 325 327 316 313 312 311 309 309 305 304 301 301 300 301 303 301 305 302 304 307 310 313 315 316 315 315 315
315 315 316 328 338 340 340 341 341 340 339 336 334 334 332 328 326 316 312 309 307 308 303 303 303 301 300 299 298 300 301 299 305 299 302 303 302 306 309 310 309 310 310
313 313 315 323 333 337 339 339 338 338 338 335 333 330 327 319 315 311 307 304 301 302 302 300 299 300 297 297 297 299 298 300 298 299 300 301 299 299 300 303 303 303 305
313 313 316 323 330 333 336 336 336 335 331 325 319 316 314 312 311 305 301 300 299 298 299 298 297 298 296 296 296 298 298 300 297 298 298 298 297 298 298 296 298 298 300
313 315 317 322 328 331 332 325 321 318 316 316 312 308 306 304 303 301 298 298 297 297 296 296 295 296 294 294 294 295 298 301 298 297 296 297 296 296 296 294 294 294 297
312 315 316 323 327 324 320 318 315 312 312 308 304 302 301 300 299 297 297 296 296 295 293 293 295 293 293 294 294 295 296 296 299 299 295 297 295 294 294 293 293 293 294
312 314 317 321 321 321 321 316 313 311 307 307 300 299 300 298 296 296 295 294 294 293 293 293 293 293 292 293 290 291 289 293 295 295 295 294 293 293 292 292 291 292 293
313 314 316 316 317 316 309 307 304 303 302 300 296 296 297 295 295 294 294 293 293 294 292 291 292 292 290 292 292 290 288 287 288 292 293 294 292 291 291 290 290 291 291
314 316 316 314 312 309 309 308 307 307 302 300 296 294 293 293 293 293 293 293 292 292 291 291 291 291 291 289 291 290 291 290 285 284 290 291 290 288 289 289 289 290 290
314 315 314 311 309 307 309 309 309 304 300 295 292 291 289 291 292 292 292 292 291 291 290 290 289 289 289 289 289 288 288 288 288 285 282 285 287 288 288 288 288 289 290
314 312 310 308 306 306 306 305 303 297 294 291 290 289 289 290 290 290 290 290 290 290 290 289 289 289 288 288 288 287 287 286 285 284 282 283 283 285 287 288 288 288 289

GFSSE_sfc_thetae_042.txt.gz
Theta_e
343 352 358 358 354 353 350 349 347 346 347 347 346 346 345 343 340 339 336 335 335 337 338 334 336 339 346 345 343 340 338 336 335 335 331 330 330 330 330 334 334 331 334
347 351 359 357 355 352 350 348 347 346 344 343 344 345 345 343 340 338 333 334 334 335 341 343 346 347 344 344 341 339 338 335 334 334 329 329 328 332 332 335 334 333 334
347 351 355 356 355 352 349 347 346 344 342 340 343 341 345 342 338 332 334 334 334 332 336 338 341 343 343 342 340 339 337 335 333 333 331 331 329 329 333 336 336 336 335
347 352 352 355 355 351 348 346 344 342 340 338 338 338 338 336 335 335 334 334 332 331 332 333 335 337 337 337 337 336 334 334 334 333 332 329 327 325 331 334 335 336 337
348 351 352 355 354 351 348 345 343 341 339 337 336 336 336 336 335 334 334 334 333 331 330 331 331 333 333 332 331 331 331 331 333 332 330 331 332 327 330 331 335 335 339
348 349 353 354 354 352 350 346 343 342 339 337 337 337 337 338 337 337 336 335 333 332 331 330 329 330 331 332 333 333 333 333 333 335 335 334 334 334 335 334 333 336 336
347 348 352 354 354 352 348 346 344 343 340 338 337 337 338 338 339 339 337 336 334 332 332 331 331 331 332 333 335 335 336 336 336 336 335 336 336 336 337 337 337 336 337
347 348 349 351 353 352 350 348 346 344 342 338 337 337 337 337 341 340 339 337 335 333 332 333 333 334 334 334 334 335 336 336 333 334 335 336 335 336 339 339 339 340 339
348 347 348 349 350 349 349 349 348 345 344 340 338 339 338 338 339 341 340 338 336 334 334 334 335 334 333 334 335 336 336 335 336 336 335 336 334 338 341 341 341 342 342
346 346 346 347 348 348 349 347 347 346 345 343 340 341 338 336 341 343 340 339 336 335 335 336 336 335 335 335 335 335 333 333 335 335 336 335 335 338 339 338 338 338 339
343 344 345 347 347 347 348 346 346 344 342 340 338 338 335 337 339 339 335 337 337 335 335 336 336 336 334 334 331 330 329 335 334 335 335 327 330 333 334 333 333 334 335
339 343 345 346 347 346 346 348 347 345 343 340 335 336 336 334 334 334 331 330 332 333 332 332 331 329 330 336 335 330 332 331 330 329 327 324 327 329 328 328 328 329 331
338 341 344 346 347 347 347 347 346 345 343 341 337 335 334 333 331 331 333 332 335 329 335 334 335 335 329 325 323 324 323 323 323 322 319 319 321 324 325 325 326 329 327
334 339 343 345 346 345 345 346 346 344 343 341 338 334 333 333 334 333 333 334 335 336 335 336 327 319 316 316 315 317 316 316 314 314 315 315 317 320 323 324 324 323 322
331 335 340 344 345 345 343 343 344 344 342 342 339 336 335 335 334 333 332 334 335 332 326 322 315 312 316 314 311 309 309 309 308 312 311 314 315 318 320 320 318 318 318
328 330 335 341 344 345 342 342 342 344 343 342 339 337 337 335 333 332 327 320 316 315 313 316 316 314 312 308 306 306 307 306 307 307 310 310 312 314 315 314 313 313 313
323 323 323 331 340 343 343 341 345 343 342 342 340 338 335 335 333 325 319 317 316 314 313 313 311 309 307 305 305 305 305 304 308 306 308 308 307 307 307 308 307 307 308
324 323 323 321 328 338 342 344 344 343 342 342 340 338 337 332 326 317 312 309 310 312 310 307 307 307 304 303 303 304 303 304 305 305 306 305 304 304 302 301 302 303 304
323 323 322 323 325 332 339 342 343 342 342 342 341 338 331 329 322 313 311 306 308 307 306 304 304 303 301 301 301 302 303 305 303 302 303 302 301 303 301 298 297 298 299
321 322 322 323 326 332 336 340 341 340 341 340 336 329 323 321 314 306 307 305 305 304 303 302 301 300 299 299 299 299 303 305 303 302 302 301 301 300 300 298 298 297 297
320 321 322 323 327 332 333 334 336 332 329 326 324 318 316 312 307 302 306 304 304 302 300 300 299 299 298 299 299 300 301 301 303 303 302 300 299 298 297 297 296 296 296
319 320 322 324 329 332 333 332 332 325 319 314 312 308 309 304 301 300 303 302 301 299 299 298 299 298 297 297 295 296 296 297 300 301 299 299 297 298 296 295 295 295 295
318 320 321 324 329 331 331 330 321 314 308 303 303 303 302 301 301 301 302 301 300 299 298 297 298 297 296 296 295 294 293 293 292 297 297 296 296 295 295 294 294 294 294
318 321 322 324 327 328 325 319 316 318 311 306 303 300 298 298 300 299 300 299 299 298 297 296 296 296 296 294 296 294 294 292 289 289 294 294 294 293 293 293 293 293 293
319 321 322 323 324 323 321 322 322 319 313 304 300 296 295 295 297 297 298 298 297 296 296 295 295 294 295 295 293 293 293 292 291 289 287 290 292 293 293 292 292 292 293
317 321 322 321 320 320 321 321 323 316 305 299 296 293 293 295 295 297 296 296 296 295 295 294 294 293 294 293 293 292 290 289 289 288 287 288 288 290 292 292 291 292 292

GFSSE_sfc_thetae_045.txt.gz
Theta_e
344 352 359 357 355 353 351 350 349 349 348 348 347 346 345 342 341 339 337 336 338 342 337 338 336 338 345 345 342 340 338 337 336 334 331 330 331 333 331 334 336 333 335
348 351 359 358 356 352 350 348 347 347 347 347 347 346 345 342 340 337 336 334 335 337 342 345 347 340 344 344 341 341 339 336 335 334 330 329 330 332 334 337 337 333 334
348 351 354 356 355 353 349 348 347 345 344 344 344 344 346 343 338 335 336 335 334 334 338 341 343 346 344 342 341 340 338 336 334 334 335 332 329 330 332 334 336 335 335
347 350 352 355 354 351 348 348 346 343 341 341 341 344 343 338 336 336 335 335 333 332 332 336 338 339 338 338 337 337 335 334 333 334 331 327 326 330 328 331 336 336 338
347 350 352 354 354 351 348 345 344 341 339 338 339 337 337 336 335 335 335 335 332 331 331 332 333 333 333 333 333 333 332 331 332 332 332 333 332 334 333 332 332 336 337
346 349 352 353 353 351 348 344 342 341 339 337 338 338 337 337 337 336 336 335 332 332 331 331 331 333 334 335 335 334 334 334 337 335 334 335 334 336 337 336 335 334 336
345 351 351 354 353 351 348 345 343 341 339 338 338 338 338 339 339 338 337 336 333 333 333 333 333 333 333 333 335 336 337 335 334 334 334 335 337 336 338 338 339 339 338
344 347 350 351 351 351 349 347 345 343 340 338 338 338 339 338 339 340 339 337 335 334 334 334 335 334 334 334 334 335 336 336 333 333 335 336 335 337 340 340 340 342 342
344 344 348 349 349 349 349 348 347 345 343 341 340 339 338 338 338 341 340 338 336 335 334 335 335 334 333 334 335 336 335 335 334 334 334 335 337 340 340 340 339 339 340
344 343 345 347 347 347 347 347 347 346 345 342 341 342 338 339 342 343 341 339 337 336 335 336 336 335 336 335 335 334 333 334 333 333 333 330 332 335 336 335 335 336 337
341 342 343 344 345 345 346 345 345 344 343 340 338 338 335 336 339 338 336 339 338 336 335 336 336 335 334 335 332 331 332 332 331 331 329 328 329 333 332 331 331 332 333
339 340 342 344 344 345 345 345 344 343 341 338 332 336 335 334 335 335 333 335 336 335 334 333 331 332 331 334 330 331 329 327 326 326 322 322 325 327 328 328 328 331 331
338 341 341 343 344 343 343 346 345 344 342 339 335 334 333 331 331 330 332 330 332 329 334 333 333 332 327 325 325 325 324 323 322 322 317 319 320 322 323 326 328 326 325
334 338 341 343 344 344 346 343 344 344 341 339 337 333 332 330 328 330 331 333 334 333 333 333 327 323 321 320 319 317 317 316 315 314 314 317 319 322 323 324 322 322 321
330 335 339 342 343 345 344 344 343 341 340 339 339 334 333 332 332 332 331 331 332 332 329 326 322 319 319 317 315 312 310 310 309 311 312 316 318 320 320 319 317 317 316
329 332 336 339 342 343 344 342 343 342 341 340 338 336 334 334 334 333 332 329 325 323 320 321 319 317 315 311 309 308 307 308 307 308 309 310 314 314 313 313 311 311 311
325 330 331 335 339 341 342 342 342 343 341 339 338 336 336 336 335 333 328 324 323 321 319 317 314 312 309 308 307 306 306 305 305 305 308 308 308 307 307 307 306 307 308
325 325 326 325 333 338 340 343 342 343 341 339 339 337 336 336 335 329 324 319 318 318 315 312 309 308 306 305 304 305 304 305 305 304 306 305 307 304 303 301 301 302 302
325 325 325 325 325 330 338 341 342 342 339 339 339 338 337 336 331 323 320 314 315 313 311 307 306 304 303 303 303 303 305 305 304 302 303 302 302 303 303 300 298 300 299
323 324 325 325 325 326 332 339 340 340 339 339 339 337 337 333 326 319 313 312 311 309 306 305 304 302 301 300 300 301 303 304 305 304 302 301 301 301 301 301 299 299 300
321 322 323 324 324 327 331 334 336 336 336 333 335 337 333 327 318 315 311 310 309 307 305 303 302 301 300 300 301 302 303 302 304 303 304 301 301 300 299 298 297 297 296
319 322 322 323 325 328 332 335 336 336 324 324 326 327 324 318 313 309 307 307 305 303 302 301 301 300 299 299 296 299 298 298 301 302 302 300 298 299 297 297 296 295 295
319 320 322 323 325 329 332 335 335 321 314 310 310 309 309 309 306 306 306 304 304 303 302 301 300 300 298 298 297 295 294 294 293 299 298 298 297 298 296 296 295 295 294
317 322 323 324 326 330 333 331 327 318 312 307 307 307 306 306 305 304 304 303 302 302 300 299 298 298 299 295 297 295 296 293 290 289 297 296 297 294 295 295 294 294 294
315 321 324 324 326 330 330 330 324 319 319 308 303 301 301 302 302 300 300 301 301 300 298 298 297 296 295 295 294 293 293 293 292 289 287 291 293 294 294 294 293 293 293
314 320 325 324 325 329 329 324 322 324 310 302 298 298 299 299 300 300 298 300 299 298 297 296 296 295 294 294 293 292 291 290 289 289 287 288 288 291 293 293 293 292 293

GFSSE_sfc_thetae_048.txt.gz
Theta_e
345 353 358 357 355 354 352 352 351 350 349 349 348 347 345 343 342 340 338 339 341 343 344 344 336 339 345 345 342 341 340 338 337 333 330 329 332 334 333 335 336 333 336
347 352 358 358 356 352 351 350 350 351 349 348 348 347 345 343 340 339 337 336 338 343 344 347 344 339 346 344 342 341 339 337 336 334 334 333 334 333 335 336 337 334 334
347 352 354 357 355 353 350 349 348 347 347 347 347 347 345 342 337 338 337 336 334 339 341 345 346 347 345 343 341 340 339 337 335 335 336 331 326 331 330 333 337 334 335
347 350 351 355 354 352 350 349 347 345 344 345 344 346 343 338 337 337 337 335 334 335 337 340 341 340 339 338 337 336 335 333 332 335 330 328 327 333 330 330 332 336 337
346 348 350 354 354 351 349 347 344 342 340 342 341 343 339 337 336 336 336 333 333 333 334 335 336 335 334 334 334 334 334 332 334 334 327 327 326 336 336 334 333 335 337
344 347 351 353 353 351 349 345 343 341 339 339 338 338 337 336 336 337 336 333 333 332 332 333 334 334 336 336 336 336 335 335 338 332 329 332 332 337 338 338 337 337 336
345 347 349 353 352 350 346 345 343 341 339 339 339 338 339 339 338 338 337 334 334 333 334 334 334 335 335 336 336 337 336 336 330 327 329 330 332 338 340 340 340 341 341
345 346 347 349 350 350 348 346 344 342 340 340 341 340 340 340 341 339 338 336 335 335 335 336 336 335 335 335 335 336 336 336 331 331 330 331 338 340 341 339 341 340 341
346 346 345 346 347 347 347 347 346 344 342 342 343 342 342 341 342 341 339 337 336 335 336 336 335 334 334 335 335 335 337 336 330 332 331 330 337 338 338 337 336 337 339
338 344 343 344 344 344 344 346 346 345 343 342 341 341 338 337 340 343 340 339 337 336 337 337 336 336 335 336 335 335 335 334 328 329 326 328 334 335 335 333 334 334 334
337 337 342 344 343 342 342 343 344 344 342 339 338 337 334 332 337 337 336 338 339 337 337 337 336 337 338 336 336 334 332 329 325 325 320 328 330 330 329 330 330 333 334
333 334 338 342 342 342 343 342 340 340 337 333 330 333 332 331 336 336 334 337 338 337 337 337 335 335 333 330 330 331 324 318 318 317 317 324 325 326 327 328 330 329 328
333 334 335 338 341 340 343 342 341 340 338 335 327 331 329 328 327 329 327 329 329 331 329 333 330 328 318 317 317 316 314 312 311 313 316 321 321 321 324 328 325 325 324
332 334 335 337 338 341 343 343 342 340 339 335 330 330 326 324 323 321 326 325 327 326 329 327 321 316 315 314 310 308 307 307 304 308 314 319 319 320 326 323 322 321 320
327 333 335 336 337 339 339 342 341 341 338 336 335 328 327 324 322 324 325 326 325 323 322 319 316 314 311 309 307 304 302 302 301 305 308 320 321 321 320 318 317 315 315
322 330 335 335 336 338 338 338 340 339 338 337 335 329 328 327 326 326 325 321 319 317 317 316 312 309 307 302 302 301 300 300 299 300 305 311 316 315 314 312 311 311 311
318 324 330 335 335 338 339 338 338 339 338 336 336 331 328 329 328 327 321 318 316 315 313 310 307 304 302 302 299 299 298 297 298 299 301 304 306 310 308 307 306 307 307
319 318 325 332 334 334 338 339 340 338 337 337 336 333 330 331 329 323 320 317 315 312 309 305 302 301 299 298 296 297 297 298 298 297 300 299 301 301 303 302 302 303 303
318 319 319 321 325 331 335 339 338 339 337 337 337 334 331 331 326 319 315 310 311 308 304 302 298 297 296 296 296 295 296 297 297 298 297 296 296 297 296 300 299 302 301
316 319 318 319 318 321 330 338 338 338 336 337 336 334 332 329 322 316 309 308 307 303 301 300 297 296 294 294 297 297 296 297 297 296 296 298 296 295 295 294 293 293 300
312 314 317 318 318 319 318 329 334 333 333 336 335 334 333 327 315 309 307 305 304 302 299 298 296 295 293 293 293 293 294 295 297 296 297 296 295 295 293 292 290 290 291
311 312 313 316 318 320 321 325 331 325 321 321 327 331 325 316 311 307 304 302 300 298 296 297 296 294 293 292 290 291 289 291 294 295 296 294 292 292 292 291 290 290 289
310 311 313 315 316 320 322 327 318 316 312 309 310 308 310 307 306 308 307 304 300 299 298 297 296 295 292 292 290 290 287 286 287 291 291 292 290 290 289 290 291 290 289
308 312 313 315 316 319 324 326 321 320 314 308 307 307 306 305 306 307 306 301 300 297 295 294 295 292 292 290 291 292 289 287 284 283 288 289 289 289 288 288 289 289 289
304 309 313 314 316 318 325 327 320 315 308 307 304 303 303 305 306 304 301 299 297 295 294 292 291 290 290 290 289 288 287 287 286 284 282 285 287 288 288 288 287 288 289
304 305 310 314 315 320 325 324 318 311 305 301 299 300 300 301 300 299 298 296 295 294 293 292 291 290 289 289 288 288 287 285 284 283 282 282 282 285 286 287 287 287 288

GFSSE_sfc_thetae_051.txt.gz
Theta_e
346 353 359 357 356 356 355 354 352 353 351 349 348 347 345 343 342 340 341 342 343 345 345 341 340 346 346 344 343 342 340 338 336 333 331 331 334 335 336 338 336 334 336
349 353 357 357 357 355 354 352 353 352 351 349 347 345 345 342 341 339 338 340 343 344 344 346 339 343 346 345 343 341 339 337 335 334 334 333 333 332 334 336 337 333 333
349 353 354 356 355 354 353 351 351 350 350 349 348 347 344 341 340 338 337 336 339 342 344 342 343 346 346 344 342 340 338 336 333 333 335 330 324 329 329 332 336 335 335
350 352 352 355 354 353 350 349 348 348 348 348 348 346 343 340 339 337 335 334 337 340 343 343 344 343 341 340 338 337 334 331 331 335 328 326 327 335 332 330 332 335 338
348 351 351 354 353 352 350 348 346 345 346 345 347 344 341 339 337 337 335 333 334 337 339 339 339 338 337 336 335 334 333 334 336 335 328 324 328 336 337 335 333 332 333
346 348 351 353 353 352 350 346 343 342 343 342 344 341 339 338 338 337 334 333 333 334 336 336 336 337 337 336 336 336 335 335 337 330 331 334 331 338 338 338 336 338 338
344 347 349 353 352 350 347 345 343 341 341 339 340 339 338 338 339 337 334 334 333 333 335 335 335 335 336 336 337 336 335 336 328 325 329 330 332 339 338 338 342 342 342
344 345 348 349 350 349 347 346 345 342 341 340 341 341 341 340 340 339 335 335 335 336 336 336 336 336 336 336 336 335 335 335 330 330 330 333 339 340 340 340 338 339 340
344 344 346 346 345 346 346 345 344 343 343 343 343 344 343 343 342 340 337 336 336 336 337 336 335 335 336 336 336 335 337 335 329 331 329 330 338 337 336 335 336 336 336
342 343 342 343 343 342 342 344 343 342 342 343 343 341 339 338 341 342 340 338 337 336 337 337 337 336 336 336 335 336 335 333 328 326 326 330 335 334 332 332 333 336 337
341 341 342 341 341 341 340 342 343 342 340 340 339 336 334 331 338 337 336 337 339 338 338 338 337 337 338 336 336 335 332 326 323 320 319 331 330 330 330 330 333 332 332
337 339 341 341 340 340 342 340 338 339 335 332 333 332 330 329 336 335 333 336 339 338 338 338 337 336 333 328 328 330 320 313 315 315 317 326 325 325 328 331 329 327 327
332 337 341 340 340 340 340 339 339 337 333 330 328 330 329 328 335 330 330 332 330 331 330 333 330 327 317 324 320 309 307 307 310 311 319 323 323 325 331 326 325 324 323
331 332 341 341 339 339 341 338 338 338 335 331 326 329 325 323 328 325 324 325 325 326 325 326 323 315 314 311 307 305 303 301 303 307 313 322 320 324 326 323 321 319 318
331 333 334 339 339 339 340 339 340 339 337 335 328 329 325 324 323 321 322 322 323 323 323 317 313 312 307 303 302 301 300 299 302 306 311 323 324 322 320 318 316 315 315
326 332 334 336 338 340 340 339 339 339 339 336 332 329 325 323 320 320 322 322 319 317 316 314 312 308 302 300 299 298 297 297 299 304 307 312 318 317 315 313 312 311 311
315 330 334 334 336 338 337 338 338 339 339 335 334 329 325 325 323 323 319 316 314 314 311 306 304 301 299 299 296 297 296 295 296 300 305 304 307 312 309 307 306 307 307
315 320 333 336 334 337 337 337 337 337 336 334 333 330 327 327 325 321 318 315 314 311 307 303 301 298 296 296 294 295 295 296 295 296 301 300 300 300 304 303 303 304 303
313 315 320 331 332 336 337 338 338 337 334 332 333 331 329 328 323 320 315 312 309 305 302 300 296 296 294 293 294 293 295 296 295 297 294 294 296 297 296 300 302 301 302
311 314 315 320 331 334 337 337 336 334 333 334 333 331 331 327 319 315 310 308 304 301 299 297 295 293 293 292 295 295 294 296 295 294 294 296 295 294 294 292 290 292 299
308 310 314 315 318 325 335 334 333 330 333 330 333 333 329 323 318 311 308 304 302 300 298 296 295 293 291 291 292 292 293 294 294 294 295 293 294 294 292 290 289 289 290
307 307 310 313 316 321 328 335 333 331 324 327 329 332 329 319 312 309 306 302 300 298 296 295 296 293 294 292 290 290 289 291 293 294 294 293 291 291 291 290 289 289 288
304 307 309 310 314 315 317 321 318 316 315 314 312 315 314 312 310 307 304 301 297 297 296 295 295 295 291 291 290 291 287 287 286 290 290 291 288 288 287 289 289 289 288
302 305 308 311 312 315 318 320 322 322 321 314 310 307 306 307 309 309 306 301 299 298 295 294 294 293 293 289 290 291 288 287 283 282 286 287 287 288 286 287 287 287 288
301 302 306 308 312 314 319 322 323 320 310 308 306 304 305 305 306 307 304 301 301 300 295 293 291 291 292 291 289 288 286 286 285 283 281 284 285 286 286 286 286 286 287
299 300 304 307 310 312 319 322 321 312 307 306 303 302 302 303 303 302 300 300 299 298 296 295 291 289 289 289 288 288 287 285 284 282 281 281 281 283 285 286 285 285 285

GFSSE_sfc_thetae_054.txt.gz
Theta_e
345 351 359 358 357 357 356 355 355 354 353 351 349 348 346 344 342 343 343 344 345 344 343 341 347 347 345 344 343 341 339 337 334 333 331 334 335 335 336 337 335 334 336
349 352 358 358 358 357 356 354 354 353 351 349 347 346 345 343 342 341 342 344 344 341 341 340 344 347 345 344 342 341 338 336 334 334 333 332 333 332 333 336 334 332 334
349 352 353 357 357 357 355 352 353 351 350 348 346 345 343 342 340 337 339 340 340 341 342 340 343 347 346 344 342 340 337 332 333 334 334 327 323 330 329 332 335 335 334
349 351 352 355 355 355 353 351 351 351 350 349 348 345 342 341 339 337 335 338 340 342 342 342 346 346 344 342 339 336 331 332 333 335 325 326 327 335 333 330 332 335 337
349 351 351 354 354 353 352 351 350 349 349 350 347 344 342 340 338 336 335 336 339 342 342 342 342 340 339 337 335 333 334 335 336 331 325 323 329 336 337 336 333 332 333
347 348 351 353 353 352 351 349 348 347 346 346 346 342 341 338 337 335 334 334 337 339 339 338 338 337 337 337 336 335 335 335 331 325 329 331 330 338 337 335 336 339 339
345 347 350 353 352 350 348 346 345 345 344 346 343 341 338 339 338 334 334 334 334 336 337 337 337 337 336 337 337 336 335 335 326 326 328 329 331 339 339 342 341 340 341
345 347 348 350 351 350 347 345 345 345 343 343 341 339 339 340 338 335 335 334 334 336 336 336 336 335 336 335 335 334 334 335 329 330 330 332 339 339 339 338 339 339 338
345 344 346 346 346 346 345 345 344 344 343 342 343 343 342 342 340 337 335 336 336 336 337 336 336 336 336 336 335 334 335 334 326 329 329 331 339 338 335 336 335 335 338
342 343 343 343 342 341 340 343 342 342 343 342 343 342 340 340 340 340 338 338 336 337 336 336 336 336 336 335 335 336 333 331 324 323 326 328 335 333 334 332 336 336 335
340 341 341 340 339 338 338 339 341 341 341 341 339 337 335 333 337 336 335 337 338 337 337 337 337 337 338 336 336 334 327 320 319 318 319 333 331 331 331 334 332 331 331
336 338 340 339 339 338 340 337 336 336 333 333 333 332 329 329 335 336 332 336 339 339 339 338 338 338 334 327 326 325 312 315 314 314 316 328 325 327 333 330 328 327 326
337 338 339 338 339 338 338 338 336 334 331 329 330 329 328 328 332 330 329 331 330 331 330 334 330 326 318 322 314 307 306 310 309 312 320 327 325 328 328 325 324 323 321
336 337 339 339 337 338 339 337 337 335 332 328 327 329 326 324 329 327 328 327 326 326 324 325 323 315 311 309 304 302 300 302 306 307 314 322 322 330 325 322 319 318 317
332 337 338 339 337 338 337 337 336 335 333 331 326 326 327 323 328 327 325 324 323 323 323 322 316 311 304 301 299 299 299 298 304 307 312 325 327 324 321 317 316 315 314
330 332 339 339 338 338 338 336 336 336 335 333 328 326 325 325 327 324 321 320 321 321 319 315 311 306 300 299 297 296 296 297 302 306 309 314 322 318 316 314 311 310 310
319 330 334 339 339 337 338 337 337 337 336 334 331 326 325 324 322 322 321 319 317 316 314 308 302 300 298 297 295 295 294 293 297 303 305 305 308 315 310 308 307 307 307
312 317 331 337 338 337 338 337 337 337 337 334 332 328 325 324 322 320 319 316 313 310 306 302 299 297 296 295 293 293 294 295 294 301 301 299 299 300 304 305 304 304 305
309 312 324 332 334 337 337 338 336 336 335 333 329 327 326 324 323 320 317 314 311 306 302 300 297 296 293 293 293 292 294 295 294 297 297 296 297 296 294 302 302 302 301
307 309 314 328 332 336 336 335 336 334 334 333 331 327 326 325 321 319 315 311 306 302 299 297 295 293 292 291 294 294 293 295 293 293 293 294 294 294 292 291 290 292 299
306 306 309 315 328 333 333 332 332 332 331 331 330 328 327 324 320 317 311 306 302 301 298 296 294 292 290 290 291 292 295 294 293 294 293 292 293 293 290 289 288 288 289
304 304 306 310 318 330 334 334 333 332 330 330 329 328 327 322 319 317 310 305 301 298 296 295 295 292 291 290 289 291 291 291 293 294 294 293 291 290 289 289 287 287 287
302 304 305 307 312 324 333 330 320 319 317 318 321 324 325 319 316 314 308 304 300 298 296 294 294 294 290 289 290 291 287 287 286 289 290 289 288 287 287 287 288 288 287
300 302 304 307 309 312 322 327 326 325 323 321 322 312 312 313 314 311 306 304 303 300 296 294 295 295 293 289 289 291 288 288 284 283 287 287 287 287 286 286 286 286 286
299 299 301 304 308 311 319 326 325 325 321 309 310 309 307 309 311 309 305 302 302 300 298 297 296 295 292 290 289 288 287 287 285 284 282 284 286 286 286 285 285 284 285
299 299 299 302 305 308 312 320 324 319 309 307 305 306 305 305 308 308 304 303 302 300 299 298 294 293 290 291 288 287 286 285 284 283 282 281 281 283 284 285 284 283 284

GFSSE_sfc_thetae_057.txt.gz
Theta_e
341 349 359 359 357 357 356 357 357 356 354 351 350 348 346 345 345 346 343 342 340 340 342 346 346 345 345 343 342 340 337 335 335 333 335 336 335 335 336 336 337 333 335
346 352 358 358 358 357 357 357 356 356 353 350 348 347 345 344 344 344 344 344 343 341 342 343 346 346 345 343 341 339 335 334 335 334 332 332 334 332 334 335 334 331 335
347 352 354 358 358 357 357 355 355 353 351 349 347 346 344 342 341 341 343 342 339 337 343 341 346 346 345 343 341 338 333 335 335 335 335 323 323 331 330 335 335 335 334
349 351 352 357 357 355 353 352 351 351 349 348 346 343 343 342 339 337 339 338 338 339 340 342 344 346 345 341 339 333 334 335 336 332 324 325 327 335 332 332 333 335 337
348 349 351 355 355 354 353 352 350 350 349 348 347 343 343 340 338 335 336 337 341 343 344 344 345 343 340 338 334 332 336 337 334 330 322 322 328 335 337 337 335 333 332
346 347 352 354 354 353 353 352 351 350 350 349 346 343 342 339 337 335 335 338 340 342 341 340 339 338 337 336 334 334 336 334 330 325 323 328 329 337 337 338 343 342 339
345 347 349 353 353 351 350 350 350 348 348 348 345 343 340 338 336 334 334 336 339 339 339 338 338 338 337 337 336 336 334 333 326 326 328 328 331 341 342 341 341 341 340
345 346 348 349 351 351 347 348 348 347 346 347 344 342 339 339 335 335 334 334 337 338 337 337 337 337 336 336 335 334 335 333 328 328 328 329 339 339 339 339 338 338 340
345 345 346 346 347 347 347 346 346 346 346 346 344 342 342 341 337 335 334 334 335 337 337 336 335 335 336 335 335 335 335 333 325 326 328 329 340 337 337 335 337 339 337
342 343 342 343 343 340 340 343 343 343 343 343 342 341 340 339 339 337 337 338 337 337 337 336 335 336 336 335 335 334 333 330 322 323 324 328 335 335 333 336 336 335 333
339 340 341 340 338 336 336 339 341 341 340 341 340 337 336 334 336 334 333 336 338 337 336 336 336 336 337 335 334 331 324 321 318 318 320 333 332 332 334 334 331 331 330
337 340 341 338 337 336 338 335 333 335 334 334 333 332 331 331 333 335 331 335 338 338 339 338 337 338 333 326 322 316 315 314 314 314 316 329 326 332 333 329 328 327 326
337 338 339 337 337 336 336 335 333 331 330 330 330 329 327 328 330 331 328 329 329 331 330 333 330 325 320 321 308 306 310 309 309 311 319 329 325 333 327 326 324 322 321
335 337 338 338 336 336 336 335 334 332 329 327 328 328 326 324 328 327 326 326 326 326 324 325 322 316 311 311 303 301 302 305 305 306 312 322 326 329 325 321 319 318 317
334 336 337 337 336 336 334 335 335 333 331 329 327 327 326 323 327 326 326 325 323 323 322 321 318 309 303 300 299 299 298 301 303 308 313 326 329 325 321 318 317 316 314
333 336 337 337 336 336 335 335 334 334 333 330 327 326 327 325 326 327 324 323 321 321 321 320 312 305 299 297 296 296 296 301 304 307 310 315 324 320 317 314 312 311 311
325 332 336 337 337 336 336 335 334 335 334 332 329 324 326 324 325 326 323 320 320 320 318 312 303 299 297 296 294 294 293 295 302 305 306 306 308 316 312 310 309 308 308
311 324 333 339 338 336 336 335 335 335 334 333 331 326 325 325 324 322 320 319 317 314 310 303 299 297 295 295 293 293 293 293 296 302 302 300 299 300 305 306 305 305 305
309 311 325 336 337 335 336 336 335 336 335 334 332 328 324 324 322 321 320 317 313 308 304 301 297 296 294 293 293 291 293 293 294 301 297 296 297 296 294 303 303 302 302
305 309 313 328 335 336 335 335 336 335 335 334 331 329 325 324 321 320 316 314 310 304 300 298 295 293 292 291 294 293 292 293 292 295 295 295 296 294 292 291 289 291 300
303 304 308 321 329 333 333 333 333 332 333 330 332 329 326 324 321 319 316 312 307 305 301 297 294 292 290 290 291 291 292 292 292 292 293 292 293 292 291 289 288 288 288
303 302 303 311 327 330 333 334 333 333 332 332 331 327 326 324 322 319 315 311 307 301 297 295 294 292 290 289 289 289 289 290 291 291 292 293 291 290 289 288 287 287 287
301 302 303 303 310 327 332 331 324 322 322 323 323 326 324 323 321 320 315 310 305 304 299 299 296 294 290 288 289 291 287 287 286 287 288 288 288 287 287 287 287 287 286
299 300 302 304 305 316 328 329 328 326 325 326 328 328 323 319 318 315 313 308 306 306 301 303 301 298 294 291 289 289 287 288 284 283 286 286 286 287 285 286 285 286 286
298 298 299 301 303 307 317 328 328 325 325 320 315 319 311 311 317 313 311 305 304 305 305 303 303 301 296 294 292 289 286 287 287 285 281 283 285 286 286 285 285 284 285
298 298 298 300 302 304 310 321 326 326 314 312 310 314 310 309 309 310 308 307 307 304 302 303 302 299 295 294 292 290 287 288 284 285 281 281 281 283 284 285 284 283 284

GFSSE_sfc_thetae_060.txt.gz
Theta_e
336 347 359 359 357 357 358 357 358 356 354 352 350 349 348 347 345 343 343 342 342 344 346 346 345 345 344 343 341 338 336 336 335 336 336 336 335 337 337 337 337 333 334
342 351 358 359 358 358 358 358 356 356 354 351 349 348 346 346 346 345 344 345 344 342 342 346 346 346 344 342 340 337 335 336 335 334 332 333 335 333 336 335 335 332 336
345 352 355 358 358 358 358 357 357 355 353 351 348 346 345 345 343 344 345 343 338 339 342 344 346 346 345 343 340 334 336 336 335 335 331 322 324 331 334 336 336 336 333
348 351 352 357 358 358 357 356 356 353 351 349 347 345 343 341 340 341 340 339 338 339 342 343 346 345 344 341 335 335 336 337 335 331 324 324 329 335 332 333 334 336 336
347 349 352 356 357 357 356 354 354 352 349 348 346 344 342 340 338 338 338 338 341 341 344 342 345 345 341 338 333 336 338 336 335 327 322 325 328 335 338 337 336 334 333
344 346 353 356 356 354 353 352 351 350 349 348 346 343 341 340 336 336 338 340 343 345 344 343 342 340 338 336 335 338 336 334 330 324 322 327 329 338 341 342 342 342 341
345 346 350 355 355 354 353 352 352 351 351 349 345 343 341 338 337 336 337 339 340 341 340 340 339 338 337 337 336 336 334 333 324 324 326 327 331 341 341 342 340 342 342
344 346 348 350 352 352 352 352 351 349 350 348 345 343 340 338 335 335 335 339 339 339 339 339 338 337 337 336 336 335 334 332 327 327 326 328 337 339 339 338 338 340 339
345 344 344 345 347 348 346 349 348 347 347 349 346 344 342 339 336 334 334 336 339 339 338 337 336 335 335 335 335 335 334 332 325 325 328 329 339 338 336 339 338 337 334
343 342 340 341 342 341 341 345 345 345 344 345 344 341 340 337 337 336 336 337 337 337 337 336 335 335 336 336 335 333 333 330 322 323 324 327 336 335 336 337 335 333 332
340 341 342 339 338 336 336 338 342 342 341 341 339 337 335 332 332 332 333 336 338 337 336 336 335 336 336 335 333 327 326 320 317 318 320 334 334 334 335 332 332 330 328
337 339 341 339 336 334 338 334 333 334 333 333 333 332 331 330 331 332 330 335 338 338 338 337 337 337 330 324 316 319 315 314 314 313 315 330 330 335 332 330 328 327 325
336 337 339 337 335 334 334 331 329 330 330 330 330 330 328 329 330 330 326 328 328 330 329 332 329 324 321 319 307 311 310 309 309 311 318 330 330 332 329 326 324 322 321
335 336 338 337 334 333 332 332 329 329 328 327 328 328 325 324 326 327 326 324 325 326 324 325 322 313 318 307 303 303 305 305 304 305 310 321 332 329 326 322 320 319 318
334 336 337 337 334 333 331 332 330 329 329 328 327 327 326 323 324 326 325 324 323 323 322 321 317 308 304 301 299 299 300 302 303 309 313 327 329 326 322 320 318 316 315
335 335 337 336 335 334 333 333 332 331 330 328 327 327 326 324 324 326 324 323 322 321 320 320 314 303 299 297 296 296 297 301 305 308 310 316 325 321 318 316 314 313 312
332 336 335 337 336 334 333 333 333 333 332 329 328 326 327 325 324 326 325 322 322 320 320 315 305 299 297 296 294 293 294 298 303 306 306 306 309 318 314 312 311 310 310
317 330 336 338 336 334 334 334 334 333 333 331 330 326 325 326 325 324 324 323 321 318 316 309 300 297 295 295 293 293 292 293 299 302 302 300 299 300 307 308 307 306 306
306 311 327 336 336 335 335 334 334 333 333 332 331 328 324 325 324 324 323 321 318 314 310 304 297 297 294 293 293 292 292 292 296 301 298 296 297 295 294 305 305 303 303
304 306 310 329 336 336 335 334 334 335 334 333 331 331 325 324 323 322 321 318 315 310 304 299 296 293 293 292 293 292 292 292 292 297 296 296 296 293 292 291 289 291 301
302 302 306 316 330 334 333 333 333 332 333 333 332 331 326 324 322 321 320 317 313 310 306 300 295 293 290 290 291 291 291 292 291 292 293 291 293 291 289 288 287 287 288
302 301 302 306 319 331 333 333 334 334 333 334 332 330 327 324 322 321 318 316 312 306 300 298 295 291 290 290 290 289 288 290 290 291 291 291 290 289 288 287 286 286 286
299 300 301 303 308 325 332 332 325 327 325 328 329 329 325 324 323 321 317 316 311 308 303 300 299 296 292 290 289 292 287 288 287 287 288 288 288 286 286 286 286 286 285
297 299 300 302 303 310 326 329 329 328 327 328 330 330 328 323 322 321 318 316 311 308 304 303 301 303 300 295 293 292 290 291 286 283 285 285 285 286 284 285 284 285 285
297 296 297 299 302 305 314 326 327 327 327 321 324 325 326 319 322 320 317 312 307 306 307 305 302 302 303 298 296 294 292 289 287 286 284 284 285 285 285 284 284 283 284
297 297 296 297 299 302 306 316 325 326 320 314 315 323 317 315 316 315 314 310 307 306 304 305 304 302 299 297 295 294 292 289 287 285 284 283 282 284 284 284 283 283 283

GFSSE_sfc_thetae_063.txt.gz
Theta_e
342 350 360 360 358 358 359 359 358 357 355 353 352 351 349 348 348 347 347 347 347 348 347 347 346 346 344 342 339 338 338 337 338 338 337 337 337 337 339 338 337 333 337
345 354 359 359 359 359 360 359 358 357 355 352 350 350 348 348 346 345 344 343 343 344 347 347 346 345 343 342 338 336 338 337 335 333 333 334 336 336 336 335 334 335 336
346 353 356 359 359 360 359 357 357 356 354 351 349 347 347 347 346 346 345 344 343 343 343 347 346 345 344 341 336 338 337 336 336 334 332 333 331 334 336 336 337 335 334
350 353 354 358 359 359 359 358 357 356 353 351 348 346 345 344 344 345 342 339 338 342 344 346 346 345 343 337 337 337 338 336 335 333 335 335 334 334 334 333 335 337 337
351 353 355 357 359 359 358 357 356 354 352 350 347 346 343 341 341 340 339 339 343 344 345 345 346 344 340 336 337 339 338 337 333 332 335 338 339 337 339 339 338 335 334
351 353 355 357 358 357 356 356 355 353 351 349 347 345 342 340 338 339 339 343 346 346 346 346 345 341 337 336 339 339 337 335 332 333 335 338 339 341 343 343 343 342 343
349 352 354 356 356 355 354 353 352 352 352 349 345 344 341 339 337 338 339 342 344 344 343 342 341 340 338 336 338 337 336 333 333 334 337 339 340 341 342 341 342 342 341
346 352 352 352 353 354 353 352 352 352 352 349 346 344 341 339 337 337 339 340 341 341 341 341 340 339 337 337 337 336 335 333 334 335 336 339 341 339 338 339 340 338 336
346 350 351 351 350 349 350 350 351 351 351 349 347 345 343 340 337 336 338 340 340 339 339 339 338 336 337 336 336 336 334 333 335 335 335 337 340 337 340 339 338 336 334
344 348 348 348 348 347 346 346 346 345 345 347 345 342 339 336 337 336 337 339 340 339 338 336 336 337 337 336 335 334 333 331 333 334 334 335 337 335 338 336 334 332 331
341 345 347 346 346 346 344 344 344 343 342 342 341 337 335 336 335 334 333 336 339 338 337 336 336 338 337 335 331 330 329 331 330 330 331 336 334 337 334 333 331 330 328
337 340 343 344 344 344 342 343 343 342 341 340 340 339 338 337 335 334 332 336 339 338 338 337 338 336 332 331 325 326 328 326 325 325 326 331 334 334 331 330 328 326 324
337 340 341 341 343 342 341 340 339 340 339 339 338 338 338 337 337 335 334 335 337 333 336 337 337 334 331 325 320 324 323 322 322 322 324 328 335 332 328 326 323 322 321
336 337 339 340 340 341 340 338 337 336 336 336 337 337 336 335 337 337 333 334 335 336 335 336 333 327 328 318 317 319 318 318 317 317 318 322 333 330 325 322 321 319 319
335 337 339 340 339 340 338 337 336 335 335 335 336 336 336 335 335 336 336 333 333 334 333 333 329 321 321 313 311 313 313 312 313 318 325 328 331 326 323 321 319 316 316
336 335 338 338 338 339 338 337 336 335 335 335 335 336 335 334 334 334 335 334 331 332 331 331 326 316 314 309 307 307 309 310 314 320 325 327 326 324 320 318 315 314 314
337 339 338 338 338 338 338 337 337 336 334 333 334 335 334 334 333 333 333 333 332 331 329 328 319 311 307 305 305 304 307 309 313 317 319 320 320 320 317 315 313 312 311
323 336 340 340 338 337 338 338 338 337 336 334 333 333 333 333 333 332 332 333 333 331 328 324 316 309 306 305 303 302 303 306 310 313 314 312 312 311 313 311 310 307 307
311 318 334 339 340 337 337 338 337 336 337 337 335 332 331 332 332 331 331 332 332 330 326 321 311 309 305 304 302 301 302 302 307 309 310 308 308 307 307 308 306 305 304
310 310 316 335 339 339 337 336 336 335 335 337 337 335 332 330 330 330 330 330 330 327 324 317 311 305 306 304 298 299 302 302 303 307 307 304 305 303 304 304 301 301 302
307 307 309 315 332 338 336 332 332 332 334 334 336 335 332 330 328 328 328 328 327 325 321 317 309 304 300 300 300 300 300 301 300 303 305 303 303 301 300 298 298 298 297
307 307 307 309 318 334 336 335 334 335 334 335 335 334 334 331 328 327 327 326 324 323 319 312 307 302 300 300 301 300 298 298 299 299 300 300 300 299 297 296 295 295 296
303 304 306 307 310 324 336 336 333 334 332 333 332 332 332 332 329 328 326 325 323 322 317 312 308 307 300 297 298 302 296 298 296 296 297 298 297 297 296 295 294 293 294
301 302 304 306 307 312 329 333 332 329 328 331 332 333 332 330 329 328 326 325 322 320 317 312 308 308 306 300 296 296 296 298 296 291 293 294 294 294 294 294 293 292 293
301 301 301 302 305 307 316 330 331 330 331 332 332 331 331 328 328 327 326 324 322 318 317 311 308 306 307 304 302 296 295 294 292 292 290 289 291 291 292 292 292 292 291
303 303 304 302 302 304 307 317 329 329 330 327 327 329 330 327 325 325 324 323 321 318 315 312 312 308 307 305 302 298 297 294 292 291 288 287 289 289 290 291 291 291 290

GFSSE_sfc_thetae_066.txt.gz
Theta_e
346 355 361 360 358 359 359 359 359 358 355 354 354 354 353 352 351 351 350 350 348 348 347 345 345 345 342 340 339 339 339 339 339 338 337 338 338 339 339 338 335 334 341
348 355 360 360 360 360 360 359 359 357 356 353 352 351 349 348 347 346 345 345 347 347 347 346 345 344 343 339 338 338 337 335 334 334 334 336 339 336 336 335 335 336 336
347 354 356 359 359 360 360 359 358 357 354 352 351 349 349 348 346 347 346 345 343 344 347 347 346 344 342 338 338 338 337 336 335 335 333 330 332 336 336 337 337 334 334
351 353 354 358 360 359 358 358 357 356 353 351 349 347 346 346 347 346 344 340 341 343 343 346 346 344 339 338 338 337 337 336 335 335 335 334 333 334 334 334 337 337 337
351 354 355 358 360 359 358 358 357 356 353 351 349 347 344 343 344 342 340 338 340 346 345 347 346 342 337 338 338 339 338 335 334 337 338 339 337 339 340 339 336 335 337
351 354 355 358 359 359 358 357 356 355 353 350 347 345 341 340 340 339 338 345 347 346 345 346 344 338 337 339 340 339 337 335 334 338 339 340 342 343 343 344 343 343 344
350 352 355 358 358 358 357 356 354 353 352 349 346 344 340 338 338 339 338 345 345 346 346 344 341 339 337 339 339 337 336 334 335 338 340 341 340 341 341 342 341 340 339
349 351 353 354 355 355 355 354 352 351 351 349 346 344 342 338 338 338 339 344 344 344 343 342 340 339 337 338 338 336 334 335 334 335 338 339 340 338 340 340 338 337 336
350 349 349 353 351 350 350 350 350 350 351 349 348 346 342 341 339 338 339 339 341 342 341 340 340 337 337 337 336 336 334 335 336 336 335 337 339 340 341 339 337 335 333
347 349 349 349 350 349 347 347 347 348 349 347 345 343 339 337 338 337 340 341 340 340 339 337 336 337 337 336 336 334 334 332 335 336 337 336 336 339 338 335 332 331 330
343 347 348 348 348 346 345 345 345 343 344 344 341 337 334 335 334 334 335 338 340 339 337 336 337 338 337 335 333 333 332 336 334 334 335 337 335 336 335 332 330 329 327
339 342 346 347 345 345 343 344 346 343 343 341 342 339 339 334 333 331 332 336 339 339 338 337 339 336 334 333 331 329 334 333 333 332 331 330 336 334 332 330 328 325 324
339 341 343 345 346 344 343 342 341 341 340 339 340 340 338 335 334 332 334 335 336 333 334 336 337 334 333 332 330 331 331 331 330 328 325 327 335 332 329 326 324 322 321
339 340 342 344 344 345 343 341 338 338 338 337 338 338 337 335 336 334 331 333 334 333 333 335 334 334 334 330 328 328 327 327 326 325 322 323 334 330 326 323 321 320 320
338 339 341 342 341 345 344 342 338 336 336 336 337 338 336 335 335 337 336 333 332 333 333 334 333 331 332 328 324 324 322 321 320 320 321 327 332 328 324 323 320 318 318
337 339 341 341 341 343 344 343 340 338 337 335 335 336 336 335 335 337 337 336 333 332 333 333 332 330 329 325 321 318 318 317 317 319 322 327 328 326 322 320 317 316 316
341 342 342 341 341 341 344 344 342 340 337 336 336 336 336 337 338 337 337 337 337 332 332 332 332 329 324 321 318 315 315 315 316 318 321 324 323 322 321 317 315 314 313
328 337 343 343 342 342 341 344 343 342 340 338 337 336 336 336 337 337 335 335 337 336 332 330 329 325 322 317 315 313 312 313 315 316 317 318 318 316 316 315 313 310 310
319 321 329 339 342 342 342 342 342 343 341 340 339 337 336 336 336 336 335 335 336 335 333 330 328 326 321 317 314 312 310 310 312 312 314 315 315 314 313 311 311 308 306
318 319 319 326 336 341 340 340 339 338 339 342 341 339 338 336 336 335 334 334 334 334 332 332 325 323 322 319 310 308 309 309 308 311 312 312 312 311 310 309 307 304 304
315 316 317 318 325 335 339 335 334 334 335 336 339 342 340 338 336 335 334 333 333 332 333 332 326 320 315 316 310 308 307 307 306 308 311 310 309 308 307 307 304 303 301
312 315 316 317 318 324 334 338 339 338 338 337 337 337 339 338 337 335 334 334 332 330 331 331 326 318 318 312 312 313 307 305 304 305 308 308 307 307 305 304 302 301 301
309 311 313 315 315 318 325 333 336 337 338 336 335 335 336 336 338 336 335 335 334 331 330 330 326 319 314 310 313 314 307 307 304 304 303 305 305 304 303 302 300 300 300
307 308 309 310 312 314 319 326 331 330 330 332 335 337 338 335 334 336 336 335 334 332 329 329 325 321 319 310 307 305 305 308 304 300 300 302 303 302 301 300 299 298 298
309 309 308 308 309 312 313 320 328 329 330 333 335 335 336 335 333 331 332 333 332 331 329 327 322 319 320 316 310 305 304 302 301 300 302 296 297 298 299 298 298 297 296
312 311 311 309 307 308 311 314 321 325 328 330 332 332 334 334 331 330 329 329 330 329 327 327 324 320 317 318 311 307 304 301 297 298 296 297 296 295 295 293 292 293 294

GFSSE_sfc_thetae_069.txt.gz
Theta_e
346 355 361 361 360 359 359 359 359 358 358 357 356 355 354 353 352 351 350 349 349 348 347 344 345 344 342 341 340 341 340 339 338 338 339 340 339 339 338 338 339 339 343
349 355 360 360 360 360 360 360 359 358 357 355 354 353 352 351 349 349 349 348 348 347 346 346 344 343 340 339 339 338 336 335 334 334 338 339 339 336 336 336 339 335 338
350 354 356 359 360 360 359 359 358 357 355 353 352 349 348 347 346 345 344 343 344 347 346 346 344 343 339 339 338 337 336 336 334 333 337 329 333 336 338 339 337 337 337
350 352 353 358 360 360 359 358 357 355 354 352 351 349 348 348 347 347 344 342 342 342 346 346 345 341 339 338 338 338 336 336 334 336 334 332 334 337 336 337 338 337 336
350 351 354 358 359 359 358 358 357 356 353 351 349 348 345 345 347 343 339 338 339 343 346 346 344 338 339 338 339 338 336 334 335 336 337 341 340 341 342 338 338 341 341
349 352 355 358 359 358 358 357 356 356 352 350 348 345 342 341 341 338 337 343 346 347 347 346 342 338 339 340 339 338 336 334 336 337 339 341 341 344 345 344 343 343 343
348 355 354 358 359 358 358 356 355 353 353 350 347 343 339 339 339 339 343 346 346 346 347 344 339 338 340 340 338 337 335 335 335 337 339 339 338 340 343 342 340 339 339
348 352 351 354 356 357 356 356 354 351 351 350 348 343 339 338 338 339 342 346 346 345 344 342 341 338 338 339 337 336 333 335 333 334 337 336 340 340 341 339 338 336 335
349 350 351 351 352 352 352 352 350 349 350 349 347 346 342 341 339 339 340 343 344 344 342 341 340 338 337 338 337 335 334 335 335 333 336 335 341 341 340 337 336 334 332
348 348 347 348 348 349 347 348 347 348 347 347 345 342 339 337 338 339 340 341 342 341 340 339 338 337 337 337 336 335 335 335 334 334 335 333 339 339 337 334 332 332 331
345 346 348 348 347 347 346 344 345 345 345 343 341 337 334 334 333 334 337 339 341 340 338 337 337 338 338 336 335 334 334 334 333 333 334 336 338 336 334 332 331 329 328
341 344 345 345 344 343 342 345 344 344 345 345 342 338 338 333 331 329 333 337 340 339 339 337 339 338 335 331 331 331 332 333 332 331 331 335 336 334 333 330 327 326 324
339 344 345 344 344 341 341 341 341 342 340 340 341 340 337 333 332 331 332 334 336 334 334 335 337 334 332 331 330 330 331 331 330 328 327 331 335 333 330 327 324 323 322
338 340 342 344 343 342 341 339 339 339 339 337 338 339 337 333 333 329 330 331 333 332 331 332 333 332 332 331 329 329 329 328 327 326 322 327 335 331 327 325 323 321 321
339 340 341 343 343 343 341 341 338 336 336 336 337 337 337 334 333 333 330 330 332 332 331 332 333 332 331 330 327 327 326 325 323 322 322 322 333 330 326 324 321 320 320
339 340 341 341 341 343 343 343 341 338 337 336 335 336 336 335 334 335 335 332 331 331 331 332 332 331 330 329 325 324 323 322 320 320 321 326 330 329 324 323 320 318 318
339 340 342 342 342 342 343 343 343 341 338 337 335 335 335 335 335 334 336 336 335 332 330 331 331 330 328 326 323 321 320 319 318 319 321 326 324 324 325 321 318 316 317
338 340 342 342 343 342 341 344 343 343 341 339 337 336 335 334 335 336 335 335 336 335 330 330 330 328 326 323 321 319 317 317 317 318 319 320 323 320 319 320 317 315 314
323 328 337 343 342 343 343 343 345 344 342 341 339 338 336 335 335 335 335 335 335 335 332 330 329 328 325 323 321 318 316 316 316 315 315 317 318 317 315 317 317 314 311
320 322 322 328 337 343 344 342 342 343 344 343 341 340 338 337 336 336 336 335 335 334 332 332 329 328 326 323 318 314 315 314 314 314 313 314 315 314 314 311 308 306 309
317 318 319 320 322 331 336 338 337 335 338 341 343 342 341 339 337 337 336 335 335 333 332 330 331 326 324 325 318 313 313 312 310 310 312 312 312 312 311 310 307 305 304
314 316 317 318 319 321 329 339 337 336 335 337 339 341 342 341 340 337 336 335 335 333 333 330 328 326 323 322 314 312 309 308 307 308 309 309 310 309 308 308 306 304 303
311 313 315 317 318 320 322 328 338 338 340 338 336 336 336 340 342 340 337 336 335 334 331 332 329 327 319 318 317 316 311 309 305 307 305 308 308 308 307 305 304 303 302
309 311 312 314 315 317 320 320 325 331 331 334 336 337 336 337 337 337 338 336 335 334 332 331 331 329 322 316 313 315 315 311 307 300 304 304 306 305 305 304 301 300 300
312 312 311 310 311 313 314 316 320 324 330 332 332 332 335 338 337 334 334 334 334 333 333 331 330 329 323 319 313 311 309 307 306 304 299 298 302 303 303 302 300 299 298
314 313 313 311 309 310 312 313 316 321 326 328 329 330 331 334 337 334 332 332 331 330 330 329 329 328 324 323 316 314 309 308 303 301 302 299 296 296 298 299 298 296 296

GFSSE_sfc_thetae_072.txt.gz
Theta_e
347 355 361 362 361 361 361 361 360 359 359 357 356 355 354 353 352 351 350 350 349 349 345 345 345 343 343 342 342 341 339 339 338 340 340 341 339 338 339 341 343 340 345
350 355 360 361 361 361 360 360 359 358 357 356 355 354 353 352 351 350 350 349 348 347 347 345 344 342 341 340 338 337 336 335 334 337 340 338 339 337 338 338 340 336 339
349 354 357 360 360 360 360 359 358 358 357 356 353 351 350 348 347 346 345 345 348 347 346 346 344 341 340 339 338 337 337 335 334 334 339 329 331 339 340 340 340 341 340
350 351 354 359 360 360 359 358 357 357 355 354 352 351 349 348 348 347 345 344 344 346 347 346 342 341 339 338 338 336 336 335 335 339 333 331 335 339 338 338 338 338 338
347 348 354 358 359 359 359 358 357 356 354 353 351 349 347 349 347 343 340 340 344 347 347 346 341 340 339 340 338 337 335 334 338 337 337 338 337 343 343 345 345 345 345
345 351 355 358 359 358 358 357 357 355 353 351 348 346 345 344 342 340 340 345 347 349 348 344 341 340 340 340 339 337 334 336 337 337 337 340 338 345 346 344 342 342 342
348 351 354 358 359 358 358 356 355 355 353 351 348 341 339 341 340 342 344 347 348 348 347 342 340 340 341 340 338 336 335 337 333 335 333 332 334 343 343 340 339 337 338
349 349 352 354 356 357 356 355 354 352 351 350 344 341 340 339 340 341 345 348 347 347 344 342 340 341 340 339 338 335 336 335 332 335 333 333 341 342 341 338 336 335 335
348 348 349 351 353 352 353 353 351 350 349 348 347 345 343 341 341 342 345 347 345 345 344 342 340 339 339 338 337 335 336 334 332 333 333 333 342 341 338 336 335 333 333
347 347 347 347 349 349 349 348 347 348 346 346 345 342 338 337 338 341 340 344 345 344 343 341 339 338 338 337 336 336 334 334 329 330 331 334 341 339 336 334 333 332 331
344 344 346 344 345 346 343 344 345 345 344 343 340 336 334 330 331 333 334 339 342 342 340 338 338 339 338 336 336 335 333 328 329 330 329 340 339 337 334 332 330 329 328
337 342 343 343 341 342 343 340 340 343 342 341 338 332 332 328 326 330 333 337 340 340 339 339 339 339 335 328 327 331 326 327 325 327 328 340 337 335 333 330 328 326 325
334 339 343 343 341 337 339 338 338 340 341 340 337 333 333 328 325 327 329 331 331 332 332 334 335 332 328 326 325 324 325 324 323 322 327 338 336 335 331 328 326 324 323
337 337 339 341 336 335 335 334 335 336 334 332 337 335 332 326 324 323 326 327 329 330 328 327 329 328 326 326 323 322 323 321 320 319 322 334 336 333 329 326 325 323 323
336 338 338 339 337 335 334 333 331 332 332 331 332 334 331 327 325 322 324 326 326 327 325 326 326 327 325 324 322 321 320 318 317 315 316 330 334 331 328 326 324 323 322
335 337 339 339 339 337 334 334 333 330 330 330 330 331 331 329 327 326 324 323 325 325 324 326 325 325 324 323 319 319 318 316 314 313 313 323 331 331 327 325 323 322 321
333 337 337 340 340 337 337 339 336 334 332 330 329 330 331 329 328 328 328 327 326 324 324 324 325 324 322 323 318 316 316 313 312 312 318 322 324 326 327 324 322 321 320
334 335 337 341 339 339 337 338 337 337 333 332 330 329 330 329 329 327 328 329 330 329 324 322 322 322 320 319 315 313 311 311 310 311 312 321 317 317 323 325 322 319 319
321 331 335 339 338 338 339 338 341 338 336 334 333 330 330 330 329 329 329 329 330 328 326 323 321 321 318 315 315 312 309 309 310 312 311 311 317 314 311 320 320 319 317
315 316 318 331 338 339 339 339 338 338 339 338 334 333 332 330 329 329 329 329 328 327 326 325 321 321 318 316 315 312 307 307 308 308 307 310 309 310 308 308 307 307 314
311 313 313 315 319 332 338 333 333 336 334 335 336 336 334 332 330 329 329 328 328 326 327 326 323 320 317 316 311 306 306 306 305 305 307 306 308 308 306 304 302 300 303
308 309 310 312 314 316 323 336 334 334 334 336 332 335 337 334 332 330 329 329 327 326 325 326 325 323 318 317 310 304 300 303 303 305 304 306 305 306 305 304 302 299 299
304 305 308 311 311 313 315 321 333 332 330 329 331 335 335 334 334 332 329 329 327 327 325 326 325 324 320 314 311 308 304 303 300 303 302 303 303 303 303 302 301 299 298
305 306 306 307 307 310 312 312 318 330 327 330 331 332 332 334 334 333 332 330 328 327 326 324 326 325 321 315 312 313 309 305 300 295 300 301 302 302 300 300 299 297 296
307 306 306 305 306 307 308 309 309 310 318 326 327 329 329 330 331 331 332 327 331 330 329 328 325 325 325 319 314 309 311 305 303 299 293 296 299 300 300 299 298 296 295
309 308 307 306 305 305 305 306 307 307 310 316 321 320 322 324 330 330 330 330 330 328 328 328 327 324 322 321 315 312 309 307 305 301 299 295 296 296 298 297 295 294 294

GFSSE_sfc_thetae_075.txt.gz
Theta_e
348 356 362 362 362 362 362 361 360 359 358 357 356 355 354 353 351 351 351 349 350 347 344 345 344 343 343 342 341 339 338 338 339 340 340 340 340 341 344 343 342 341 345
352 356 360 361 362 362 361 361 359 358 358 357 355 354 353 352 352 351 350 349 348 347 345 344 343 342 340 339 337 337 336 336 338 338 339 338 340 340 338 338 339 336 339
352 356 358 360 360 361 360 360 359 358 357 357 354 353 351 350 348 347 348 349 348 347 346 344 343 340 339 338 336 337 336 336 336 337 338 330 333 341 341 341 341 341 341
353 355 356 359 360 360 360 359 358 358 357 355 354 351 350 348 348 348 345 345 348 348 346 343 341 339 339 337 336 338 338 338 337 339 332 331 336 340 341 341 341 342 341
350 353 356 358 359 359 358 358 357 357 356 355 354 352 350 350 346 342 341 343 347 348 346 342 341 340 340 337 336 337 338 339 341 339 337 336 338 344 346 346 344 345 345
347 351 356 358 359 358 357 357 357 355 355 352 350 348 348 345 341 340 343 345 349 348 347 342 341 341 340 339 337 337 337 338 339 334 334 339 338 345 344 342 341 342 344
347 352 355 358 358 358 357 357 355 355 353 351 347 342 342 341 342 342 343 348 349 348 345 343 342 341 340 339 336 336 336 336 332 330 330 332 337 342 339 339 337 338 338
348 351 354 354 356 357 357 355 354 353 350 349 345 341 341 341 342 344 344 347 349 346 343 342 342 341 340 338 336 335 336 335 333 332 331 333 342 341 338 336 335 335 335
349 350 352 353 353 352 353 353 352 350 349 347 346 344 342 343 343 344 346 348 347 345 345 342 341 341 339 338 335 335 335 334 329 330 335 334 342 339 337 335 334 334 333
346 348 347 349 351 351 350 348 347 347 346 345 344 341 338 338 340 343 344 345 346 346 343 342 340 339 339 337 335 336 334 333 327 329 332 336 340 338 336 334 333 332 331
343 344 345 345 345 347 347 345 345 344 343 342 339 336 334 330 333 333 336 341 343 344 342 340 339 340 339 337 336 334 333 326 327 328 331 341 339 336 334 332 330 329 328
339 341 343 342 342 343 344 341 339 341 339 338 335 331 330 327 327 332 332 338 342 340 340 340 340 339 335 328 327 331 326 324 324 326 332 340 338 335 332 329 328 327 327
336 340 341 339 342 340 339 337 337 338 338 337 333 330 330 328 324 328 329 331 331 331 332 335 335 331 327 324 323 323 324 322 322 325 334 339 336 335 332 328 326 326 325
334 335 339 340 340 335 338 336 337 337 338 336 334 332 329 322 323 327 326 327 328 328 327 328 328 327 326 325 322 321 321 320 319 320 329 335 337 334 331 328 326 325 325
333 335 336 337 337 335 337 335 335 336 336 335 336 334 330 323 322 324 324 326 326 327 326 325 326 326 324 323 322 320 320 317 317 317 322 331 335 334 330 327 326 325 324
333 334 337 337 337 334 331 330 329 330 333 329 334 334 330 326 324 322 322 323 325 326 325 325 323 324 323 322 320 318 317 315 312 314 318 327 332 332 330 328 326 325 324
331 334 334 337 338 335 335 332 331 328 329 328 327 329 329 327 325 324 322 322 324 324 322 323 323 322 321 322 319 316 315 312 311 311 314 322 327 328 330 328 325 324 323
331 335 336 339 337 336 335 336 337 332 329 327 327 327 329 328 326 325 325 324 324 323 321 320 320 320 319 318 316 313 312 311 310 309 318 320 320 320 326 329 325 323 323
330 332 336 337 336 336 335 335 336 339 331 329 328 327 327 328 327 325 325 327 327 326 324 321 319 320 317 315 315 312 308 308 308 310 311 318 316 315 315 324 324 323 323
318 329 332 336 336 335 335 335 334 336 340 336 331 328 328 328 327 326 326 326 327 325 324 321 319 319 317 316 315 313 307 306 307 307 307 313 317 314 311 312 313 313 320
306 310 314 323 337 336 333 330 330 332 332 333 334 333 330 329 328 326 327 326 325 326 326 324 320 318 316 314 310 306 305 304 304 306 307 306 308 312 309 309 307 304 309
304 305 307 309 312 328 337 335 331 330 331 332 332 334 336 334 329 328 327 327 326 324 324 324 322 318 317 314 309 302 301 302 303 304 304 306 305 307 307 306 304 302 302
303 303 305 305 307 309 313 332 330 331 328 328 329 331 332 333 333 331 327 326 327 326 324 324 324 320 318 315 311 307 301 300 300 301 303 303 304 303 305 305 304 301 300
304 304 305 305 305 306 306 310 328 327 327 326 327 330 330 331 330 330 329 328 325 324 323 323 325 324 318 315 314 312 310 306 300 298 301 303 303 302 303 302 302 299 298
306 305 305 304 304 304 304 305 306 310 316 324 328 328 329 328 329 329 329 327 327 325 324 322 322 322 322 320 315 311 311 309 304 300 298 300 302 303 303 301 300 297 297
307 307 306 304 304 305 304 303 304 304 304 307 314 322 325 325 326 327 327 330 328 326 327 328 327 324 325 324 319 315 311 309 309 303 299 297 299 297 296 295 295 295 295

GFSSE_sfc_thetae_078.txt.gz
Theta_e
345 355 361 362 362 361 360 359 360 359 358 355 354 354 352 351 351 351 349 347 346 346 345 344 344 344 343 341 340 338 339 339 339 340 339 342 342 344 344 343 342 340 343
351 356 360 362 362 362 361 360 358 358 357 357 355 354 353 352 351 350 349 347 347 345 344 343 342 340 339 338 337 338 339 338 336 337 339 339 341 339 339 339 340 336 338
352 356 357 360 361 361 360 359 358 358 357 356 354 354 352 351 350 350 349 348 347 345 344 343 340 339 337 337 338 338 338 338 338 336 336 330 334 341 340 341 341 340 340
353 355 356 359 360 360 360 359 358 358 357 356 354 351 349 348 348 346 347 348 348 346 344 341 339 338 337 338 340 340 339 337 336 337 329 332 334 342 342 342 344 342 341
351 354 355 358 359 359 358 358 358 358 357 356 354 353 351 349 346 344 345 347 349 346 343 341 340 338 337 338 339 340 340 343 342 338 336 336 338 345 346 345 345 345 344
350 352 355 358 359 358 358 358 357 357 356 354 353 352 348 345 342 341 342 348 349 347 344 341 341 339 338 338 338 339 341 341 337 333 336 341 339 344 342 340 340 343 344
348 352 355 357 358 357 357 356 355 354 353 351 349 348 345 342 341 341 344 347 348 346 344 342 341 340 338 338 337 337 337 339 330 329 331 336 335 340 338 338 338 337 339
348 352 354 353 355 356 356 355 354 352 349 347 344 342 342 342 343 342 346 347 348 344 344 342 342 340 338 338 337 336 337 336 331 329 332 334 341 338 337 336 335 335 334
349 350 351 353 352 352 353 352 353 350 347 346 344 343 343 343 344 342 345 349 348 345 345 343 342 340 338 337 336 335 335 335 328 331 334 334 341 337 336 335 334 334 333
347 349 349 349 351 350 349 348 348 346 345 345 344 341 339 339 342 343 344 347 346 345 344 343 342 340 338 337 336 335 333 332 327 330 332 334 339 337 335 333 332 331 330
346 346 348 348 348 347 348 345 345 343 342 341 339 336 334 331 334 336 338 342 345 345 343 341 341 341 339 337 336 334 331 325 325 328 332 341 338 336 334 332 331 329 328
338 342 345 345 345 346 345 343 340 340 337 335 333 331 329 328 330 331 335 339 343 342 341 341 340 340 335 327 326 331 324 323 324 327 332 340 337 336 333 330 328 327 327
338 340 342 342 342 339 341 337 336 336 334 334 331 329 327 326 325 327 328 333 333 332 332 335 334 330 325 322 322 322 322 321 322 326 333 339 337 335 332 329 327 326 326
336 336 338 340 340 336 338 336 336 336 334 332 331 329 327 323 321 324 326 327 327 327 327 328 328 326 325 324 321 320 319 320 321 322 329 336 338 335 333 329 327 326 326
333 334 336 337 335 336 335 336 335 335 335 335 333 331 328 322 321 324 325 325 325 326 325 325 325 324 323 323 323 321 320 318 318 320 325 331 336 336 332 330 327 326 326
332 334 335 336 334 335 335 334 334 335 336 334 334 333 329 324 322 324 323 325 325 325 325 324 323 324 322 322 322 319 319 315 316 316 321 327 333 335 332 330 328 327 326
330 333 335 336 336 331 330 331 331 332 334 331 335 334 330 325 322 322 322 321 324 324 325 323 323 322 322 321 319 316 315 312 312 313 316 323 327 330 332 330 328 327 326
332 331 333 338 336 333 333 334 332 328 331 329 330 333 330 326 324 321 321 321 322 322 322 320 321 319 319 319 318 316 313 311 309 310 312 320 322 323 328 331 329 327 326
329 332 333 334 335 334 334 334 335 336 327 326 326 327 328 328 326 325 323 322 321 322 321 321 318 318 317 316 316 314 310 310 309 309 311 316 319 319 318 325 327 327 327
327 331 333 334 334 333 333 333 333 334 335 330 327 325 326 327 326 325 324 324 325 323 322 319 317 317 317 316 316 314 309 307 307 306 307 316 317 317 316 315 319 318 324
311 325 330 332 334 332 331 329 328 329 331 332 330 329 326 326 326 325 324 324 325 325 325 323 319 317 315 314 310 308 305 305 304 305 306 306 315 317 315 314 314 311 315
303 306 310 314 326 333 332 331 331 330 329 331 332 332 332 328 326 325 324 325 325 323 323 322 321 316 316 313 311 305 306 305 304 305 303 305 305 311 312 312 311 307 307
302 302 304 305 306 311 326 331 329 329 327 327 328 329 332 332 331 327 325 324 324 324 324 323 323 320 320 314 311 311 301 302 301 302 302 302 303 303 306 307 306 305 305
303 303 303 304 304 305 306 318 328 329 327 326 326 327 328 329 329 330 329 327 324 323 322 322 323 322 317 315 313 315 308 305 302 301 300 304 306 305 305 304 304 302 301
305 304 303 302 302 302 303 305 314 319 321 322 324 325 326 326 328 328 328 326 325 323 322 321 323 322 322 322 315 310 309 309 305 304 305 300 303 303 304 305 304 303 301
305 305 303 305 305 305 302 301 303 303 304 305 308 316 322 325 325 326 325 324 325 326 325 323 321 323 323 323 322 318 315 311 310 305 301 300 301 298 296 296 297 298 298

GFSSE_sfc_thetae_081.txt.gz
Theta_e
343 354 361 361 361 359 358 357 358 358 356 354 353 352 352 351 350 348 347 345 346 345 345 345 344 343 342 340 339 339 339 339 340 340 341 343 344 345 345 343 342 337 340
348 355 360 361 361 360 360 360 358 358 357 356 354 352 351 351 350 348 347 346 344 344 343 342 340 339 338 338 340 339 337 336 337 338 339 339 340 341 341 340 339 335 338
351 355 357 360 360 360 360 359 358 357 357 356 354 353 352 351 351 349 348 346 345 344 343 340 338 337 338 339 339 339 339 338 337 337 337 331 333 339 340 341 341 340 339
352 354 356 359 360 360 359 358 357 356 356 356 353 352 350 349 349 350 349 347 345 344 342 339 337 337 339 340 340 340 338 336 335 336 328 332 334 342 343 343 343 342 339
351 353 355 358 359 359 358 358 358 357 356 355 353 351 349 349 347 346 348 349 346 344 341 339 337 338 340 341 340 341 342 341 340 335 334 337 340 344 345 346 345 345 345
349 351 355 357 359 358 358 357 357 357 355 354 353 352 349 346 344 345 346 349 347 345 341 340 338 338 339 339 340 343 344 341 338 335 336 339 337 342 340 340 341 343 345
349 351 353 357 358 358 357 357 356 356 354 354 351 348 346 343 342 341 345 348 346 344 342 341 339 339 339 339 338 340 341 337 330 330 332 332 333 338 339 338 337 336 338
347 351 353 353 355 356 357 356 355 352 349 347 346 346 343 342 340 343 344 348 345 344 342 342 339 338 338 337 337 339 339 335 330 330 331 332 340 338 336 336 335 335 334
349 349 351 352 352 352 353 352 351 349 347 346 345 343 343 344 344 344 345 347 346 345 344 343 340 338 337 336 336 336 337 334 328 331 333 332 339 337 335 334 334 333 332
348 349 349 349 350 349 348 349 348 346 344 344 343 341 339 339 342 343 344 347 347 345 345 344 341 339 337 336 336 335 334 333 327 330 331 332 338 336 334 332 332 330 329
345 345 347 347 347 346 345 344 344 342 341 341 339 336 334 333 333 335 339 342 344 344 343 341 340 340 339 337 336 334 329 325 324 329 330 340 337 336 333 331 330 328 327
341 342 345 347 346 345 346 341 338 338 335 334 332 330 328 329 330 335 335 340 343 342 341 341 340 340 335 325 324 329 323 321 322 327 330 340 337 335 332 330 328 327 326
341 340 343 344 344 343 343 340 335 334 332 331 330 328 326 327 326 327 330 333 333 333 333 335 333 330 324 321 321 320 321 319 322 325 331 340 337 335 332 329 327 326 326
336 338 341 342 340 337 337 336 334 334 332 330 329 328 325 322 323 323 325 328 328 328 327 327 327 326 323 322 319 318 318 319 320 323 327 335 339 335 333 329 327 326 326
334 336 337 337 338 336 335 335 333 332 333 332 329 328 326 322 320 323 323 325 325 325 324 324 325 325 322 321 321 321 320 318 318 321 324 329 336 337 334 331 328 326 326
334 334 336 336 336 334 335 334 335 333 334 332 331 329 328 324 320 322 323 323 323 324 324 323 323 322 321 320 321 321 320 318 316 319 321 325 333 336 335 332 330 328 327
333 334 334 335 334 334 333 332 333 334 334 333 333 331 329 325 322 322 322 322 324 324 324 323 322 321 320 321 319 320 317 315 313 316 317 322 326 331 334 332 331 329 327
331 332 334 338 334 332 335 331 330 330 330 332 333 332 330 327 322 321 321 321 322 322 323 321 320 319 318 318 318 318 316 313 310 311 313 318 322 324 329 333 333 330 328
330 331 331 334 334 330 331 332 331 330 328 329 328 330 330 328 324 321 321 321 320 320 320 320 319 318 316 316 317 317 314 311 310 309 309 312 319 321 319 325 329 329 329
328 330 331 332 333 333 332 332 332 333 329 326 326 326 328 329 326 323 321 320 320 319 318 317 318 316 317 316 317 316 313 310 308 307 307 311 314 318 317 317 319 321 326
320 326 330 331 332 331 330 328 327 328 330 330 326 326 325 327 327 324 323 322 323 320 320 320 317 316 314 314 312 309 308 308 307 305 306 306 312 315 315 315 314 315 317
304 315 324 328 330 331 330 329 329 328 329 331 331 329 327 325 325 324 323 323 322 323 322 321 320 316 315 313 313 309 310 312 306 306 304 305 304 312 313 314 312 312 311
301 302 307 311 315 327 329 330 328 328 327 326 328 329 330 329 327 325 323 323 322 323 322 322 320 318 319 313 311 315 306 305 302 304 301 301 303 302 306 310 310 310 307
301 302 303 303 304 305 310 326 327 328 325 325 326 327 327 328 329 329 326 323 322 322 321 321 321 321 320 320 314 315 312 309 306 305 302 302 302 303 304 304 305 304 304
303 302 302 301 301 301 302 305 319 323 324 323 323 324 325 326 327 328 329 326 324 322 321 320 319 322 322 322 317 315 313 309 306 306 308 307 303 301 303 304 305 305 305
303 303 304 305 304 304 301 301 303 311 312 311 310 315 319 322 323 325 325 325 325 324 323 321 320 321 322 322 320 318 316 311 309 307 304 307 302 300 297 298 300 299 301

GFSSE_sfc_thetae_084.txt.gz
Theta_e
339 352 360 360 358 359 358 358 357 356 355 354 353 353 351 350 348 347 346 346 346 345 346 346 345 343 342 342 341 341 341 341 341 342 342 345 345 345 344 342 341 335 338
347 354 359 360 359 359 359 359 358 357 356 354 352 352 351 349 348 347 346 345 345 344 343 341 341 340 341 341 339 337 337 338 339 339 339 338 341 342 341 340 339 335 339
350 354 356 360 359 359 359 358 358 357 356 355 352 352 351 350 348 348 346 345 345 343 341 339 339 339 340 341 341 340 339 338 338 339 337 331 332 339 341 341 341 339 340
351 354 355 359 359 360 359 358 357 356 355 355 353 352 351 351 349 349 346 345 345 342 339 338 339 340 340 340 340 338 337 337 337 335 330 332 335 344 344 344 343 341 340
350 353 355 358 359 359 358 357 357 356 356 355 353 351 349 349 349 350 348 346 344 341 339 338 340 342 342 341 341 342 341 339 338 336 337 339 341 343 347 346 345 347 342
350 350 355 357 359 358 358 357 357 356 354 352 352 350 349 347 346 348 349 348 346 343 339 338 340 341 340 341 344 344 343 342 338 334 334 338 334 341 340 339 339 344 344
348 350 353 357 358 358 357 357 356 356 354 352 351 350 347 344 343 345 348 347 344 342 341 338 340 340 340 340 341 343 341 337 331 331 330 331 332 339 339 338 337 336 338
348 349 352 353 355 356 356 356 355 355 353 353 349 346 344 343 341 343 347 346 344 343 342 339 339 339 339 338 339 341 337 334 331 330 330 330 339 338 337 336 336 336 334
348 348 350 351 351 352 353 354 352 350 348 347 346 345 343 343 343 342 346 347 345 344 343 341 339 338 338 337 337 338 337 334 328 330 332 330 340 337 335 335 333 333 333
347 348 349 348 349 348 348 348 347 346 345 345 343 341 339 339 341 344 344 346 346 346 344 342 340 338 338 337 335 335 335 332 327 329 330 331 338 336 334 333 331 330 329
343 344 347 346 345 345 344 344 343 342 341 340 339 336 334 333 334 336 338 342 344 345 343 341 340 339 337 335 335 332 330 324 325 328 329 338 336 335 333 331 329 328 327
338 342 345 346 344 343 345 341 337 337 334 333 332 330 328 329 329 335 335 340 343 342 341 341 340 339 331 324 323 327 322 321 321 325 328 338 336 335 332 330 328 327 326
337 340 344 344 343 343 341 338 334 333 331 331 329 327 325 327 327 330 331 334 334 333 332 334 332 329 324 320 320 319 320 318 320 324 330 338 337 335 332 329 327 326 325
338 338 342 344 342 340 338 337 334 332 330 328 328 327 323 323 324 324 327 328 329 329 327 327 327 326 323 320 317 316 317 318 319 321 325 334 339 336 334 330 327 326 326
336 338 340 342 339 336 334 334 333 331 331 329 328 327 325 321 322 322 323 324 325 325 324 323 323 324 322 320 319 319 318 317 317 318 321 327 335 338 335 332 329 327 325
333 336 339 338 338 335 334 333 334 332 333 330 328 327 326 322 319 322 322 322 323 324 324 322 322 322 321 319 318 319 319 319 318 316 319 323 331 336 337 334 332 329 327
333 334 335 337 336 334 333 332 332 333 333 331 330 328 327 324 320 320 322 321 322 323 323 321 320 320 319 319 317 318 319 317 316 314 316 319 324 330 335 335 333 331 329
333 333 334 338 335 334 333 332 332 332 332 332 331 331 328 326 323 321 321 321 322 322 322 320 320 318 317 317 317 318 318 316 313 311 313 316 320 324 329 335 335 332 330
331 332 332 334 332 332 333 331 331 330 330 331 330 331 330 329 325 322 321 321 320 320 320 320 318 318 316 316 316 317 317 315 313 311 309 311 314 320 320 326 330 331 332
329 331 332 332 333 330 330 330 330 329 328 328 328 329 331 331 327 323 320 320 319 318 317 317 317 316 316 316 317 316 315 314 311 309 308 308 310 315 318 318 318 321 327
325 327 329 331 332 332 329 327 327 329 328 326 325 328 328 330 328 324 322 320 318 318 318 317 316 315 314 313 313 312 311 311 310 308 307 306 307 311 314 316 315 315 317
317 322 325 327 329 331 330 328 328 327 328 329 329 326 326 325 325 324 323 321 320 320 318 317 316 314 314 313 312 310 312 314 308 307 305 305 305 307 312 313 313 313 313
303 308 317 324 327 329 329 329 327 327 325 325 327 328 327 326 325 324 323 322 321 322 321 320 319 317 315 313 312 317 308 308 307 309 305 302 303 302 305 309 313 313 312
300 302 304 305 307 311 325 327 325 326 325 325 325 326 327 328 327 326 324 322 321 321 321 320 320 320 320 320 314 315 314 312 310 308 304 302 302 302 304 302 305 307 306
301 301 300 301 301 301 303 309 322 324 324 323 323 324 324 325 327 328 327 324 322 320 320 320 318 318 319 319 315 312 310 310 309 307 309 310 305 301 300 300 303 305 305
300 301 303 304 304 303 301 300 301 309 316 316 316 317 319 321 323 324 325 325 324 323 321 320 319 318 318 318 320 318 315 312 309 307 306 307 307 302 299 296 297 297 300

GFSSE_sfc_thetae_087.txt.gz
Theta_e
346 354 359 360 359 359 358 358 358 357 356 355 352 351 350 348 348 347 346 347 347 348 348 348 346 345 344 343 343 343 342 342 343 343 344 346 346 345 343 341 339 336 339
350 355 358 359 359 359 359 358 357 356 356 355 352 352 349 348 347 346 346 345 345 344 344 343 343 343 341 339 338 338 340 340 340 339 338 340 343 343 341 340 340 339 339
351 355 357 358 359 359 359 358 357 356 356 355 353 351 350 349 348 346 345 345 343 342 341 341 343 342 342 342 340 339 338 339 339 340 338 338 339 343 343 342 341 340 339
352 355 356 357 358 359 359 358 357 357 356 355 354 352 351 349 349 347 346 345 342 340 339 341 341 341 341 340 340 340 340 339 338 337 340 339 343 344 345 346 344 342 342
353 355 356 357 358 359 358 358 357 357 356 355 354 353 352 350 350 347 346 345 341 339 339 341 343 343 343 343 343 341 340 340 340 341 342 342 343 344 344 343 346 343 343
352 355 356 357 359 358 357 356 357 356 355 353 353 351 349 349 350 349 347 345 343 342 340 342 343 342 343 345 345 344 344 342 341 341 340 341 340 340 340 339 341 345 345
350 354 356 358 358 358 357 357 357 356 355 352 350 350 347 346 347 350 347 346 343 341 339 341 341 341 341 343 344 343 341 338 340 339 339 339 339 339 339 338 337 337 338
349 353 354 354 355 356 357 356 356 355 354 353 352 348 345 344 344 348 347 346 344 341 339 341 341 341 340 341 343 340 338 337 337 338 338 338 340 338 337 337 336 335 335
351 351 353 354 353 352 353 354 354 353 351 349 348 346 344 343 343 345 348 347 344 343 342 341 340 340 339 339 341 338 336 335 338 338 336 337 340 337 336 334 333 333 333
350 350 351 353 353 353 353 349 348 347 346 346 345 343 340 339 341 344 345 346 347 345 344 342 339 339 338 337 336 336 335 334 337 338 338 337 338 336 334 332 331 331 330
345 348 349 350 351 351 351 347 344 343 342 341 339 336 336 341 341 342 340 343 345 345 343 342 340 339 337 335 335 332 332 335 337 338 338 337 336 335 333 331 329 329 328
340 341 345 347 349 349 348 346 343 340 339 338 338 338 337 340 339 340 337 340 343 343 342 342 341 337 332 333 333 330 334 334 334 336 338 337 336 335 332 330 328 328 327
339 341 343 345 349 348 346 343 340 339 338 337 336 336 336 336 339 340 341 342 343 336 340 340 339 338 333 330 331 331 331 331 332 333 335 336 338 336 333 330 327 327 326
336 341 344 345 346 347 345 342 339 337 337 336 335 333 333 334 336 338 340 341 341 341 339 339 338 337 334 330 327 327 328 330 331 332 334 333 339 337 335 331 328 327 326
336 338 342 344 345 345 343 342 339 337 336 336 335 333 331 333 333 335 337 337 338 338 337 336 336 335 334 332 328 327 326 327 327 328 330 327 333 338 336 334 331 328 326
337 338 340 343 343 344 342 341 339 338 337 336 335 334 332 330 331 332 333 333 334 335 336 334 333 333 332 331 329 326 328 329 329 328 328 329 329 335 337 336 334 331 329
335 337 339 340 341 343 342 341 339 337 337 335 335 335 333 332 329 329 331 331 331 333 333 333 331 331 330 329 328 326 326 328 327 326 326 327 330 329 335 337 335 333 331
336 336 338 339 340 342 342 340 339 339 338 337 337 335 334 333 332 328 327 328 330 330 331 331 330 329 328 327 327 328 328 328 327 326 323 324 326 329 331 334 337 334 333
336 336 336 338 338 339 340 340 339 338 338 338 338 337 336 334 332 331 329 329 329 329 329 329 328 328 326 326 326 327 327 327 327 324 324 322 323 325 328 329 330 332 334
334 335 337 337 337 337 337 336 337 336 337 337 337 337 337 336 334 331 331 330 328 327 326 326 326 325 326 326 323 324 326 326 326 324 324 322 320 320 323 326 328 329 327
330 331 333 334 334 332 332 332 333 334 335 334 334 335 335 337 335 332 330 329 327 326 326 325 325 324 324 324 322 324 324 325 324 324 323 321 319 319 319 321 323 326 327
324 328 330 332 334 335 334 332 333 333 334 337 335 332 333 332 334 332 331 329 327 326 324 324 323 323 323 322 322 320 318 323 322 320 320 318 318 316 316 317 319 321 324
308 317 327 329 332 334 334 333 331 331 331 332 334 334 331 329 330 330 330 329 328 327 328 326 325 323 323 321 322 323 312 312 315 319 315 313 313 313 313 314 316 317 319
305 306 310 321 329 331 333 333 332 332 330 331 333 334 334 332 329 329 329 328 328 328 327 327 327 326 325 323 319 318 321 319 314 314 314 312 309 310 311 311 311 313 314
305 305 305 306 307 308 320 329 331 330 331 330 331 330 331 332 333 332 330 328 327 327 327 327 325 325 325 325 323 317 316 315 314 311 309 314 313 307 306 306 307 310 309
305 304 306 306 306 305 306 307 315 322 325 325 326 326 327 328 330 331 331 332 331 328 327 326 326 325 325 325 325 322 320 317 312 311 309 310 312 310 304 302 303 304 305

GFSSE_sfc_thetae_090.txt.gz
Theta_e
350 354 359 360 358 359 358 357 358 357 356 353 352 350 349 348 347 347 348 349 350 350 350 348 347 346 345 344 344 343 343 344 343 344 345 347 345 343 340 340 344 336 343
352 354 358 359 360 359 359 358 357 356 355 354 351 349 349 347 347 347 346 346 346 346 345 345 344 342 340 340 340 340 341 340 339 339 342 342 343 343 342 341 342 338 339
351 352 355 358 359 359 358 358 357 356 355 355 352 350 349 347 346 346 346 344 344 343 343 344 343 342 341 340 339 339 339 340 340 340 340 343 344 345 345 343 342 341 340
351 353 352 357 358 358 358 357 357 356 356 355 354 351 350 347 346 346 344 342 341 342 343 342 341 341 341 342 341 340 341 341 341 340 344 342 343 346 346 347 344 343 343
352 353 353 357 358 358 357 357 357 356 356 355 355 354 352 349 347 347 344 340 340 342 342 343 343 343 343 342 342 342 342 343 344 343 343 342 341 341 343 346 345 346 346
351 353 354 356 358 358 357 357 356 356 355 353 353 352 352 351 348 347 344 341 342 344 343 343 343 344 346 345 344 345 344 342 343 342 341 341 338 340 340 340 340 341 344
349 353 356 356 358 358 357 356 357 356 354 351 350 349 348 349 350 347 344 342 340 342 343 342 342 343 345 344 344 344 342 340 340 339 339 338 339 339 339 338 338 337 338
347 352 355 354 356 356 356 356 356 355 354 352 352 347 345 346 349 347 345 343 341 340 342 342 342 341 343 343 342 341 339 339 336 337 337 337 339 338 337 336 335 335 336
351 352 354 355 354 352 354 354 354 354 352 351 349 347 345 344 346 348 346 345 343 340 341 341 341 340 341 342 339 337 336 336 337 337 335 337 339 337 336 334 333 333 333
348 349 350 353 353 353 353 350 350 350 348 348 346 343 340 340 342 346 345 345 346 343 341 340 340 339 338 338 337 337 335 336 337 337 338 338 337 336 334 332 331 331 330
346 347 349 351 351 351 350 348 345 344 343 342 341 338 336 337 338 341 342 342 345 345 342 340 339 339 337 336 334 335 333 338 337 338 338 337 337 335 333 331 330 329 329
342 344 348 350 350 350 347 349 347 344 344 343 341 339 337 338 339 337 340 340 344 343 343 342 339 336 333 335 335 331 337 337 337 338 339 336 336 335 332 330 328 328 327
342 343 348 347 349 349 347 347 345 344 343 341 337 335 335 338 338 337 341 344 343 337 341 340 339 339 334 331 333 335 336 336 336 337 337 335 339 336 333 330 328 327 326
339 343 344 346 349 348 347 346 345 343 342 340 338 333 334 336 337 336 338 342 342 341 341 341 340 340 337 334 329 328 331 333 334 336 336 334 337 339 336 332 329 327 327
337 340 343 344 348 348 346 345 344 343 341 341 340 337 333 334 336 338 339 340 341 341 340 339 338 337 337 336 332 327 327 328 330 331 333 330 332 337 338 336 332 329 327
338 339 343 344 346 347 346 346 344 343 342 341 340 339 337 334 334 336 337 338 338 338 338 337 335 334 334 335 333 328 327 330 331 332 333 333 329 333 338 338 336 333 330
340 342 340 344 345 346 346 345 345 344 342 341 341 341 339 338 336 336 333 334 335 335 334 336 335 334 332 331 330 330 327 330 332 332 333 332 332 328 334 338 337 335 333
341 341 343 343 345 345 345 345 345 345 343 342 342 342 340 339 339 337 335 332 333 334 334 334 333 332 331 331 330 331 331 331 332 333 332 332 332 331 331 335 337 336 335
339 340 341 343 342 344 346 346 345 345 344 343 343 342 341 340 339 338 337 336 334 333 333 334 333 332 330 330 330 331 332 332 332 331 331 332 332 330 332 331 331 333 334
339 341 341 342 344 343 345 344 344 344 343 344 343 343 343 342 340 339 339 338 337 334 334 333 332 332 330 330 328 328 331 332 333 333 332 332 331 330 329 330 330 329 329
337 339 339 339 340 341 339 336 337 338 341 341 342 343 343 343 342 341 339 338 338 335 334 333 331 330 330 330 328 329 330 331 331 332 333 332 330 328 328 327 327 327 328
333 336 338 338 339 339 340 339 339 339 339 342 343 341 342 342 342 340 339 338 337 335 334 332 330 329 329 331 326 326 323 327 329 330 329 328 326 326 325 323 324 324 325
315 328 332 335 335 338 338 337 336 337 334 335 338 339 339 338 338 337 338 338 337 335 334 334 332 330 327 329 328 327 318 317 322 325 324 323 322 322 319 318 319 320 321
312 314 320 330 334 335 337 335 334 333 332 335 337 340 340 337 335 336 336 336 336 335 334 335 334 332 330 327 328 327 329 325 318 315 320 322 318 316 315 317 317 316 317
313 312 314 318 329 334 336 336 336 335 337 338 335 335 337 338 339 336 334 334 333 333 333 333 332 331 331 330 329 328 324 321 319 315 313 320 320 314 312 312 311 314 314
312 312 311 312 313 315 324 331 334 334 334 332 333 333 336 337 337 338 337 337 336 334 333 333 333 332 331 330 330 329 325 322 321 317 314 315 316 315 311 310 310 310 310

GFSSE_sfc_thetae_093.txt.gz
Theta_e
349 353 359 359 358 359 358 357 358 356 354 352 350 349 348 348 349 350 351 352 352 351 350 349 347 346 345 344 343 345 344 345 346 346 346 345 343 343 343 344 343 339 345
350 351 358 359 359 359 359 358 357 356 355 352 350 348 347 347 347 347 348 348 348 347 347 345 343 341 341 341 341 341 340 340 341 342 343 343 345 346 344 343 344 338 341
349 350 356 358 358 359 358 357 356 355 354 353 350 348 347 347 347 346 345 345 345 346 345 343 342 341 340 339 340 340 340 341 341 342 345 343 344 349 346 344 345 344 344
349 350 352 357 358 358 357 357 356 355 354 353 352 350 347 346 346 344 343 343 344 344 343 343 343 343 343 341 342 343 344 343 343 345 341 341 339 346 347 346 346 347 346
349 349 352 356 358 357 357 357 355 355 355 354 353 352 350 347 346 343 341 342 343 343 343 343 343 343 343 343 344 346 345 344 345 340 339 339 338 341 344 344 344 347 346
350 347 352 355 357 357 357 357 356 355 354 353 353 353 351 348 347 343 340 343 345 346 344 344 346 346 345 345 345 345 344 343 344 337 337 337 336 340 340 341 340 341 343
350 351 351 356 357 357 357 356 355 355 354 352 351 350 351 349 347 343 341 343 344 344 343 343 345 345 345 345 345 343 341 341 337 335 335 335 336 338 338 338 338 339 339
349 352 351 352 355 356 356 356 355 355 353 352 351 348 348 350 347 344 342 342 342 343 343 342 343 344 344 343 342 341 339 339 334 335 336 335 339 337 336 336 335 335 336
349 350 350 352 352 352 353 354 354 353 351 351 349 348 346 348 348 345 345 343 341 342 342 342 341 343 343 340 338 337 337 338 336 335 335 335 339 337 335 333 333 332 332
347 350 347 350 351 352 351 350 350 350 348 348 347 343 340 341 346 347 344 345 343 342 342 341 340 339 340 339 337 335 336 337 336 336 336 336 338 336 334 333 332 331 331
345 347 346 347 349 350 349 348 347 345 344 343 341 338 336 336 342 344 341 342 344 343 341 340 340 338 337 336 335 336 334 336 335 336 337 339 337 335 333 331 330 330 329
341 343 345 349 348 348 347 347 347 346 344 343 341 339 337 334 334 345 340 340 343 343 342 340 338 337 334 334 333 332 335 334 334 335 336 339 337 336 333 330 329 328 328
341 344 344 346 349 346 347 346 345 343 343 342 339 337 335 336 337 342 344 342 342 337 341 340 337 336 333 330 331 332 332 333 333 333 335 338 338 336 333 330 328 328 327
341 343 345 348 347 346 346 345 344 342 342 339 336 332 334 335 334 334 339 343 342 341 340 340 338 337 336 333 328 327 329 330 331 332 334 336 337 339 337 333 329 328 327
340 342 345 346 347 345 343 344 343 342 341 340 337 332 332 334 334 334 336 339 340 340 340 339 337 336 335 335 332 326 325 327 329 330 332 332 334 336 339 337 333 330 329
340 340 343 344 346 344 343 343 342 341 342 342 340 337 333 332 334 336 337 337 337 338 337 336 334 333 332 333 332 329 326 327 329 331 333 332 331 333 337 339 338 335 332
340 341 341 343 345 344 343 343 342 341 341 341 340 340 338 336 334 335 334 335 335 335 333 334 333 332 330 329 329 329 327 327 330 331 333 333 331 329 333 338 338 337 335
339 339 341 343 344 345 344 343 344 342 341 342 341 341 341 339 338 337 335 332 333 334 333 333 332 331 330 330 329 330 330 329 329 331 333 333 334 332 330 335 337 338 337
338 339 341 342 342 344 345 345 345 343 342 342 341 341 341 340 339 338 337 335 332 333 333 333 332 331 331 331 331 331 332 332 333 332 332 333 334 333 333 331 332 334 335
337 338 340 343 343 343 345 345 345 345 343 342 341 340 340 340 340 339 338 337 336 333 333 333 333 333 331 330 328 328 331 333 334 333 333 333 333 333 332 332 331 329 329
336 337 338 340 342 342 342 341 340 338 341 342 344 344 343 341 341 340 339 338 338 335 334 334 333 331 331 331 329 329 330 332 332 333 334 333 333 331 330 330 329 329 329
334 336 337 337 339 342 342 342 342 341 343 343 344 342 343 343 343 340 340 339 338 337 335 335 333 331 330 332 327 328 323 328 330 330 332 330 330 329 327 326 325 326 327
332 334 336 335 337 339 341 340 339 339 338 338 340 341 341 340 342 342 341 340 339 338 335 336 334 331 328 331 331 327 320 318 323 327 325 325 325 324 321 320 319 320 321
318 327 335 336 335 337 338 337 335 333 332 335 338 340 340 340 338 336 337 337 337 337 336 336 336 334 332 328 330 328 330 328 321 318 324 323 321 318 317 316 318 318 317
317 317 321 328 334 336 337 337 334 332 337 336 336 335 337 340 337 335 335 335 334 335 335 335 335 334 332 330 330 329 326 326 323 319 315 320 321 316 314 314 314 314 314
318 317 317 318 323 329 334 333 333 331 331 333 331 332 336 337 338 338 337 335 334 334 333 333 334 333 332 332 331 330 325 322 319 318 316 317 318 316 313 312 311 310 310

GFSSE_sfc_thetae_096.txt.gz
Theta_e
347 354 360 361 361 360 359 358 357 353 350 350 349 348 350 351 352 353 353 352 353 352 348 347 346 345 344 344 346 346 347 346 344 344 346 346 346 344 343 344 343 340 346
350 354 358 359 359 359 359 358 356 354 353 351 348 347 348 349 350 350 350 349 348 347 345 344 343 342 342 342 341 341 343 343 343 344 345 344 346 345 345 344 346 340 343
348 353 355 358 358 358 358 356 355 354 353 352 350 348 347 347 347 347 347 347 346 345 343 342 341 340 340 340 340 342 345 344 345 346 343 337 343 348 347 347 347 346 343
349 350 352 357 358 359 357 356 355 354 353 352 351 349 346 345 345 345 345 345 345 344 344 344 343 342 343 345 345 345 345 345 346 343 335 335 338 348 347 347 348 347 344
346 348 352 356 358 357 356 355 355 354 354 353 351 350 349 345 343 343 344 343 343 344 343 344 344 344 344 346 347 346 346 345 344 336 333 332 332 341 344 344 344 345 346
344 350 353 355 356 356 355 355 356 355 355 354 352 351 350 345 341 342 343 344 345 344 345 346 347 346 346 346 346 345 343 344 340 330 331 335 331 338 340 341 341 341 342
344 348 352 356 356 356 355 355 354 355 355 354 353 352 349 345 341 342 343 346 345 345 345 346 346 346 345 345 344 342 342 340 330 329 330 331 330 337 337 337 337 339 340
346 347 350 352 354 355 355 354 354 354 354 353 352 351 350 345 342 341 343 344 344 343 343 344 345 344 344 344 342 340 339 338 332 331 331 332 338 336 335 334 334 334 335
347 346 348 350 351 352 353 353 353 353 351 350 350 350 350 346 345 343 343 345 343 343 342 342 344 343 342 340 337 337 336 337 330 331 333 331 339 336 335 333 333 333 333
347 346 346 347 349 350 349 350 349 348 347 348 346 343 342 343 344 345 342 343 344 344 343 343 341 342 341 338 337 336 334 335 329 332 333 334 337 336 334 333 332 331 332
344 344 346 346 346 348 347 346 346 345 344 342 340 337 336 340 341 340 339 340 342 343 342 341 339 338 338 336 337 336 334 330 329 332 333 339 337 335 333 332 331 331 330
340 342 344 344 345 347 346 344 344 342 339 338 336 333 333 331 341 342 337 339 342 341 340 340 339 338 334 328 326 331 328 328 328 331 333 339 338 336 333 331 331 330 329
339 340 344 345 346 345 343 342 343 341 339 337 335 333 331 330 336 341 338 339 337 336 336 336 333 329 325 324 327 326 325 325 325 328 335 340 338 337 334 331 330 329 328
339 341 342 346 344 343 344 343 341 339 338 334 331 330 328 329 328 337 337 337 336 336 337 334 332 331 330 327 322 319 322 323 324 327 331 335 339 339 337 333 330 329 328
338 340 343 344 343 343 343 342 340 338 336 333 328 325 328 328 327 326 336 337 335 335 334 333 332 330 329 328 326 321 318 319 322 323 327 331 336 338 339 338 333 330 330
339 338 342 342 343 343 340 341 338 339 335 334 331 328 325 327 328 327 329 333 333 335 333 331 328 327 326 327 326 322 319 319 321 323 325 327 332 335 337 339 339 335 332
337 340 340 340 343 341 340 340 339 338 338 337 333 332 329 327 326 329 329 329 329 329 328 328 326 325 323 323 322 322 320 318 322 325 325 326 327 329 334 338 339 339 336
337 338 340 343 341 341 340 340 341 339 337 337 335 334 333 332 331 329 328 327 328 327 326 326 325 324 323 322 321 322 322 320 320 322 325 326 326 327 329 335 339 339 337
338 338 338 340 340 340 340 342 340 340 339 338 337 335 336 334 333 331 330 328 326 326 326 327 325 324 323 323 324 323 324 324 325 327 325 326 326 326 326 329 331 334 336
335 338 338 339 339 340 340 338 340 340 340 339 337 337 337 336 334 333 332 331 327 326 325 326 325 325 323 323 325 323 323 325 326 325 326 327 327 326 325 326 326 327 329
332 334 337 337 338 340 339 335 334 333 336 338 338 338 337 337 336 334 333 332 331 328 327 327 326 325 323 324 321 321 323 325 325 326 327 326 326 325 323 322 321 321 324
329 331 335 337 338 339 338 339 336 334 334 334 337 337 339 339 338 336 334 333 332 331 329 329 327 325 325 325 321 320 317 321 324 325 325 323 320 320 320 318 316 317 318
327 330 332 334 336 338 338 336 334 333 333 333 334 335 336 337 337 337 335 333 332 332 330 330 329 326 322 324 324 321 314 313 317 319 318 318 317 314 313 313 313 314 315
327 329 330 330 333 336 336 334 330 329 327 329 331 333 335 335 334 334 334 334 333 332 330 329 330 327 325 323 324 325 323 321 314 312 317 315 313 313 311 311 312 312 312
314 317 326 330 330 332 332 331 330 328 328 328 330 331 332 334 334 333 333 332 332 332 332 331 329 329 328 325 324 322 321 320 319 315 312 312 313 309 309 308 308 307 309
311 311 312 322 327 330 330 328 325 326 326 327 327 327 330 332 333 333 333 332 332 331 331 330 330 329 327 326 326 326 322 319 317 315 314 314 310 309 306 305 306 304 304

GFSSE_sfc_thetae_099.txt.gz
Theta_e
347 355 360 361 361 359 358 356 351 349 350 348 349 353 353 354 354 354 353 353 353 351 347 346 344 345 347 348 348 346 345 347 347 348 347 347 346 344 343 343 343 341 348
350 354 359 360 360 359 358 355 352 352 351 350 348 350 352 352 352 352 351 349 347 346 344 343 343 343 343 344 345 345 345 345 347 346 346 344 346 347 348 346 346 341 347
350 354 355 358 358 358 356 355 353 352 351 351 350 347 349 349 349 349 348 346 345 343 342 341 341 341 340 342 346 347 347 347 346 344 342 339 342 348 349 347 347 343 343
351 352 353 356 357 357 355 354 353 353 351 350 350 348 346 346 347 347 346 345 344 343 343 342 343 344 345 346 347 347 347 344 342 339 333 334 341 346 348 348 347 347 346
349 351 353 356 357 356 355 354 354 353 351 351 350 348 345 344 345 345 344 343 343 344 344 344 345 346 347 347 347 346 345 342 340 335 331 329 331 341 344 343 343 345 345
347 350 354 356 357 355 354 355 354 354 352 351 351 348 345 343 344 343 343 345 346 346 345 346 346 346 346 346 345 343 344 340 335 329 328 331 328 338 339 341 340 340 341
345 349 352 355 355 354 355 354 354 354 353 352 351 346 342 342 343 344 344 345 345 348 346 346 346 346 346 345 343 342 342 337 330 328 329 328 328 337 337 337 337 338 338
345 348 351 351 353 353 354 353 353 353 353 352 352 347 343 342 343 344 344 345 345 345 345 345 345 345 344 342 340 340 340 336 331 329 329 330 337 336 335 335 335 335 335
346 347 349 349 350 351 351 352 352 353 352 351 351 349 345 343 344 343 345 345 343 344 344 344 344 342 341 338 337 337 337 336 329 330 331 330 338 336 335 334 333 333 333
345 347 347 348 350 349 348 349 349 348 347 348 347 345 341 341 341 344 343 344 344 343 343 344 343 341 339 337 337 335 334 333 328 330 331 332 337 336 335 333 332 333 332
343 344 345 346 347 347 347 345 345 344 342 341 340 339 338 340 339 337 337 340 343 343 342 341 340 340 338 336 337 335 333 328 328 330 331 339 337 336 334 332 332 331 331
339 342 344 344 345 345 346 343 342 341 337 335 334 334 335 339 337 338 335 338 341 341 341 341 339 337 333 326 325 330 326 326 328 330 332 340 338 336 334 332 331 330 330
338 342 343 343 345 343 342 341 339 338 335 334 332 331 330 335 336 336 335 334 333 333 334 335 333 329 326 325 325 323 325 323 325 329 334 339 340 337 334 332 331 330 329
338 340 342 344 343 342 341 341 339 337 335 333 332 331 326 330 337 337 335 334 333 333 331 331 328 327 325 323 322 319 319 321 322 328 332 336 340 339 336 333 331 330 329
337 340 342 342 342 341 340 342 339 336 335 334 330 326 329 330 333 335 334 334 333 333 333 331 331 330 327 326 324 319 316 317 320 327 327 330 337 341 340 337 333 332 330
337 339 342 341 342 343 339 340 336 335 333 329 325 323 327 327 325 328 334 334 332 332 332 331 329 326 326 325 324 320 317 317 319 320 325 327 333 337 339 340 339 335 333
337 338 340 340 341 339 340 340 336 335 335 329 327 325 323 325 325 325 331 330 330 331 331 328 325 323 321 321 321 321 318 316 319 322 323 324 328 330 335 338 339 339 337
335 336 338 342 340 340 339 339 338 335 334 333 330 329 328 327 327 326 326 327 327 326 324 324 323 322 320 319 318 319 319 317 318 320 322 323 324 325 329 335 339 339 338
337 335 337 340 339 339 339 340 339 340 334 333 332 330 330 330 330 327 327 325 325 324 324 324 322 322 320 319 321 321 321 321 320 323 323 323 323 324 324 328 331 334 336
335 336 336 337 338 339 338 338 340 339 337 336 334 334 333 332 331 329 329 328 324 324 324 324 323 322 321 321 324 322 321 322 323 323 324 325 325 325 324 325 325 326 329
334 334 336 336 336 337 336 334 333 334 336 337 337 337 336 335 332 331 330 329 325 324 324 325 325 323 322 322 321 320 322 323 322 324 324 324 324 326 322 321 322 321 321
329 334 332 335 337 338 338 335 334 332 333 335 337 337 337 336 334 332 331 330 330 326 325 325 324 323 323 323 320 318 315 318 321 322 323 323 319 320 315 314 314 314 316
325 328 333 335 336 336 336 333 332 331 331 332 332 334 333 335 336 335 333 332 331 331 328 327 326 324 321 322 322 319 312 312 314 318 317 316 316 313 310 311 312 314 312
324 327 331 332 334 335 333 333 329 328 326 330 332 333 333 334 334 335 334 333 332 332 331 329 330 327 324 321 323 324 321 319 315 314 317 314 313 310 309 309 309 309 309
324 323 325 328 331 333 333 330 327 326 325 327 328 329 331 332 333 333 332 332 331 331 331 330 330 328 327 325 324 322 320 320 320 316 313 313 310 307 306 306 305 305 306
313 313 318 324 326 328 328 326 324 321 322 323 325 326 327 330 331 332 331 330 329 329 329 329 330 329 329 328 326 324 320 318 316 315 314 314 313 308 305 305 304 302 302

GFSSE_sfc_thetae_102.txt.gz
Theta_e
347 352 359 359 359 357 354 350 349 350 351 353 354 355 355 355 354 353 353 352 352 349 346 346 347 350 348 348 348 349 347 348 347 346 346 347 346 344 344 345 346 343 348
351 354 358 359 358 357 355 349 349 351 351 352 353 355 354 354 353 351 350 348 347 345 344 345 346 347 347 347 347 347 347 346 346 346 345 344 346 347 345 344 347 344 348
351 354 355 358 357 356 354 352 352 350 350 351 352 353 353 352 350 349 347 345 344 343 342 342 342 344 347 348 348 346 346 344 342 342 341 339 343 348 346 345 346 345 347
351 353 354 356 356 355 354 352 351 351 350 350 350 350 350 349 348 346 345 343 342 342 342 342 343 347 348 348 348 344 344 341 339 337 331 333 340 347 348 347 347 347 347
349 351 352 356 355 354 353 353 352 350 350 349 349 349 349 348 346 345 344 343 343 343 344 345 347 348 348 348 347 343 341 339 337 332 328 329 332 342 344 341 343 345 345
347 349 352 354 355 353 353 353 352 351 349 345 346 347 348 345 344 343 343 344 346 346 346 346 347 347 346 346 346 342 340 337 333 326 325 330 328 339 340 339 339 339 340
347 349 351 354 353 354 354 353 352 351 350 345 343 343 344 343 343 343 343 345 346 348 346 347 346 346 344 345 342 340 338 335 328 326 326 325 328 337 337 337 337 337 337
347 349 350 351 351 353 353 353 352 351 351 349 345 342 343 343 343 343 345 347 347 346 346 346 346 345 342 341 341 339 337 335 330 327 327 328 336 336 336 335 335 335 335
347 347 348 348 349 349 350 351 351 350 350 349 346 344 344 344 344 343 344 346 346 345 345 345 344 343 340 338 339 339 337 334 327 328 329 328 338 335 335 334 333 334 334
345 346 345 346 347 347 348 348 349 349 348 348 344 342 340 340 342 344 343 343 345 345 344 343 341 340 338 338 337 337 335 333 327 329 329 331 337 335 334 334 333 332 333
343 345 345 345 345 345 346 346 345 345 344 344 341 337 336 335 337 337 338 341 343 343 344 343 341 340 337 335 335 334 331 327 327 329 330 338 336 336 334 333 332 332 331
340 342 344 344 344 344 345 341 338 339 337 338 338 336 336 334 333 336 335 338 342 341 341 340 339 338 331 325 323 328 325 325 327 329 331 339 337 336 334 333 332 331 330
340 342 343 343 344 343 340 339 337 334 333 332 334 334 335 335 333 332 331 332 331 332 333 334 332 328 325 324 324 322 322 323 326 328 333 339 339 337 334 332 331 330 329
339 341 343 343 342 341 340 338 335 334 332 330 330 331 330 332 332 330 330 330 329 329 328 327 325 323 322 322 321 323 318 320 324 327 330 336 340 338 336 334 332 330 329
338 340 341 343 341 339 339 338 336 334 334 332 330 330 327 333 334 332 331 330 330 329 329 327 327 327 326 324 321 316 315 317 323 326 327 331 337 341 339 336 333 332 330
338 339 341 342 340 339 339 338 336 336 335 332 328 329 327 333 335 333 331 331 330 330 330 329 329 329 327 325 323 320 315 315 318 324 324 326 333 338 341 340 338 335 333
338 339 340 341 341 339 339 338 336 336 333 331 326 326 327 329 331 331 332 331 331 330 331 330 328 323 322 321 322 322 318 315 316 319 323 324 327 330 336 339 339 339 337
335 337 340 342 340 339 339 337 335 334 330 329 325 324 325 326 325 324 330 330 330 329 328 326 322 320 319 318 317 317 318 316 315 317 321 322 323 325 329 335 339 339 338
336 337 338 339 338 339 339 338 337 334 331 329 327 326 324 324 326 325 325 328 326 325 323 323 321 321 319 318 319 319 319 318 317 319 319 321 322 323 322 327 331 334 337
334 337 339 339 339 337 336 336 335 334 332 331 329 328 328 327 327 326 326 324 323 323 322 322 321 321 320 320 322 321 320 321 322 321 322 323 323 323 324 323 324 325 328
332 333 335 336 336 337 336 333 333 331 334 334 334 332 331 331 329 328 327 327 322 322 323 323 323 322 321 321 320 319 320 321 320 321 322 322 323 324 324 322 321 320 320
331 333 332 334 336 337 337 335 333 332 332 335 336 336 335 334 332 329 328 327 326 323 323 323 323 322 323 322 319 316 313 317 319 321 321 322 320 319 316 315 313 315 315
327 330 332 334 335 336 336 332 331 332 331 330 332 334 335 336 335 333 330 330 330 327 325 325 325 324 321 322 321 318 311 311 314 316 315 315 315 313 312 312 311 312 312
326 328 330 332 333 334 333 333 331 331 327 330 331 330 332 334 334 333 332 332 332 331 329 328 329 327 324 321 323 324 321 320 316 314 317 313 312 311 310 309 307 307 306
322 325 327 329 330 330 332 331 328 325 327 327 329 329 329 331 332 332 332 331 331 331 330 330 329 328 327 324 323 321 320 320 320 315 313 311 309 308 307 307 307 306 304
317 319 322 325 327 329 328 325 326 323 322 323 323 324 327 328 330 330 331 330 329 329 328 328 328 327 327 326 326 325 322 318 317 316 313 314 312 307 305 305 304 303 301

GFSSE_sfc_thetae_105.txt.gz
Theta_e
345 351 357 358 356 354 350 350 350 351 354 355 355 356 355 354 354 353 352 351 348 348 348 348 348 348 349 349 348 348 346 346 347 347 346 346 345 346 347 348 347 343 348
349 352 356 357 356 352 349 350 350 352 353 354 356 355 355 354 353 352 349 348 345 345 345 348 346 349 349 349 347 347 347 347 346 345 344 344 345 343 344 346 347 345 347
349 352 353 356 355 353 351 348 349 350 353 354 355 354 353 353 351 348 347 345 344 344 345 347 348 348 349 347 347 345 345 344 343 342 341 340 342 347 347 346 348 347 346
350 351 352 355 355 353 349 348 348 349 352 353 353 353 352 350 348 346 345 343 342 342 343 346 348 348 347 345 346 344 342 341 340 337 331 333 338 345 345 346 346 347 345
349 351 351 354 354 353 351 350 350 350 350 352 352 352 349 347 346 344 343 342 343 344 346 347 348 346 346 347 343 341 339 338 336 331 328 330 334 338 340 341 340 341 341
348 350 351 353 353 352 351 350 350 348 347 348 350 350 349 345 345 343 343 344 346 347 348 347 347 344 347 346 342 339 337 336 331 324 325 330 329 339 339 338 337 337 336
346 349 350 352 353 352 351 351 350 348 345 345 347 346 345 344 343 343 343 345 346 347 348 347 346 343 346 344 341 338 337 333 325 324 324 325 328 337 337 337 336 336 336
345 346 348 349 351 352 351 350 349 348 346 345 346 345 343 342 342 344 344 346 346 346 347 346 345 342 342 342 340 337 336 333 328 326 326 327 336 336 336 335 335 335 335
346 345 346 346 348 349 349 349 349 348 346 345 345 344 344 343 345 347 347 347 346 346 346 345 344 341 341 341 340 337 335 332 326 326 328 328 338 336 335 334 334 334 334
344 344 344 345 346 346 347 347 347 347 344 343 343 342 340 340 342 345 344 345 345 345 345 344 342 339 340 340 339 338 335 332 325 327 327 331 336 336 335 334 333 333 333
342 343 343 343 344 345 345 345 345 345 343 341 339 337 336 335 336 336 337 341 344 344 343 342 340 339 336 335 336 335 332 326 325 327 328 338 336 336 335 334 333 332 332
338 342 343 343 342 343 345 343 341 343 340 336 333 332 332 331 332 336 335 338 342 342 342 342 340 337 329 323 322 328 325 325 325 326 329 338 336 335 334 333 332 331 331
338 342 343 342 342 342 340 338 336 337 337 336 333 332 331 331 329 330 330 332 331 332 331 332 329 325 322 322 322 320 321 322 324 327 331 339 337 335 334 332 332 331 330
338 340 342 342 342 340 339 336 332 333 332 333 333 332 332 329 328 326 327 327 326 326 325 324 323 322 322 321 320 321 318 321 324 326 328 336 340 337 335 333 331 330 329
337 340 341 342 341 338 337 335 332 331 331 331 331 331 331 331 329 328 327 326 326 326 325 324 323 322 322 323 321 318 314 318 322 325 325 330 337 340 337 335 333 331 330
338 340 342 341 341 338 336 334 332 332 332 331 329 331 329 333 332 330 328 328 327 327 328 327 326 326 326 325 323 319 314 314 318 323 324 325 333 338 341 339 337 335 333
338 340 341 341 340 337 336 335 334 333 334 331 329 329 329 333 333 332 329 328 328 328 328 328 327 325 323 323 321 321 319 314 314 317 322 323 326 330 336 339 339 338 336
338 339 341 342 339 338 337 336 335 334 333 332 329 326 328 329 332 330 329 328 329 329 328 327 325 322 319 317 316 317 317 317 314 314 319 322 323 325 328 335 338 338 338
338 337 338 340 338 337 338 337 335 334 331 330 326 324 326 326 327 328 329 329 329 327 326 325 322 320 318 318 318 317 318 318 316 317 316 318 320 322 322 326 329 332 335
336 337 339 339 338 337 337 334 333 332 329 327 325 324 323 324 325 325 324 326 327 324 323 321 320 320 319 319 320 320 320 320 321 320 319 321 321 321 322 323 322 324 327
332 335 337 335 337 337 335 333 331 330 328 329 328 327 326 326 326 325 325 324 323 322 322 321 321 320 320 320 319 319 320 321 319 319 320 321 322 323 323 324 324 322 321
332 332 333 335 335 336 336 335 333 332 331 332 332 332 330 329 328 326 326 325 322 321 321 321 322 321 322 321 319 316 313 316 318 317 319 320 317 316 317 316 315 318 317
327 329 332 333 335 336 335 332 331 331 330 330 330 332 332 332 332 331 330 329 326 323 322 323 323 323 321 322 321 319 312 311 313 315 313 315 315 314 314 311 313 313 311
326 329 331 331 334 333 333 332 330 330 328 330 330 331 331 334 333 333 331 331 330 329 327 326 327 326 324 321 322 324 322 320 315 313 315 311 310 310 310 311 310 308 308
323 325 327 329 329 329 331 331 328 326 327 327 328 329 329 330 331 332 332 330 330 330 330 330 328 327 326 323 322 321 321 320 320 316 313 311 309 308 308 308 308 306 305
318 320 323 325 327 328 329 328 327 324 323 323 324 325 325 328 329 330 330 329 329 329 329 329 329 328 327 326 325 323 320 318 317 317 315 313 310 306 306 305 305 304 303

GFSSE_sfc_thetae_108.txt.gz
Theta_e
342 350 356 357 354 352 352 351 352 354 354 356 357 355 355 355 353 352 353 351 351 350 350 349 348 348 347 346 347 347 348 348 348 346 346 346 348 348 349 348 347 342 347
346 351 356 356 355 353 350 350 353 356 355 356 357 355 355 354 353 351 348 348 348 349 347 349 350 350 348 347 348 348 348 347 347 346 345 343 344 345 347 347 347 343 346
348 351 352 355 353 352 349 350 353 354 356 357 357 356 354 353 352 349 347 346 345 348 347 348 349 348 348 346 346 346 346 345 344 342 342 339 341 348 347 346 347 346 345
349 350 351 354 352 351 349 349 352 353 354 355 355 355 354 351 349 347 345 344 345 348 348 349 349 347 347 346 344 344 343 342 340 337 332 335 336 344 346 345 345 343 341
348 349 351 353 352 351 350 349 351 353 353 353 353 353 352 348 347 345 343 345 347 348 350 348 347 346 344 343 342 340 340 339 336 331 329 330 330 338 341 339 338 338 338
347 349 351 352 352 351 350 350 350 352 352 352 352 351 350 346 344 343 343 345 347 349 349 346 346 346 344 341 338 337 337 335 330 324 325 331 329 339 339 338 337 337 336
347 349 349 352 352 351 351 350 350 351 350 352 351 350 347 345 343 343 343 346 348 349 347 345 345 345 343 340 337 337 336 332 324 323 323 325 329 338 338 338 337 336 335
345 346 348 348 350 350 349 349 348 349 349 350 349 346 345 344 343 343 344 346 348 347 346 344 344 344 342 340 337 336 335 332 326 325 325 327 337 337 337 337 336 335 335
346 344 344 346 347 347 348 347 346 346 347 346 346 345 344 343 344 344 346 347 348 348 347 345 343 343 342 340 337 336 334 331 324 325 327 327 338 337 336 336 335 335 334
342 343 342 344 345 344 344 345 344 343 343 344 343 341 340 341 343 346 345 346 347 347 346 345 343 341 342 340 337 336 334 330 324 325 327 331 337 337 336 335 334 334 333
340 341 342 342 343 343 342 343 343 342 341 341 339 336 335 335 336 336 339 341 344 345 344 342 340 339 338 336 337 335 330 324 324 326 327 338 336 336 335 334 333 333 332
337 340 341 342 342 342 343 342 341 338 336 334 333 332 332 332 332 335 335 340 343 342 342 341 339 334 327 322 323 328 324 323 325 325 327 338 336 336 335 334 333 332 332
337 340 341 341 342 340 341 342 342 338 333 330 329 331 330 330 330 330 331 332 332 331 331 330 327 323 321 320 321 320 322 322 323 325 329 338 337 336 334 333 332 331 331
336 338 341 340 340 338 339 338 338 337 333 330 330 329 328 328 326 326 327 327 327 326 325 323 322 321 321 320 319 320 318 321 323 324 326 335 339 336 335 333 332 331 330
334 338 340 340 339 338 337 334 333 335 333 332 331 330 329 327 325 325 324 324 323 323 322 321 320 320 320 321 320 318 313 316 321 324 324 329 336 339 336 335 333 332 331
335 338 341 339 340 338 336 332 330 331 332 332 331 331 330 330 327 326 324 324 324 325 325 323 322 322 324 324 323 320 314 313 317 321 323 324 332 337 340 338 337 335 333
332 338 340 339 340 337 335 332 329 330 331 331 331 331 331 332 330 328 326 326 326 326 326 325 325 325 323 323 321 321 320 314 313 317 322 322 324 329 335 339 339 338 337
336 338 340 340 340 338 336 333 331 331 331 330 328 331 331 332 332 329 328 327 328 327 327 326 324 322 320 318 317 317 317 317 314 313 316 320 322 324 327 334 337 338 337
337 339 339 339 338 337 336 335 333 332 331 330 327 327 328 329 332 331 329 328 328 327 326 325 323 321 318 317 317 317 317 317 317 315 315 317 319 321 322 325 329 331 334
338 339 339 339 339 337 336 335 333 330 329 327 327 325 325 326 327 329 328 328 328 326 325 323 322 320 319 319 319 319 319 319 319 318 318 318 319 320 320 322 323 324 328
335 336 338 338 338 336 335 332 330 329 325 324 324 324 324 325 325 326 326 326 326 326 325 323 320 319 318 318 318 319 319 321 318 318 318 319 320 322 321 323 323 322 322
330 334 334 337 337 336 335 335 332 331 329 330 328 326 325 325 325 325 324 323 323 322 322 321 320 319 320 320 318 317 315 316 317 315 316 318 315 316 318 320 321 317 316
329 330 332 334 335 335 334 332 330 330 329 328 328 327 329 329 326 326 325 325 322 322 321 320 320 321 320 321 321 319 313 312 315 316 313 315 316 314 313 314 315 314 313
328 330 333 333 334 335 335 333 330 329 327 328 329 330 331 331 330 329 330 329 327 325 325 324 326 325 324 321 323 323 322 320 315 313 314 311 311 312 312 312 311 312 310
325 328 329 330 332 333 334 333 329 330 331 331 329 330 330 331 332 331 330 329 328 329 329 329 327 326 325 324 323 321 321 321 321 317 313 313 311 310 310 310 310 308 307
320 324 328 330 329 330 331 330 330 328 328 327 327 329 329 328 328 330 331 331 330 330 329 329 328 327 326 325 323 323 320 317 317 317 315 314 312 309 308 307 307 306 307

GFSSE_sfc_thetae_111.txt.gz
Theta_e
346 352 357 357 354 352 353 353 355 358 359 358 358 355 355 355 353 355 353 352 352 354 350 349 348 349 347 348 349 349 349 345 345 345 346 348 350 349 349 347 347 344 345
348 352 356 356 354 355 355 355 354 355 357 357 357 356 355 355 354 353 352 350 351 348 350 349 349 348 348 350 349 349 348 348 346 345 344 344 346 349 347 347 348 343 343
349 352 353 355 355 354 354 355 355 355 357 357 357 355 354 354 352 350 352 352 350 351 351 351 349 346 347 348 347 347 347 346 345 344 344 346 346 348 347 347 346 343 340
350 352 352 353 354 353 354 355 356 357 357 356 356 355 356 353 350 349 349 351 351 351 350 349 348 347 345 345 346 345 345 343 341 341 338 338 338 344 343 342 341 339 338
350 352 351 352 353 352 353 355 356 357 357 355 354 354 354 352 348 346 349 350 350 351 350 348 347 346 344 343 343 343 342 340 337 338 338 339 338 340 341 339 338 337 337
349 351 351 351 352 351 353 355 355 355 354 354 353 352 351 350 346 346 348 348 350 350 349 348 345 344 341 339 339 338 338 335 335 336 337 338 337 339 339 338 337 337 337
347 350 350 352 351 351 352 354 354 354 353 353 352 351 349 347 345 345 347 349 350 348 347 347 345 343 339 338 338 337 335 332 333 334 335 336 337 339 339 338 337 337 336
347 349 349 348 349 350 351 352 352 353 353 352 351 350 347 346 345 344 347 349 349 347 347 347 344 342 339 338 337 336 334 333 332 334 335 336 339 338 338 337 336 336 335
347 347 348 347 347 347 348 349 350 351 350 350 349 348 345 344 344 345 348 349 349 347 346 346 345 342 339 337 336 335 334 332 333 334 334 335 339 338 337 336 336 335 334
345 346 346 346 345 345 345 345 346 347 346 346 345 342 340 340 342 345 345 346 348 347 345 345 345 343 341 338 336 335 333 331 333 334 336 336 338 337 336 336 335 334 334
342 343 345 344 344 344 342 341 342 342 342 341 340 337 337 341 343 342 340 342 345 346 344 344 342 341 340 338 337 333 331 332 333 334 336 338 337 337 336 335 335 334 333
338 340 343 343 342 343 342 342 341 341 340 339 339 339 342 344 344 342 338 340 343 343 342 341 338 334 332 333 335 332 333 333 333 334 336 338 337 336 335 334 334 333 332
338 340 341 342 341 342 341 342 340 339 338 338 338 339 341 341 342 342 343 343 342 336 339 336 332 331 330 330 331 332 333 333 334 335 335 338 337 336 335 334 333 333 332
336 339 340 342 340 341 343 340 339 337 336 336 336 337 338 337 338 339 339 339 339 337 335 333 330 329 329 329 330 329 329 333 334 335 335 335 339 336 334 333 332 332 331
335 338 339 341 341 340 337 339 339 336 335 336 336 336 336 335 335 336 335 335 335 334 333 330 329 328 328 329 329 328 324 329 331 333 335 329 336 338 336 334 333 332 331
334 338 340 340 341 340 336 335 336 335 334 335 335 336 335 335 334 333 332 332 331 331 330 328 327 328 331 333 332 328 324 324 327 331 333 333 332 337 339 338 337 335 333
336 339 338 340 340 339 337 337 335 334 334 333 333 334 334 334 333 332 330 329 330 331 331 331 331 333 333 333 333 331 330 326 323 324 330 332 332 329 335 339 339 338 337
336 338 339 340 339 338 337 336 336 337 336 335 334 334 333 333 333 331 330 330 332 333 334 333 332 332 332 330 330 330 329 328 326 322 324 328 330 331 331 334 336 337 337
336 338 338 339 338 337 336 335 334 335 336 336 336 335 334 335 334 333 332 333 333 333 333 332 332 331 330 329 327 327 326 325 325 323 323 324 327 329 331 328 328 331 334
335 339 339 339 338 338 336 336 336 334 333 334 334 334 335 335 336 336 334 333 333 332 332 331 331 329 329 327 323 324 326 327 327 326 325 323 325 327 328 330 328 328 328
337 338 338 338 338 337 335 333 331 330 332 332 332 331 332 333 334 336 335 334 333 332 332 331 329 328 326 326 325 326 326 326 326 323 325 328 328 329 330 329 330 331 331
333 337 337 337 337 337 337 336 335 334 332 332 331 329 329 330 330 331 332 331 332 331 330 329 328 325 325 325 324 321 320 321 320 319 321 325 325 324 324 327 327 325 321
329 333 337 337 337 337 336 335 334 334 333 332 331 330 329 328 329 329 329 330 329 329 329 328 327 327 325 325 326 324 317 315 318 318 316 317 319 319 319 318 320 318 318
327 331 333 332 332 334 334 333 331 330 329 332 331 331 330 330 329 330 330 330 328 329 328 327 327 326 325 324 326 326 327 326 317 317 316 314 314 314 314 314 313 313 312
329 330 332 331 330 331 333 332 329 326 329 330 331 330 330 330 331 331 331 332 330 330 328 328 326 326 328 327 327 324 325 324 322 318 314 316 314 313 314 312 312 310 309
325 328 329 328 329 332 331 331 327 325 327 332 331 330 330 332 331 332 331 332 332 331 330 330 330 329 329 328 328 328 323 319 319 318 316 316 316 314 311 311 310 309 308

GFSSE_sfc_thetae_114.txt.gz
Theta_e
346 353 356 356 356 355 355 358 360 359 359 359 358 355 355 354 353 352 353 353 354 353 349 351 348 347 349 351 348 346 346 346 347 347 349 349 349 349 348 349 346 339 341
348 353 356 357 355 356 356 357 359 359 358 358 358 355 354 354 354 353 354 353 352 351 349 347 348 350 351 351 349 347 346 345 345 345 346 346 346 348 347 345 345 339 339
348 352 355 355 352 356 356 356 358 358 358 358 358 357 354 354 353 353 354 352 353 353 350 349 349 350 349 349 349 348 348 347 344 345 347 345 345 347 344 341 341 339 339
348 351 352 354 355 356 356 355 357 358 357 357 357 357 355 354 353 353 353 351 353 352 352 349 347 348 347 347 346 346 344 342 343 343 339 339 339 342 341 340 339 338 338
348 350 351 354 354 355 356 355 356 358 357 357 356 354 354 354 352 352 352 351 353 352 351 349 345 345 345 345 345 344 342 340 340 337 337 338 337 339 339 338 338 338 338
347 349 352 353 354 354 356 355 356 357 357 355 354 353 353 352 351 351 351 352 351 350 349 347 345 343 342 342 340 340 338 337 338 335 336 338 337 339 339 338 337 337 337
346 350 350 352 353 355 356 356 356 356 355 354 353 353 352 350 350 350 350 351 350 350 347 345 342 339 338 338 338 337 335 336 334 335 336 337 338 339 339 338 337 337 336
346 349 349 349 350 353 355 355 354 354 354 353 352 352 350 349 349 349 350 350 349 349 347 344 340 339 338 338 337 336 334 335 334 336 336 337 340 338 338 337 336 336 336
348 348 348 348 348 349 352 352 352 352 351 351 350 348 347 345 346 347 350 349 348 348 347 346 341 339 338 337 336 335 334 334 334 335 334 336 339 338 337 336 335 335 335
346 347 346 345 343 350 351 348 348 349 348 348 346 344 341 341 342 347 346 346 347 347 346 346 343 339 338 336 336 334 333 333 335 336 335 337 338 338 337 336 335 334 333
343 346 346 343 341 342 349 346 345 345 344 342 341 337 337 340 343 345 341 343 344 345 346 345 344 340 339 337 335 333 332 333 334 335 335 339 337 337 337 335 334 334 333
338 343 344 341 339 339 343 345 346 345 345 343 341 341 337 337 341 344 340 340 344 342 342 342 340 338 336 337 335 332 335 334 334 335 336 339 337 337 335 335 334 333 333
337 343 343 339 341 339 337 345 345 343 342 342 342 337 336 337 340 343 343 341 342 336 338 337 335 336 336 336 336 336 335 335 335 335 335 337 337 336 335 334 333 333 332
336 340 341 340 339 336 337 336 340 343 342 339 337 336 338 339 338 339 339 341 338 340 337 336 335 335 335 335 334 333 335 336 336 336 335 336 338 336 335 334 333 332 332
332 338 339 340 337 337 335 334 334 334 335 335 335 338 339 339 338 341 340 342 339 339 336 333 332 333 333 333 333 333 331 334 335 336 337 332 336 337 336 335 334 333 332
332 337 340 340 337 339 337 335 333 333 334 334 334 338 341 339 337 337 337 337 337 336 333 332 330 330 331 333 332 330 327 329 331 334 335 335 333 337 338 337 336 335 334
325 338 340 340 338 339 338 338 335 333 333 334 334 336 338 338 337 336 334 334 333 333 331 330 329 331 333 335 334 332 333 332 329 329 331 333 334 330 335 340 339 338 337
324 336 341 341 339 338 338 337 337 335 332 332 334 335 335 335 335 334 332 331 331 331 330 330 329 331 336 336 335 334 334 333 332 331 329 330 332 333 332 335 338 338 338
324 332 338 340 339 339 340 339 338 338 335 332 331 332 334 333 333 332 330 330 332 334 334 334 335 335 334 335 333 333 331 331 331 329 329 329 330 332 334 331 330 333 335
327 332 339 339 339 340 341 341 340 340 340 339 335 333 332 332 332 332 332 334 335 335 335 335 334 335 336 334 328 328 331 331 331 331 330 329 329 330 332 333 334 331 328
331 335 337 338 339 338 337 335 335 334 336 337 340 340 338 337 337 337 336 336 337 336 335 336 335 334 333 332 330 329 330 332 331 331 332 330 330 331 332 333 334 333 333
331 333 337 337 336 337 339 337 336 335 336 336 337 337 338 338 339 338 338 337 337 336 336 335 334 330 333 332 328 328 324 326 328 327 328 328 327 328 330 327 330 332 329
327 331 334 336 336 337 338 338 337 337 336 334 335 335 335 336 336 337 337 337 336 336 334 335 335 334 330 331 329 328 323 321 326 329 324 322 323 326 323 321 322 320 319
327 332 334 335 336 337 340 336 334 332 331 333 335 336 334 332 333 334 333 333 334 335 334 334 334 334 327 324 329 330 331 329 322 319 325 323 320 318 317 318 317 318 315
328 325 331 332 333 334 338 335 333 334 336 337 336 334 334 332 333 332 333 334 333 334 331 328 327 326 329 329 329 328 327 327 326 321 315 317 317 316 316 319 315 314 311
325 325 328 329 329 331 331 331 331 329 329 330 332 332 332 332 331 332 332 332 332 331 330 330 332 330 330 330 330 329 327 323 322 321 317 318 318 318 315 314 314 315 311

GFSSE_sfc_thetae_117.txt.gz
Theta_e
345 352 357 358 357 358 360 361 360 360 359 358 356 354 353 353 353 352 352 352 351 353 350 347 347 349 347 347 348 348 348 349 349 349 349 349 349 348 346 346 342 336 341
348 351 356 357 357 358 360 360 359 357 359 358 356 354 354 353 353 352 353 352 352 352 350 348 350 350 350 347 346 345 346 346 347 348 346 345 346 345 343 341 342 337 340
348 350 352 356 357 357 359 359 359 358 358 358 356 356 354 353 352 353 353 353 353 351 349 351 351 350 350 349 348 348 347 344 344 347 346 342 341 342 340 339 341 340 340
349 350 350 354 356 357 357 359 358 358 358 357 356 355 355 354 354 353 355 355 354 352 351 350 349 349 348 347 345 345 342 341 342 343 337 336 336 340 340 340 340 339 340
349 350 350 353 354 356 356 358 358 357 357 357 356 355 354 354 353 353 353 352 351 351 349 347 347 347 346 344 344 343 339 340 339 337 336 337 336 338 340 339 339 339 339
348 349 351 353 353 355 355 356 358 357 356 356 354 353 353 353 353 352 352 351 350 350 348 345 345 345 344 343 342 339 337 338 340 335 335 337 336 339 339 338 338 338 338
347 349 351 353 354 355 355 355 356 356 355 355 354 353 353 353 353 352 352 350 350 349 347 344 342 341 340 339 338 337 335 337 334 334 335 336 336 339 339 338 338 337 337
346 349 350 350 351 353 354 354 356 355 354 353 352 352 352 351 351 352 351 350 349 347 344 341 339 339 338 338 337 335 335 336 334 334 336 336 339 339 338 337 337 336 337
348 348 349 349 349 350 352 353 354 353 352 350 351 350 348 348 349 351 349 349 349 347 344 342 339 338 338 337 336 335 335 336 334 334 334 335 340 339 337 336 336 335 335
347 346 348 347 346 348 352 349 349 349 348 348 347 344 342 342 345 348 345 347 347 346 345 342 341 338 337 336 335 334 334 335 334 334 334 336 339 338 337 336 335 334 334
344 344 347 344 342 344 349 348 346 346 344 343 341 338 338 340 343 344 340 343 345 346 345 343 341 339 338 336 335 334 333 333 334 334 334 339 338 338 337 335 335 334 333
340 341 344 342 339 342 347 348 348 347 345 342 341 340 337 337 343 344 339 340 344 344 344 343 340 338 335 333 332 332 333 333 334 334 334 340 337 337 336 335 334 334 333
337 340 343 341 338 340 344 348 347 346 343 341 340 339 333 336 342 343 341 340 340 336 339 339 337 336 337 335 334 334 333 333 333 334 335 339 337 336 335 334 334 333 332
331 336 341 339 337 338 343 345 344 344 341 339 339 334 333 336 342 341 340 339 337 337 336 335 334 334 334 334 334 333 333 333 333 334 334 337 338 336 335 334 333 333 332
331 333 338 338 337 335 339 343 343 341 339 341 341 332 335 337 338 339 338 339 337 337 335 334 333 333 332 332 332 331 331 333 333 334 335 333 337 338 336 335 334 333 332
328 334 331 338 338 334 334 340 342 341 339 337 336 336 338 338 338 339 337 340 338 337 335 332 331 331 331 331 330 329 328 330 330 332 334 333 335 338 338 337 336 335 334
322 336 334 336 335 333 331 332 334 339 337 334 334 338 337 338 338 339 338 338 336 336 332 331 329 330 330 331 331 330 329 329 328 329 331 334 333 332 337 340 340 338 337
325 333 336 336 334 333 332 332 331 333 333 333 334 337 338 337 338 337 336 335 334 332 330 329 328 329 332 334 334 334 333 334 332 330 330 330 333 333 332 337 339 339 339
322 331 334 336 334 337 337 335 332 330 332 332 333 335 336 335 335 334 333 332 331 330 329 329 329 331 333 333 333 333 333 332 331 330 329 330 331 332 334 331 332 334 336
327 326 331 336 336 337 337 335 335 330 329 332 333 333 334 333 333 332 331 329 330 331 332 334 333 335 334 333 330 328 331 333 333 332 329 329 330 331 332 334 332 330 329
326 326 331 335 336 336 334 333 334 332 331 330 331 330 331 330 331 330 330 331 333 333 333 333 334 333 333 334 330 330 330 332 331 331 332 331 331 332 332 333 333 334 329
325 324 326 334 336 336 334 335 336 338 338 337 335 332 330 331 332 332 334 334 334 334 333 334 334 333 334 335 328 329 324 326 329 329 329 328 329 328 327 327 329 331 332
318 325 326 329 335 336 336 337 337 337 337 336 336 337 337 337 338 337 337 335 336 336 335 336 335 334 331 334 331 328 321 320 325 328 326 324 324 325 324 322 324 323 321
320 322 329 328 333 336 337 334 333 331 330 333 334 335 335 337 338 339 339 338 338 337 336 335 336 337 335 328 329 330 331 329 321 319 325 324 323 322 322 321 319 318 317
324 325 328 330 332 335 335 335 334 332 332 333 335 333 334 335 335 336 335 334 334 336 337 336 334 330 329 329 330 330 328 328 327 322 318 320 321 323 322 318 317 314 313
325 325 327 326 330 333 334 333 333 334 334 332 333 332 332 332 333 333 334 334 334 335 333 331 328 330 330 331 332 330 328 325 323 321 318 320 320 323 323 320 318 317 317